<?xml version="1.0" encoding="UTF-8" standalone="no" ?>
<gpx xmlns="http://www.topografix.com/GPX/1/1" xmlns:xsi="http://www.w3.org/2001/XMLSchema-instance" xsi:schemaLocation="http://www.topografix.com/GPX/1/1 http://www.topografix.com/GPX/1/1/gpx.xsd" version="1.1" creator="VisuGPX - https://www.visugpx.com">
  <metadata>
    <name>Course à pied le midi</name>
  </metadata>
  <trk>
    <name><![CDATA[Course à pied le midi_1]]></name>
    <trkseg>
      <trkpt lat="43.64764" lon="1.37633">
        <ele>125</ele>
        <time>2025-04-18T09:51:37Z</time>
      </trkpt>
      <trkpt lat="43.64764" lon="1.37633">
        <ele>125</ele>
        <time>2025-04-18T09:51:38Z</time>
      </trkpt>
      <trkpt lat="43.64764" lon="1.37633">
        <ele>125</ele>
        <time>2025-04-18T09:51:39Z</time>
      </trkpt>
      <trkpt lat="43.64764" lon="1.37633">
        <ele>124</ele>
        <time>2025-04-18T09:51:40Z</time>
      </trkpt>
      <trkpt lat="43.64765" lon="1.3763">
        <ele>124</ele>
        <time>2025-04-18T09:51:41Z</time>
      </trkpt>
      <trkpt lat="43.64765" lon="1.3763">
        <ele>124</ele>
        <time>2025-04-18T09:51:42Z</time>
      </trkpt>
      <trkpt lat="43.64763" lon="1.37628">
        <ele>124</ele>
        <time>2025-04-18T09:51:43Z</time>
      </trkpt>
      <trkpt lat="43.64763" lon="1.37628">
        <ele>124</ele>
        <time>2025-04-18T09:51:44Z</time>
      </trkpt>
      <trkpt lat="43.64761" lon="1.37624">
        <ele>124</ele>
        <time>2025-04-18T09:51:45Z</time>
      </trkpt>
      <trkpt lat="43.64761" lon="1.37624">
        <ele>124</ele>
        <time>2025-04-18T09:51:46Z</time>
      </trkpt>
      <trkpt lat="43.64762" lon="1.3762">
        <ele>124</ele>
        <time>2025-04-18T09:51:47Z</time>
      </trkpt>
      <trkpt lat="43.64763" lon="1.37618">
        <ele>125</ele>
        <time>2025-04-18T09:51:48Z</time>
      </trkpt>
      <trkpt lat="43.64766" lon="1.37616">
        <ele>125</ele>
        <time>2025-04-18T09:51:49Z</time>
      </trkpt>
      <trkpt lat="43.64768" lon="1.37615">
        <ele>125</ele>
        <time>2025-04-18T09:51:50Z</time>
      </trkpt>
      <trkpt lat="43.64768" lon="1.37615">
        <ele>125</ele>
        <time>2025-04-18T09:51:51Z</time>
      </trkpt>
      <trkpt lat="43.64772" lon="1.37612">
        <ele>125</ele>
        <time>2025-04-18T09:51:52Z</time>
      </trkpt>
      <trkpt lat="43.64774" lon="1.37611">
        <ele>125</ele>
        <time>2025-04-18T09:51:53Z</time>
      </trkpt>
      <trkpt lat="43.64776" lon="1.37609">
        <ele>124</ele>
        <time>2025-04-18T09:51:54Z</time>
      </trkpt>
      <trkpt lat="43.64778" lon="1.37608">
        <ele>124</ele>
        <time>2025-04-18T09:51:55Z</time>
      </trkpt>
      <trkpt lat="43.64778" lon="1.37608">
        <ele>124</ele>
        <time>2025-04-18T09:51:56Z</time>
      </trkpt>
      <trkpt lat="43.64781" lon="1.37605">
        <ele>125</ele>
        <time>2025-04-18T09:51:57Z</time>
      </trkpt>
      <trkpt lat="43.64781" lon="1.37605">
        <ele>125</ele>
        <time>2025-04-18T09:51:58Z</time>
      </trkpt>
      <trkpt lat="43.64785" lon="1.37603">
        <ele>125</ele>
        <time>2025-04-18T09:51:59Z</time>
      </trkpt>
      <trkpt lat="43.64787" lon="1.37602">
        <ele>125</ele>
        <time>2025-04-18T09:52:00Z</time>
      </trkpt>
      <trkpt lat="43.64787" lon="1.37602">
        <ele>125</ele>
        <time>2025-04-18T09:52:01Z</time>
      </trkpt>
      <trkpt lat="43.64791" lon="1.376">
        <ele>125</ele>
        <time>2025-04-18T09:52:02Z</time>
      </trkpt>
      <trkpt lat="43.64791" lon="1.376">
        <ele>126</ele>
        <time>2025-04-18T09:52:03Z</time>
      </trkpt>
      <trkpt lat="43.64795" lon="1.37598">
        <ele>126</ele>
        <time>2025-04-18T09:52:04Z</time>
      </trkpt>
      <trkpt lat="43.64797" lon="1.37598">
        <ele>125</ele>
        <time>2025-04-18T09:52:05Z</time>
      </trkpt>
      <trkpt lat="43.64799" lon="1.37598">
        <ele>125</ele>
        <time>2025-04-18T09:52:06Z</time>
      </trkpt>
      <trkpt lat="43.64802" lon="1.37598">
        <ele>125</ele>
        <time>2025-04-18T09:52:07Z</time>
      </trkpt>
      <trkpt lat="43.64805" lon="1.37599">
        <ele>126</ele>
        <time>2025-04-18T09:52:08Z</time>
      </trkpt>
      <trkpt lat="43.64808" lon="1.37599">
        <ele>126</ele>
        <time>2025-04-18T09:52:09Z</time>
      </trkpt>
      <trkpt lat="43.6481" lon="1.376">
        <ele>127</ele>
        <time>2025-04-18T09:52:10Z</time>
      </trkpt>
      <trkpt lat="43.64812" lon="1.376">
        <ele>127</ele>
        <time>2025-04-18T09:52:11Z</time>
      </trkpt>
      <trkpt lat="43.64814" lon="1.37601">
        <ele>127</ele>
        <time>2025-04-18T09:52:12Z</time>
      </trkpt>
      <trkpt lat="43.64817" lon="1.37601">
        <ele>127</ele>
        <time>2025-04-18T09:52:13Z</time>
      </trkpt>
      <trkpt lat="43.64819" lon="1.37602">
        <ele>127</ele>
        <time>2025-04-18T09:52:14Z</time>
      </trkpt>
      <trkpt lat="43.64822" lon="1.37605">
        <ele>127</ele>
        <time>2025-04-18T09:52:15Z</time>
      </trkpt>
      <trkpt lat="43.64822" lon="1.37605">
        <ele>127</ele>
        <time>2025-04-18T09:52:16Z</time>
      </trkpt>
      <trkpt lat="43.64827" lon="1.37609">
        <ele>127</ele>
        <time>2025-04-18T09:52:17Z</time>
      </trkpt>
      <trkpt lat="43.64829" lon="1.37611">
        <ele>127</ele>
        <time>2025-04-18T09:52:18Z</time>
      </trkpt>
      <trkpt lat="43.64831" lon="1.37613">
        <ele>127</ele>
        <time>2025-04-18T09:52:19Z</time>
      </trkpt>
      <trkpt lat="43.64834" lon="1.37614">
        <ele>127</ele>
        <time>2025-04-18T09:52:20Z</time>
      </trkpt>
      <trkpt lat="43.64836" lon="1.37616">
        <ele>127</ele>
        <time>2025-04-18T09:52:21Z</time>
      </trkpt>
      <trkpt lat="43.64839" lon="1.37618">
        <ele>127</ele>
        <time>2025-04-18T09:52:22Z</time>
      </trkpt>
      <trkpt lat="43.64841" lon="1.37619">
        <ele>127</ele>
        <time>2025-04-18T09:52:23Z</time>
      </trkpt>
      <trkpt lat="43.64844" lon="1.37621">
        <ele>127</ele>
        <time>2025-04-18T09:52:24Z</time>
      </trkpt>
      <trkpt lat="43.64847" lon="1.37623">
        <ele>127</ele>
        <time>2025-04-18T09:52:25Z</time>
      </trkpt>
      <trkpt lat="43.64847" lon="1.37623">
        <ele>127</ele>
        <time>2025-04-18T09:52:26Z</time>
      </trkpt>
      <trkpt lat="43.64852" lon="1.37629">
        <ele>128</ele>
        <time>2025-04-18T09:52:27Z</time>
      </trkpt>
      <trkpt lat="43.64852" lon="1.37629">
        <ele>128</ele>
        <time>2025-04-18T09:52:28Z</time>
      </trkpt>
      <trkpt lat="43.64858" lon="1.37634">
        <ele>127</ele>
        <time>2025-04-18T09:52:29Z</time>
      </trkpt>
      <trkpt lat="43.6486" lon="1.37636">
        <ele>127</ele>
        <time>2025-04-18T09:52:30Z</time>
      </trkpt>
      <trkpt lat="43.64862" lon="1.37638">
        <ele>127</ele>
        <time>2025-04-18T09:52:31Z</time>
      </trkpt>
      <trkpt lat="43.64864" lon="1.37641">
        <ele>127</ele>
        <time>2025-04-18T09:52:32Z</time>
      </trkpt>
      <trkpt lat="43.64864" lon="1.37641">
        <ele>127</ele>
        <time>2025-04-18T09:52:33Z</time>
      </trkpt>
      <trkpt lat="43.64869" lon="1.37645">
        <ele>127</ele>
        <time>2025-04-18T09:52:34Z</time>
      </trkpt>
      <trkpt lat="43.64871" lon="1.37647">
        <ele>127</ele>
        <time>2025-04-18T09:52:35Z</time>
      </trkpt>
      <trkpt lat="43.64873" lon="1.3765">
        <ele>128</ele>
        <time>2025-04-18T09:52:36Z</time>
      </trkpt>
      <trkpt lat="43.64873" lon="1.3765">
        <ele>128</ele>
        <time>2025-04-18T09:52:37Z</time>
      </trkpt>
      <trkpt lat="43.64876" lon="1.37657">
        <ele>128</ele>
        <time>2025-04-18T09:52:38Z</time>
      </trkpt>
      <trkpt lat="43.64877" lon="1.3766">
        <ele>128</ele>
        <time>2025-04-18T09:52:39Z</time>
      </trkpt>
      <trkpt lat="43.64878" lon="1.37663">
        <ele>128</ele>
        <time>2025-04-18T09:52:40Z</time>
      </trkpt>
      <trkpt lat="43.64879" lon="1.37667">
        <ele>128</ele>
        <time>2025-04-18T09:52:41Z</time>
      </trkpt>
      <trkpt lat="43.64879" lon="1.37667">
        <ele>128</ele>
        <time>2025-04-18T09:52:42Z</time>
      </trkpt>
      <trkpt lat="43.64882" lon="1.37674">
        <ele>128</ele>
        <time>2025-04-18T09:52:43Z</time>
      </trkpt>
      <trkpt lat="43.64882" lon="1.37674">
        <ele>128</ele>
        <time>2025-04-18T09:52:44Z</time>
      </trkpt>
      <trkpt lat="43.64884" lon="1.37681">
        <ele>128</ele>
        <time>2025-04-18T09:52:45Z</time>
      </trkpt>
      <trkpt lat="43.64885" lon="1.37684">
        <ele>128</ele>
        <time>2025-04-18T09:52:46Z</time>
      </trkpt>
      <trkpt lat="43.64885" lon="1.37684">
        <ele>128</ele>
        <time>2025-04-18T09:52:47Z</time>
      </trkpt>
      <trkpt lat="43.64886" lon="1.37692">
        <ele>128</ele>
        <time>2025-04-18T09:52:48Z</time>
      </trkpt>
      <trkpt lat="43.64887" lon="1.37695">
        <ele>128</ele>
        <time>2025-04-18T09:52:49Z</time>
      </trkpt>
      <trkpt lat="43.64888" lon="1.37699">
        <ele>128</ele>
        <time>2025-04-18T09:52:50Z</time>
      </trkpt>
      <trkpt lat="43.64888" lon="1.37699">
        <ele>128</ele>
        <time>2025-04-18T09:52:51Z</time>
      </trkpt>
      <trkpt lat="43.6489" lon="1.37705">
        <ele>128</ele>
        <time>2025-04-18T09:52:52Z</time>
      </trkpt>
      <trkpt lat="43.6489" lon="1.37705">
        <ele>128</ele>
        <time>2025-04-18T09:52:53Z</time>
      </trkpt>
      <trkpt lat="43.64892" lon="1.37711">
        <ele>128</ele>
        <time>2025-04-18T09:52:54Z</time>
      </trkpt>
      <trkpt lat="43.64893" lon="1.37714">
        <ele>128</ele>
        <time>2025-04-18T09:52:55Z</time>
      </trkpt>
      <trkpt lat="43.64894" lon="1.37717">
        <ele>128</ele>
        <time>2025-04-18T09:52:56Z</time>
      </trkpt>
      <trkpt lat="43.64896" lon="1.3772">
        <ele>128</ele>
        <time>2025-04-18T09:52:57Z</time>
      </trkpt>
      <trkpt lat="43.64896" lon="1.3772">
        <ele>128</ele>
        <time>2025-04-18T09:52:58Z</time>
      </trkpt>
      <trkpt lat="43.64897" lon="1.37727">
        <ele>128</ele>
        <time>2025-04-18T09:52:59Z</time>
      </trkpt>
      <trkpt lat="43.64898" lon="1.3773">
        <ele>128</ele>
        <time>2025-04-18T09:53:00Z</time>
      </trkpt>
      <trkpt lat="43.64899" lon="1.37734">
        <ele>128</ele>
        <time>2025-04-18T09:53:01Z</time>
      </trkpt>
      <trkpt lat="43.649" lon="1.37737">
        <ele>128</ele>
        <time>2025-04-18T09:53:02Z</time>
      </trkpt>
      <trkpt lat="43.649" lon="1.3774">
        <ele>128</ele>
        <time>2025-04-18T09:53:03Z</time>
      </trkpt>
      <trkpt lat="43.649" lon="1.3774">
        <ele>128</ele>
        <time>2025-04-18T09:53:04Z</time>
      </trkpt>
      <trkpt lat="43.64902" lon="1.37746">
        <ele>129</ele>
        <time>2025-04-18T09:53:05Z</time>
      </trkpt>
      <trkpt lat="43.64903" lon="1.37749">
        <ele>129</ele>
        <time>2025-04-18T09:53:06Z</time>
      </trkpt>
      <trkpt lat="43.64905" lon="1.37753">
        <ele>129</ele>
        <time>2025-04-18T09:53:07Z</time>
      </trkpt>
      <trkpt lat="43.64906" lon="1.37757">
        <ele>129</ele>
        <time>2025-04-18T09:53:08Z</time>
      </trkpt>
      <trkpt lat="43.64906" lon="1.37757">
        <ele>129</ele>
        <time>2025-04-18T09:53:09Z</time>
      </trkpt>
      <trkpt lat="43.64907" lon="1.37764">
        <ele>129</ele>
        <time>2025-04-18T09:53:10Z</time>
      </trkpt>
      <trkpt lat="43.64907" lon="1.37768">
        <ele>129</ele>
        <time>2025-04-18T09:53:11Z</time>
      </trkpt>
      <trkpt lat="43.64907" lon="1.37772">
        <ele>129</ele>
        <time>2025-04-18T09:53:12Z</time>
      </trkpt>
      <trkpt lat="43.64908" lon="1.37775">
        <ele>129</ele>
        <time>2025-04-18T09:53:13Z</time>
      </trkpt>
      <trkpt lat="43.64908" lon="1.37775">
        <ele>130</ele>
        <time>2025-04-18T09:53:14Z</time>
      </trkpt>
      <trkpt lat="43.64909" lon="1.37779">
        <ele>130</ele>
        <time>2025-04-18T09:53:15Z</time>
      </trkpt>
      <trkpt lat="43.6491" lon="1.37781">
        <ele>130</ele>
        <time>2025-04-18T09:53:16Z</time>
      </trkpt>
      <trkpt lat="43.64912" lon="1.37784">
        <ele>130</ele>
        <time>2025-04-18T09:53:17Z</time>
      </trkpt>
      <trkpt lat="43.64913" lon="1.37787">
        <ele>130</ele>
        <time>2025-04-18T09:53:18Z</time>
      </trkpt>
      <trkpt lat="43.64914" lon="1.37789">
        <ele>130</ele>
        <time>2025-04-18T09:53:19Z</time>
      </trkpt>
      <trkpt lat="43.64916" lon="1.37793">
        <ele>130</ele>
        <time>2025-04-18T09:53:20Z</time>
      </trkpt>
      <trkpt lat="43.64917" lon="1.37796">
        <ele>130</ele>
        <time>2025-04-18T09:53:21Z</time>
      </trkpt>
      <trkpt lat="43.64917" lon="1.378">
        <ele>130</ele>
        <time>2025-04-18T09:53:22Z</time>
      </trkpt>
      <trkpt lat="43.64918" lon="1.37803">
        <ele>130</ele>
        <time>2025-04-18T09:53:23Z</time>
      </trkpt>
      <trkpt lat="43.64918" lon="1.37806">
        <ele>130</ele>
        <time>2025-04-18T09:53:24Z</time>
      </trkpt>
      <trkpt lat="43.64918" lon="1.37809">
        <ele>130</ele>
        <time>2025-04-18T09:53:25Z</time>
      </trkpt>
      <trkpt lat="43.64918" lon="1.37812">
        <ele>130</ele>
        <time>2025-04-18T09:53:26Z</time>
      </trkpt>
      <trkpt lat="43.64919" lon="1.37816">
        <ele>130</ele>
        <time>2025-04-18T09:53:27Z</time>
      </trkpt>
      <trkpt lat="43.64919" lon="1.37819">
        <ele>130</ele>
        <time>2025-04-18T09:53:28Z</time>
      </trkpt>
      <trkpt lat="43.64919" lon="1.37819">
        <ele>130</ele>
        <time>2025-04-18T09:53:29Z</time>
      </trkpt>
      <trkpt lat="43.64921" lon="1.37827">
        <ele>130</ele>
        <time>2025-04-18T09:53:30Z</time>
      </trkpt>
      <trkpt lat="43.64921" lon="1.37827">
        <ele>130</ele>
        <time>2025-04-18T09:53:31Z</time>
      </trkpt>
      <trkpt lat="43.64923" lon="1.37833">
        <ele>130</ele>
        <time>2025-04-18T09:53:32Z</time>
      </trkpt>
      <trkpt lat="43.64923" lon="1.37833">
        <ele>130</ele>
        <time>2025-04-18T09:53:33Z</time>
      </trkpt>
      <trkpt lat="43.64924" lon="1.37838">
        <ele>130</ele>
        <time>2025-04-18T09:53:34Z</time>
      </trkpt>
      <trkpt lat="43.64926" lon="1.37841">
        <ele>130</ele>
        <time>2025-04-18T09:53:35Z</time>
      </trkpt>
      <trkpt lat="43.64926" lon="1.37841">
        <ele>130</ele>
        <time>2025-04-18T09:53:36Z</time>
      </trkpt>
      <trkpt lat="43.64926" lon="1.37844">
        <ele>130</ele>
        <time>2025-04-18T09:53:37Z</time>
      </trkpt>
      <trkpt lat="43.64927" lon="1.37847">
        <ele>130</ele>
        <time>2025-04-18T09:53:38Z</time>
      </trkpt>
      <trkpt lat="43.64928" lon="1.3785">
        <ele>130</ele>
        <time>2025-04-18T09:53:39Z</time>
      </trkpt>
      <trkpt lat="43.64929" lon="1.37852">
        <ele>130</ele>
        <time>2025-04-18T09:53:40Z</time>
      </trkpt>
      <trkpt lat="43.64932" lon="1.3786">
        <ele>131</ele>
        <time>2025-04-18T09:53:41Z</time>
      </trkpt>
      <trkpt lat="43.64932" lon="1.37862">
        <ele>131</ele>
        <time>2025-04-18T09:53:42Z</time>
      </trkpt>
      <trkpt lat="43.64934" lon="1.37865">
        <ele>131</ele>
        <time>2025-04-18T09:53:43Z</time>
      </trkpt>
      <trkpt lat="43.64936" lon="1.37868">
        <ele>132</ele>
        <time>2025-04-18T09:53:44Z</time>
      </trkpt>
      <trkpt lat="43.64937" lon="1.37871">
        <ele>132</ele>
        <time>2025-04-18T09:53:45Z</time>
      </trkpt>
      <trkpt lat="43.64939" lon="1.37873">
        <ele>132</ele>
        <time>2025-04-18T09:53:46Z</time>
      </trkpt>
      <trkpt lat="43.6494" lon="1.37874">
        <ele>132</ele>
        <time>2025-04-18T09:53:47Z</time>
      </trkpt>
      <trkpt lat="43.64942" lon="1.37876">
        <ele>131</ele>
        <time>2025-04-18T09:53:48Z</time>
      </trkpt>
      <trkpt lat="43.64944" lon="1.37879">
        <ele>131</ele>
        <time>2025-04-18T09:53:49Z</time>
      </trkpt>
      <trkpt lat="43.64946" lon="1.37882">
        <ele>131</ele>
        <time>2025-04-18T09:53:50Z</time>
      </trkpt>
      <trkpt lat="43.64946" lon="1.37882">
        <ele>131</ele>
        <time>2025-04-18T09:53:51Z</time>
      </trkpt>
      <trkpt lat="43.64949" lon="1.37889">
        <ele>131</ele>
        <time>2025-04-18T09:53:52Z</time>
      </trkpt>
      <trkpt lat="43.6495" lon="1.37892">
        <ele>132</ele>
        <time>2025-04-18T09:53:53Z</time>
      </trkpt>
      <trkpt lat="43.64951" lon="1.37896">
        <ele>132</ele>
        <time>2025-04-18T09:53:54Z</time>
      </trkpt>
      <trkpt lat="43.64951" lon="1.379">
        <ele>132</ele>
        <time>2025-04-18T09:53:55Z</time>
      </trkpt>
      <trkpt lat="43.64952" lon="1.37904">
        <ele>132</ele>
        <time>2025-04-18T09:53:56Z</time>
      </trkpt>
      <trkpt lat="43.64952" lon="1.37904">
        <ele>132</ele>
        <time>2025-04-18T09:53:57Z</time>
      </trkpt>
      <trkpt lat="43.64953" lon="1.37912">
        <ele>132</ele>
        <time>2025-04-18T09:53:58Z</time>
      </trkpt>
      <trkpt lat="43.64955" lon="1.37916">
        <ele>132</ele>
        <time>2025-04-18T09:53:59Z</time>
      </trkpt>
      <trkpt lat="43.64955" lon="1.37919">
        <ele>132</ele>
        <time>2025-04-18T09:54:00Z</time>
      </trkpt>
      <trkpt lat="43.64955" lon="1.37919">
        <ele>132</ele>
        <time>2025-04-18T09:54:01Z</time>
      </trkpt>
      <trkpt lat="43.64957" lon="1.37925">
        <ele>132</ele>
        <time>2025-04-18T09:54:02Z</time>
      </trkpt>
      <trkpt lat="43.64959" lon="1.37928">
        <ele>132</ele>
        <time>2025-04-18T09:54:03Z</time>
      </trkpt>
      <trkpt lat="43.64961" lon="1.37931">
        <ele>132</ele>
        <time>2025-04-18T09:54:04Z</time>
      </trkpt>
      <trkpt lat="43.64961" lon="1.37931">
        <ele>132</ele>
        <time>2025-04-18T09:54:05Z</time>
      </trkpt>
      <trkpt lat="43.64964" lon="1.37936">
        <ele>132</ele>
        <time>2025-04-18T09:54:06Z</time>
      </trkpt>
      <trkpt lat="43.64966" lon="1.37939">
        <ele>132</ele>
        <time>2025-04-18T09:54:07Z</time>
      </trkpt>
      <trkpt lat="43.64966" lon="1.37939">
        <ele>132</ele>
        <time>2025-04-18T09:54:08Z</time>
      </trkpt>
      <trkpt lat="43.6497" lon="1.37945">
        <ele>132</ele>
        <time>2025-04-18T09:54:09Z</time>
      </trkpt>
      <trkpt lat="43.64972" lon="1.37947">
        <ele>132</ele>
        <time>2025-04-18T09:54:10Z</time>
      </trkpt>
      <trkpt lat="43.64973" lon="1.3795">
        <ele>132</ele>
        <time>2025-04-18T09:54:11Z</time>
      </trkpt>
      <trkpt lat="43.64975" lon="1.37952">
        <ele>133</ele>
        <time>2025-04-18T09:54:12Z</time>
      </trkpt>
      <trkpt lat="43.64977" lon="1.37954">
        <ele>133</ele>
        <time>2025-04-18T09:54:13Z</time>
      </trkpt>
      <trkpt lat="43.64979" lon="1.37956">
        <ele>133</ele>
        <time>2025-04-18T09:54:14Z</time>
      </trkpt>
      <trkpt lat="43.64981" lon="1.37959">
        <ele>133</ele>
        <time>2025-04-18T09:54:15Z</time>
      </trkpt>
      <trkpt lat="43.64983" lon="1.37961">
        <ele>133</ele>
        <time>2025-04-18T09:54:16Z</time>
      </trkpt>
      <trkpt lat="43.64985" lon="1.37964">
        <ele>133</ele>
        <time>2025-04-18T09:54:17Z</time>
      </trkpt>
      <trkpt lat="43.64987" lon="1.37966">
        <ele>133</ele>
        <time>2025-04-18T09:54:18Z</time>
      </trkpt>
      <trkpt lat="43.64989" lon="1.37969">
        <ele>133</ele>
        <time>2025-04-18T09:54:19Z</time>
      </trkpt>
      <trkpt lat="43.64989" lon="1.37969">
        <ele>133</ele>
        <time>2025-04-18T09:54:20Z</time>
      </trkpt>
      <trkpt lat="43.64992" lon="1.37974">
        <ele>133</ele>
        <time>2025-04-18T09:54:21Z</time>
      </trkpt>
      <trkpt lat="43.64994" lon="1.37977">
        <ele>133</ele>
        <time>2025-04-18T09:54:22Z</time>
      </trkpt>
      <trkpt lat="43.64996" lon="1.3798">
        <ele>133</ele>
        <time>2025-04-18T09:54:23Z</time>
      </trkpt>
      <trkpt lat="43.64997" lon="1.37983">
        <ele>133</ele>
        <time>2025-04-18T09:54:24Z</time>
      </trkpt>
      <trkpt lat="43.64999" lon="1.37985">
        <ele>133</ele>
        <time>2025-04-18T09:54:25Z</time>
      </trkpt>
      <trkpt lat="43.65" lon="1.37988">
        <ele>133</ele>
        <time>2025-04-18T09:54:26Z</time>
      </trkpt>
      <trkpt lat="43.65" lon="1.37988">
        <ele>133</ele>
        <time>2025-04-18T09:54:27Z</time>
      </trkpt>
      <trkpt lat="43.65003" lon="1.37993">
        <ele>133</ele>
        <time>2025-04-18T09:54:28Z</time>
      </trkpt>
      <trkpt lat="43.65004" lon="1.37996">
        <ele>133</ele>
        <time>2025-04-18T09:54:29Z</time>
      </trkpt>
      <trkpt lat="43.65006" lon="1.37999">
        <ele>133</ele>
        <time>2025-04-18T09:54:30Z</time>
      </trkpt>
      <trkpt lat="43.65008" lon="1.38003">
        <ele>134</ele>
        <time>2025-04-18T09:54:31Z</time>
      </trkpt>
      <trkpt lat="43.6501" lon="1.38006">
        <ele>134</ele>
        <time>2025-04-18T09:54:32Z</time>
      </trkpt>
      <trkpt lat="43.65012" lon="1.38008">
        <ele>133</ele>
        <time>2025-04-18T09:54:33Z</time>
      </trkpt>
      <trkpt lat="43.65014" lon="1.3801">
        <ele>134</ele>
        <time>2025-04-18T09:54:34Z</time>
      </trkpt>
      <trkpt lat="43.65015" lon="1.38013">
        <ele>134</ele>
        <time>2025-04-18T09:54:35Z</time>
      </trkpt>
      <trkpt lat="43.65017" lon="1.38016">
        <ele>134</ele>
        <time>2025-04-18T09:54:36Z</time>
      </trkpt>
      <trkpt lat="43.65017" lon="1.38016">
        <ele>134</ele>
        <time>2025-04-18T09:54:37Z</time>
      </trkpt>
      <trkpt lat="43.6502" lon="1.38021">
        <ele>134</ele>
        <time>2025-04-18T09:54:38Z</time>
      </trkpt>
      <trkpt lat="43.6502" lon="1.38021">
        <ele>134</ele>
        <time>2025-04-18T09:54:39Z</time>
      </trkpt>
      <trkpt lat="43.65023" lon="1.38026">
        <ele>134</ele>
        <time>2025-04-18T09:54:40Z</time>
      </trkpt>
      <trkpt lat="43.65023" lon="1.38026">
        <ele>135</ele>
        <time>2025-04-18T09:54:41Z</time>
      </trkpt>
      <trkpt lat="43.65027" lon="1.38033">
        <ele>135</ele>
        <time>2025-04-18T09:54:42Z</time>
      </trkpt>
      <trkpt lat="43.6503" lon="1.38035">
        <ele>135</ele>
        <time>2025-04-18T09:54:43Z</time>
      </trkpt>
      <trkpt lat="43.65031" lon="1.38038">
        <ele>135</ele>
        <time>2025-04-18T09:54:44Z</time>
      </trkpt>
      <trkpt lat="43.65033" lon="1.3804">
        <ele>135</ele>
        <time>2025-04-18T09:54:45Z</time>
      </trkpt>
      <trkpt lat="43.65033" lon="1.3804">
        <ele>135</ele>
        <time>2025-04-18T09:54:46Z</time>
      </trkpt>
      <trkpt lat="43.65036" lon="1.38046">
        <ele>135</ele>
        <time>2025-04-18T09:54:47Z</time>
      </trkpt>
      <trkpt lat="43.65037" lon="1.38049">
        <ele>135</ele>
        <time>2025-04-18T09:54:48Z</time>
      </trkpt>
      <trkpt lat="43.65038" lon="1.38052">
        <ele>135</ele>
        <time>2025-04-18T09:54:49Z</time>
      </trkpt>
      <trkpt lat="43.65038" lon="1.38052">
        <ele>136</ele>
        <time>2025-04-18T09:54:50Z</time>
      </trkpt>
      <trkpt lat="43.65041" lon="1.38058">
        <ele>136</ele>
        <time>2025-04-18T09:54:51Z</time>
      </trkpt>
      <trkpt lat="43.65041" lon="1.38058">
        <ele>136</ele>
        <time>2025-04-18T09:54:52Z</time>
      </trkpt>
      <trkpt lat="43.65043" lon="1.38065">
        <ele>136</ele>
        <time>2025-04-18T09:54:53Z</time>
      </trkpt>
      <trkpt lat="43.65044" lon="1.38068">
        <ele>136</ele>
        <time>2025-04-18T09:54:54Z</time>
      </trkpt>
      <trkpt lat="43.65044" lon="1.38068">
        <ele>136</ele>
        <time>2025-04-18T09:54:55Z</time>
      </trkpt>
      <trkpt lat="43.65047" lon="1.38075">
        <ele>136</ele>
        <time>2025-04-18T09:54:56Z</time>
      </trkpt>
      <trkpt lat="43.65048" lon="1.38078">
        <ele>136</ele>
        <time>2025-04-18T09:54:57Z</time>
      </trkpt>
      <trkpt lat="43.6505" lon="1.38081">
        <ele>136</ele>
        <time>2025-04-18T09:54:58Z</time>
      </trkpt>
      <trkpt lat="43.65051" lon="1.38085">
        <ele>136</ele>
        <time>2025-04-18T09:54:59Z</time>
      </trkpt>
      <trkpt lat="43.65052" lon="1.38088">
        <ele>136</ele>
        <time>2025-04-18T09:55:00Z</time>
      </trkpt>
      <trkpt lat="43.65054" lon="1.38091">
        <ele>136</ele>
        <time>2025-04-18T09:55:01Z</time>
      </trkpt>
      <trkpt lat="43.65054" lon="1.38091">
        <ele>136</ele>
        <time>2025-04-18T09:55:02Z</time>
      </trkpt>
      <trkpt lat="43.65057" lon="1.38097">
        <ele>136</ele>
        <time>2025-04-18T09:55:03Z</time>
      </trkpt>
      <trkpt lat="43.65058" lon="1.38101">
        <ele>137</ele>
        <time>2025-04-18T09:55:04Z</time>
      </trkpt>
      <trkpt lat="43.65058" lon="1.38101">
        <ele>137</ele>
        <time>2025-04-18T09:55:05Z</time>
      </trkpt>
      <trkpt lat="43.6506" lon="1.38106">
        <ele>137</ele>
        <time>2025-04-18T09:55:06Z</time>
      </trkpt>
      <trkpt lat="43.65061" lon="1.38109">
        <ele>137</ele>
        <time>2025-04-18T09:55:07Z</time>
      </trkpt>
      <trkpt lat="43.65062" lon="1.38112">
        <ele>137</ele>
        <time>2025-04-18T09:55:08Z</time>
      </trkpt>
      <trkpt lat="43.65062" lon="1.38112">
        <ele>137</ele>
        <time>2025-04-18T09:55:09Z</time>
      </trkpt>
      <trkpt lat="43.65064" lon="1.38117">
        <ele>138</ele>
        <time>2025-04-18T09:55:10Z</time>
      </trkpt>
      <trkpt lat="43.65064" lon="1.38117">
        <ele>139</ele>
        <time>2025-04-18T09:55:11Z</time>
      </trkpt>
      <trkpt lat="43.65066" lon="1.3812">
        <ele>139</ele>
        <time>2025-04-18T09:55:12Z</time>
      </trkpt>
      <trkpt lat="43.65068" lon="1.38122">
        <ele>139</ele>
        <time>2025-04-18T09:55:13Z</time>
      </trkpt>
      <trkpt lat="43.65068" lon="1.38122">
        <ele>139</ele>
        <time>2025-04-18T09:55:14Z</time>
      </trkpt>
      <trkpt lat="43.6507" lon="1.3812">
        <ele>139</ele>
        <time>2025-04-18T09:55:15Z</time>
      </trkpt>
      <trkpt lat="43.6507" lon="1.3812">
        <ele>139</ele>
        <time>2025-04-18T09:55:16Z</time>
      </trkpt>
      <trkpt lat="43.65074" lon="1.38117">
        <ele>139</ele>
        <time>2025-04-18T09:55:17Z</time>
      </trkpt>
      <trkpt lat="43.65075" lon="1.38116">
        <ele>139</ele>
        <time>2025-04-18T09:55:18Z</time>
      </trkpt>
      <trkpt lat="43.65077" lon="1.38114">
        <ele>140</ele>
        <time>2025-04-18T09:55:19Z</time>
      </trkpt>
      <trkpt lat="43.65077" lon="1.38114">
        <ele>140</ele>
        <time>2025-04-18T09:55:20Z</time>
      </trkpt>
      <trkpt lat="43.65081" lon="1.38111">
        <ele>140</ele>
        <time>2025-04-18T09:55:21Z</time>
      </trkpt>
      <trkpt lat="43.65084" lon="1.3811">
        <ele>141</ele>
        <time>2025-04-18T09:55:22Z</time>
      </trkpt>
      <trkpt lat="43.65086" lon="1.38109">
        <ele>141</ele>
        <time>2025-04-18T09:55:23Z</time>
      </trkpt>
      <trkpt lat="43.65088" lon="1.38107">
        <ele>141</ele>
        <time>2025-04-18T09:55:24Z</time>
      </trkpt>
      <trkpt lat="43.6509" lon="1.38106">
        <ele>141</ele>
        <time>2025-04-18T09:55:25Z</time>
      </trkpt>
      <trkpt lat="43.65092" lon="1.38104">
        <ele>141</ele>
        <time>2025-04-18T09:55:26Z</time>
      </trkpt>
      <trkpt lat="43.65095" lon="1.38102">
        <ele>141</ele>
        <time>2025-04-18T09:55:27Z</time>
      </trkpt>
      <trkpt lat="43.65097" lon="1.381">
        <ele>141</ele>
        <time>2025-04-18T09:55:28Z</time>
      </trkpt>
      <trkpt lat="43.651" lon="1.38098">
        <ele>141</ele>
        <time>2025-04-18T09:55:29Z</time>
      </trkpt>
      <trkpt lat="43.65102" lon="1.38096">
        <ele>141</ele>
        <time>2025-04-18T09:55:30Z</time>
      </trkpt>
      <trkpt lat="43.65102" lon="1.38096">
        <ele>141</ele>
        <time>2025-04-18T09:55:31Z</time>
      </trkpt>
      <trkpt lat="43.65106" lon="1.38094">
        <ele>141</ele>
        <time>2025-04-18T09:55:32Z</time>
      </trkpt>
      <trkpt lat="43.65106" lon="1.38094">
        <ele>142</ele>
        <time>2025-04-18T09:55:33Z</time>
      </trkpt>
      <trkpt lat="43.6511" lon="1.3809">
        <ele>142</ele>
        <time>2025-04-18T09:55:34Z</time>
      </trkpt>
      <trkpt lat="43.65112" lon="1.38089">
        <ele>142</ele>
        <time>2025-04-18T09:55:35Z</time>
      </trkpt>
      <trkpt lat="43.65112" lon="1.38089">
        <ele>142</ele>
        <time>2025-04-18T09:55:36Z</time>
      </trkpt>
      <trkpt lat="43.65117" lon="1.38086">
        <ele>142</ele>
        <time>2025-04-18T09:55:37Z</time>
      </trkpt>
      <trkpt lat="43.65119" lon="1.38084">
        <ele>142</ele>
        <time>2025-04-18T09:55:38Z</time>
      </trkpt>
      <trkpt lat="43.65119" lon="1.38084">
        <ele>142</ele>
        <time>2025-04-18T09:55:39Z</time>
      </trkpt>
      <trkpt lat="43.65124" lon="1.38082">
        <ele>142</ele>
        <time>2025-04-18T09:55:40Z</time>
      </trkpt>
      <trkpt lat="43.65127" lon="1.38081">
        <ele>142</ele>
        <time>2025-04-18T09:55:41Z</time>
      </trkpt>
      <trkpt lat="43.65129" lon="1.38079">
        <ele>142</ele>
        <time>2025-04-18T09:55:42Z</time>
      </trkpt>
      <trkpt lat="43.65132" lon="1.38077">
        <ele>142</ele>
        <time>2025-04-18T09:55:43Z</time>
      </trkpt>
      <trkpt lat="43.65132" lon="1.38077">
        <ele>142</ele>
        <time>2025-04-18T09:55:44Z</time>
      </trkpt>
      <trkpt lat="43.65137" lon="1.38073">
        <ele>143</ele>
        <time>2025-04-18T09:55:45Z</time>
      </trkpt>
      <trkpt lat="43.65139" lon="1.38071">
        <ele>143</ele>
        <time>2025-04-18T09:55:46Z</time>
      </trkpt>
      <trkpt lat="43.65142" lon="1.38069">
        <ele>143</ele>
        <time>2025-04-18T09:55:47Z</time>
      </trkpt>
      <trkpt lat="43.65144" lon="1.38068">
        <ele>143</ele>
        <time>2025-04-18T09:55:48Z</time>
      </trkpt>
      <trkpt lat="43.65146" lon="1.38066">
        <ele>143</ele>
        <time>2025-04-18T09:55:49Z</time>
      </trkpt>
      <trkpt lat="43.65149" lon="1.38065">
        <ele>143</ele>
        <time>2025-04-18T09:55:50Z</time>
      </trkpt>
      <trkpt lat="43.65151" lon="1.38063">
        <ele>143</ele>
        <time>2025-04-18T09:55:51Z</time>
      </trkpt>
      <trkpt lat="43.65153" lon="1.38061">
        <ele>143</ele>
        <time>2025-04-18T09:55:52Z</time>
      </trkpt>
      <trkpt lat="43.65153" lon="1.38061">
        <ele>143</ele>
        <time>2025-04-18T09:55:53Z</time>
      </trkpt>
      <trkpt lat="43.65158" lon="1.38058">
        <ele>143</ele>
        <time>2025-04-18T09:55:54Z</time>
      </trkpt>
      <trkpt lat="43.6516" lon="1.38057">
        <ele>144</ele>
        <time>2025-04-18T09:55:55Z</time>
      </trkpt>
      <trkpt lat="43.65162" lon="1.38055">
        <ele>144</ele>
        <time>2025-04-18T09:55:56Z</time>
      </trkpt>
      <trkpt lat="43.65164" lon="1.38054">
        <ele>144</ele>
        <time>2025-04-18T09:55:57Z</time>
      </trkpt>
      <trkpt lat="43.65167" lon="1.38052">
        <ele>144</ele>
        <time>2025-04-18T09:55:58Z</time>
      </trkpt>
      <trkpt lat="43.65169" lon="1.3805">
        <ele>144</ele>
        <time>2025-04-18T09:55:59Z</time>
      </trkpt>
      <trkpt lat="43.65171" lon="1.38049">
        <ele>144</ele>
        <time>2025-04-18T09:56:00Z</time>
      </trkpt>
      <trkpt lat="43.65173" lon="1.38047">
        <ele>144</ele>
        <time>2025-04-18T09:56:01Z</time>
      </trkpt>
      <trkpt lat="43.65175" lon="1.38046">
        <ele>144</ele>
        <time>2025-04-18T09:56:02Z</time>
      </trkpt>
      <trkpt lat="43.65177" lon="1.38044">
        <ele>144</ele>
        <time>2025-04-18T09:56:03Z</time>
      </trkpt>
      <trkpt lat="43.6518" lon="1.38044">
        <ele>144</ele>
        <time>2025-04-18T09:56:04Z</time>
      </trkpt>
      <trkpt lat="43.65183" lon="1.38044">
        <ele>144</ele>
        <time>2025-04-18T09:56:05Z</time>
      </trkpt>
      <trkpt lat="43.65186" lon="1.38046">
        <ele>144</ele>
        <time>2025-04-18T09:56:06Z</time>
      </trkpt>
      <trkpt lat="43.65188" lon="1.38046">
        <ele>144</ele>
        <time>2025-04-18T09:56:07Z</time>
      </trkpt>
      <trkpt lat="43.6519" lon="1.38044">
        <ele>144</ele>
        <time>2025-04-18T09:56:08Z</time>
      </trkpt>
      <trkpt lat="43.65192" lon="1.38043">
        <ele>144</ele>
        <time>2025-04-18T09:56:09Z</time>
      </trkpt>
      <trkpt lat="43.65192" lon="1.38043">
        <ele>144</ele>
        <time>2025-04-18T09:56:10Z</time>
      </trkpt>
      <trkpt lat="43.65196" lon="1.3804">
        <ele>144</ele>
        <time>2025-04-18T09:56:11Z</time>
      </trkpt>
      <trkpt lat="43.65198" lon="1.38038">
        <ele>144</ele>
        <time>2025-04-18T09:56:12Z</time>
      </trkpt>
      <trkpt lat="43.652" lon="1.38036">
        <ele>144</ele>
        <time>2025-04-18T09:56:13Z</time>
      </trkpt>
      <trkpt lat="43.65202" lon="1.38035">
        <ele>144</ele>
        <time>2025-04-18T09:56:14Z</time>
      </trkpt>
      <trkpt lat="43.65202" lon="1.38035">
        <ele>144</ele>
        <time>2025-04-18T09:56:15Z</time>
      </trkpt>
      <trkpt lat="43.65207" lon="1.38032">
        <ele>145</ele>
        <time>2025-04-18T09:56:16Z</time>
      </trkpt>
      <trkpt lat="43.65207" lon="1.38032">
        <ele>145</ele>
        <time>2025-04-18T09:56:17Z</time>
      </trkpt>
      <trkpt lat="43.6521" lon="1.38031">
        <ele>145</ele>
        <time>2025-04-18T09:56:18Z</time>
      </trkpt>
      <trkpt lat="43.65213" lon="1.38031">
        <ele>145</ele>
        <time>2025-04-18T09:56:19Z</time>
      </trkpt>
      <trkpt lat="43.65215" lon="1.38033">
        <ele>145</ele>
        <time>2025-04-18T09:56:20Z</time>
      </trkpt>
      <trkpt lat="43.65217" lon="1.38036">
        <ele>145</ele>
        <time>2025-04-18T09:56:21Z</time>
      </trkpt>
      <trkpt lat="43.65219" lon="1.38038">
        <ele>145</ele>
        <time>2025-04-18T09:56:22Z</time>
      </trkpt>
      <trkpt lat="43.65221" lon="1.38041">
        <ele>146</ele>
        <time>2025-04-18T09:56:23Z</time>
      </trkpt>
      <trkpt lat="43.65222" lon="1.38044">
        <ele>146</ele>
        <time>2025-04-18T09:56:24Z</time>
      </trkpt>
      <trkpt lat="43.65224" lon="1.38047">
        <ele>146</ele>
        <time>2025-04-18T09:56:25Z</time>
      </trkpt>
      <trkpt lat="43.65225" lon="1.38051">
        <ele>146</ele>
        <time>2025-04-18T09:56:26Z</time>
      </trkpt>
      <trkpt lat="43.65226" lon="1.38054">
        <ele>146</ele>
        <time>2025-04-18T09:56:27Z</time>
      </trkpt>
      <trkpt lat="43.65228" lon="1.38058">
        <ele>146</ele>
        <time>2025-04-18T09:56:28Z</time>
      </trkpt>
      <trkpt lat="43.65228" lon="1.38058">
        <ele>146</ele>
        <time>2025-04-18T09:56:29Z</time>
      </trkpt>
      <trkpt lat="43.6523" lon="1.38064">
        <ele>146</ele>
        <time>2025-04-18T09:56:30Z</time>
      </trkpt>
      <trkpt lat="43.65231" lon="1.38068">
        <ele>146</ele>
        <time>2025-04-18T09:56:31Z</time>
      </trkpt>
      <trkpt lat="43.65232" lon="1.38071">
        <ele>146</ele>
        <time>2025-04-18T09:56:32Z</time>
      </trkpt>
      <trkpt lat="43.65233" lon="1.38074">
        <ele>146</ele>
        <time>2025-04-18T09:56:33Z</time>
      </trkpt>
      <trkpt lat="43.65234" lon="1.38078">
        <ele>146</ele>
        <time>2025-04-18T09:56:34Z</time>
      </trkpt>
      <trkpt lat="43.65236" lon="1.38081">
        <ele>146</ele>
        <time>2025-04-18T09:56:35Z</time>
      </trkpt>
      <trkpt lat="43.65237" lon="1.38085">
        <ele>146</ele>
        <time>2025-04-18T09:56:36Z</time>
      </trkpt>
      <trkpt lat="43.65239" lon="1.38092">
        <ele>146</ele>
        <time>2025-04-18T09:56:38Z</time>
      </trkpt>
      <trkpt lat="43.6524" lon="1.38095">
        <ele>146</ele>
        <time>2025-04-18T09:56:39Z</time>
      </trkpt>
      <trkpt lat="43.65242" lon="1.38099">
        <ele>146</ele>
        <time>2025-04-18T09:56:40Z</time>
      </trkpt>
      <trkpt lat="43.65242" lon="1.38099">
        <ele>146</ele>
        <time>2025-04-18T09:56:41Z</time>
      </trkpt>
      <trkpt lat="43.65243" lon="1.38105">
        <ele>146</ele>
        <time>2025-04-18T09:56:42Z</time>
      </trkpt>
      <trkpt lat="43.65245" lon="1.38109">
        <ele>146</ele>
        <time>2025-04-18T09:56:43Z</time>
      </trkpt>
      <trkpt lat="43.65246" lon="1.38112">
        <ele>147</ele>
        <time>2025-04-18T09:56:44Z</time>
      </trkpt>
      <trkpt lat="43.65246" lon="1.38116">
        <ele>147</ele>
        <time>2025-04-18T09:56:45Z</time>
      </trkpt>
      <trkpt lat="43.65246" lon="1.38116">
        <ele>147</ele>
        <time>2025-04-18T09:56:46Z</time>
      </trkpt>
      <trkpt lat="43.65248" lon="1.38123">
        <ele>146</ele>
        <time>2025-04-18T09:56:47Z</time>
      </trkpt>
      <trkpt lat="43.65248" lon="1.38123">
        <ele>146</ele>
        <time>2025-04-18T09:56:48Z</time>
      </trkpt>
      <trkpt lat="43.65249" lon="1.3813">
        <ele>146</ele>
        <time>2025-04-18T09:56:49Z</time>
      </trkpt>
      <trkpt lat="43.65249" lon="1.3813">
        <ele>147</ele>
        <time>2025-04-18T09:56:50Z</time>
      </trkpt>
      <trkpt lat="43.65246" lon="1.38136">
        <ele>147</ele>
        <time>2025-04-18T09:56:51Z</time>
      </trkpt>
      <trkpt lat="43.65243" lon="1.38138">
        <ele>147</ele>
        <time>2025-04-18T09:56:52Z</time>
      </trkpt>
      <trkpt lat="43.65243" lon="1.38138">
        <ele>147</ele>
        <time>2025-04-18T09:56:53Z</time>
      </trkpt>
      <trkpt lat="43.65238" lon="1.38142">
        <ele>146</ele>
        <time>2025-04-18T09:56:54Z</time>
      </trkpt>
      <trkpt lat="43.65238" lon="1.38142">
        <ele>146</ele>
        <time>2025-04-18T09:56:55Z</time>
      </trkpt>
      <trkpt lat="43.65232" lon="1.38145">
        <ele>145</ele>
        <time>2025-04-18T09:56:56Z</time>
      </trkpt>
      <trkpt lat="43.65232" lon="1.38145">
        <ele>145</ele>
        <time>2025-04-18T09:56:57Z</time>
      </trkpt>
      <trkpt lat="43.65226" lon="1.38148">
        <ele>145</ele>
        <time>2025-04-18T09:56:58Z</time>
      </trkpt>
      <trkpt lat="43.65224" lon="1.3815">
        <ele>146</ele>
        <time>2025-04-18T09:56:59Z</time>
      </trkpt>
      <trkpt lat="43.65221" lon="1.38152">
        <ele>146</ele>
        <time>2025-04-18T09:57:00Z</time>
      </trkpt>
      <trkpt lat="43.65219" lon="1.38154">
        <ele>146</ele>
        <time>2025-04-18T09:57:01Z</time>
      </trkpt>
      <trkpt lat="43.65216" lon="1.38156">
        <ele>146</ele>
        <time>2025-04-18T09:57:02Z</time>
      </trkpt>
      <trkpt lat="43.65213" lon="1.38157">
        <ele>146</ele>
        <time>2025-04-18T09:57:03Z</time>
      </trkpt>
      <trkpt lat="43.65211" lon="1.38158">
        <ele>146</ele>
        <time>2025-04-18T09:57:04Z</time>
      </trkpt>
      <trkpt lat="43.65209" lon="1.38159">
        <ele>146</ele>
        <time>2025-04-18T09:57:05Z</time>
      </trkpt>
      <trkpt lat="43.65206" lon="1.38161">
        <ele>146</ele>
        <time>2025-04-18T09:57:06Z</time>
      </trkpt>
      <trkpt lat="43.65205" lon="1.38163">
        <ele>146</ele>
        <time>2025-04-18T09:57:07Z</time>
      </trkpt>
      <trkpt lat="43.65205" lon="1.38163">
        <ele>146</ele>
        <time>2025-04-18T09:57:08Z</time>
      </trkpt>
      <trkpt lat="43.652" lon="1.38168">
        <ele>146</ele>
        <time>2025-04-18T09:57:09Z</time>
      </trkpt>
      <trkpt lat="43.652" lon="1.38168">
        <ele>146</ele>
        <time>2025-04-18T09:57:10Z</time>
      </trkpt>
      <trkpt lat="43.65196" lon="1.38173">
        <ele>147</ele>
        <time>2025-04-18T09:57:11Z</time>
      </trkpt>
      <trkpt lat="43.65196" lon="1.38173">
        <ele>147</ele>
        <time>2025-04-18T09:57:12Z</time>
      </trkpt>
      <trkpt lat="43.65192" lon="1.38177">
        <ele>147</ele>
        <time>2025-04-18T09:57:13Z</time>
      </trkpt>
      <trkpt lat="43.65189" lon="1.3818">
        <ele>147</ele>
        <time>2025-04-18T09:57:14Z</time>
      </trkpt>
      <trkpt lat="43.65187" lon="1.38182">
        <ele>147</ele>
        <time>2025-04-18T09:57:15Z</time>
      </trkpt>
      <trkpt lat="43.65184" lon="1.38184">
        <ele>147</ele>
        <time>2025-04-18T09:57:16Z</time>
      </trkpt>
      <trkpt lat="43.65182" lon="1.38186">
        <ele>146</ele>
        <time>2025-04-18T09:57:17Z</time>
      </trkpt>
      <trkpt lat="43.6518" lon="1.38189">
        <ele>146</ele>
        <time>2025-04-18T09:57:18Z</time>
      </trkpt>
      <trkpt lat="43.65177" lon="1.38191">
        <ele>146</ele>
        <time>2025-04-18T09:57:19Z</time>
      </trkpt>
      <trkpt lat="43.65175" lon="1.38194">
        <ele>146</ele>
        <time>2025-04-18T09:57:20Z</time>
      </trkpt>
      <trkpt lat="43.65172" lon="1.38196">
        <ele>146</ele>
        <time>2025-04-18T09:57:21Z</time>
      </trkpt>
      <trkpt lat="43.65172" lon="1.38196">
        <ele>146</ele>
        <time>2025-04-18T09:57:22Z</time>
      </trkpt>
      <trkpt lat="43.65168" lon="1.38201">
        <ele>146</ele>
        <time>2025-04-18T09:57:23Z</time>
      </trkpt>
      <trkpt lat="43.65167" lon="1.38204">
        <ele>146</ele>
        <time>2025-04-18T09:57:24Z</time>
      </trkpt>
      <trkpt lat="43.65166" lon="1.38208">
        <ele>146</ele>
        <time>2025-04-18T09:57:25Z</time>
      </trkpt>
      <trkpt lat="43.65166" lon="1.38211">
        <ele>146</ele>
        <time>2025-04-18T09:57:26Z</time>
      </trkpt>
      <trkpt lat="43.65166" lon="1.38215">
        <ele>146</ele>
        <time>2025-04-18T09:57:27Z</time>
      </trkpt>
      <trkpt lat="43.65166" lon="1.38218">
        <ele>146</ele>
        <time>2025-04-18T09:57:28Z</time>
      </trkpt>
      <trkpt lat="43.65167" lon="1.38222">
        <ele>146</ele>
        <time>2025-04-18T09:57:29Z</time>
      </trkpt>
      <trkpt lat="43.65167" lon="1.38225">
        <ele>146</ele>
        <time>2025-04-18T09:57:30Z</time>
      </trkpt>
      <trkpt lat="43.65168" lon="1.38229">
        <ele>146</ele>
        <time>2025-04-18T09:57:31Z</time>
      </trkpt>
      <trkpt lat="43.65168" lon="1.38229">
        <ele>146</ele>
        <time>2025-04-18T09:57:32Z</time>
      </trkpt>
      <trkpt lat="43.6517" lon="1.38236">
        <ele>146</ele>
        <time>2025-04-18T09:57:33Z</time>
      </trkpt>
      <trkpt lat="43.6517" lon="1.38236">
        <ele>146</ele>
        <time>2025-04-18T09:57:34Z</time>
      </trkpt>
      <trkpt lat="43.65171" lon="1.38244">
        <ele>145</ele>
        <time>2025-04-18T09:57:35Z</time>
      </trkpt>
      <trkpt lat="43.65172" lon="1.38247">
        <ele>145</ele>
        <time>2025-04-18T09:57:36Z</time>
      </trkpt>
      <trkpt lat="43.65173" lon="1.38251">
        <ele>145</ele>
        <time>2025-04-18T09:57:37Z</time>
      </trkpt>
      <trkpt lat="43.65174" lon="1.38255">
        <ele>145</ele>
        <time>2025-04-18T09:57:38Z</time>
      </trkpt>
      <trkpt lat="43.65175" lon="1.38258">
        <ele>145</ele>
        <time>2025-04-18T09:57:39Z</time>
      </trkpt>
      <trkpt lat="43.65176" lon="1.38262">
        <ele>145</ele>
        <time>2025-04-18T09:57:40Z</time>
      </trkpt>
      <trkpt lat="43.65176" lon="1.38262">
        <ele>145</ele>
        <time>2025-04-18T09:57:41Z</time>
      </trkpt>
      <trkpt lat="43.65177" lon="1.3827">
        <ele>145</ele>
        <time>2025-04-18T09:57:42Z</time>
      </trkpt>
      <trkpt lat="43.65177" lon="1.38273">
        <ele>145</ele>
        <time>2025-04-18T09:57:43Z</time>
      </trkpt>
      <trkpt lat="43.65178" lon="1.38277">
        <ele>145</ele>
        <time>2025-04-18T09:57:44Z</time>
      </trkpt>
      <trkpt lat="43.65179" lon="1.38281">
        <ele>145</ele>
        <time>2025-04-18T09:57:45Z</time>
      </trkpt>
      <trkpt lat="43.6518" lon="1.38284">
        <ele>145</ele>
        <time>2025-04-18T09:57:46Z</time>
      </trkpt>
      <trkpt lat="43.65181" lon="1.38288">
        <ele>145</ele>
        <time>2025-04-18T09:57:47Z</time>
      </trkpt>
      <trkpt lat="43.65182" lon="1.38291">
        <ele>145</ele>
        <time>2025-04-18T09:57:48Z</time>
      </trkpt>
      <trkpt lat="43.65183" lon="1.38295">
        <ele>145</ele>
        <time>2025-04-18T09:57:49Z</time>
      </trkpt>
      <trkpt lat="43.65183" lon="1.38298">
        <ele>145</ele>
        <time>2025-04-18T09:57:50Z</time>
      </trkpt>
      <trkpt lat="43.65184" lon="1.38302">
        <ele>145</ele>
        <time>2025-04-18T09:57:51Z</time>
      </trkpt>
      <trkpt lat="43.65185" lon="1.38305">
        <ele>145</ele>
        <time>2025-04-18T09:57:52Z</time>
      </trkpt>
      <trkpt lat="43.65186" lon="1.38309">
        <ele>145</ele>
        <time>2025-04-18T09:57:53Z</time>
      </trkpt>
      <trkpt lat="43.65186" lon="1.38313">
        <ele>145</ele>
        <time>2025-04-18T09:57:54Z</time>
      </trkpt>
      <trkpt lat="43.65186" lon="1.38313">
        <ele>145</ele>
        <time>2025-04-18T09:57:55Z</time>
      </trkpt>
      <trkpt lat="43.65187" lon="1.3832">
        <ele>145</ele>
        <time>2025-04-18T09:57:56Z</time>
      </trkpt>
      <trkpt lat="43.65187" lon="1.3832">
        <ele>145</ele>
        <time>2025-04-18T09:57:57Z</time>
      </trkpt>
      <trkpt lat="43.65188" lon="1.38323">
        <ele>145</ele>
        <time>2025-04-18T09:57:58Z</time>
      </trkpt>
      <trkpt lat="43.65189" lon="1.3833">
        <ele>145</ele>
        <time>2025-04-18T09:57:59Z</time>
      </trkpt>
      <trkpt lat="43.6519" lon="1.38334">
        <ele>145</ele>
        <time>2025-04-18T09:58:00Z</time>
      </trkpt>
      <trkpt lat="43.6519" lon="1.38337">
        <ele>145</ele>
        <time>2025-04-18T09:58:01Z</time>
      </trkpt>
      <trkpt lat="43.65191" lon="1.38341">
        <ele>145</ele>
        <time>2025-04-18T09:58:02Z</time>
      </trkpt>
      <trkpt lat="43.65191" lon="1.38344">
        <ele>145</ele>
        <time>2025-04-18T09:58:03Z</time>
      </trkpt>
      <trkpt lat="43.65192" lon="1.38348">
        <ele>145</ele>
        <time>2025-04-18T09:58:04Z</time>
      </trkpt>
      <trkpt lat="43.65192" lon="1.38348">
        <ele>146</ele>
        <time>2025-04-18T09:58:05Z</time>
      </trkpt>
      <trkpt lat="43.65192" lon="1.38356">
        <ele>146</ele>
        <time>2025-04-18T09:58:06Z</time>
      </trkpt>
      <trkpt lat="43.65192" lon="1.38356">
        <ele>146</ele>
        <time>2025-04-18T09:58:07Z</time>
      </trkpt>
      <trkpt lat="43.65194" lon="1.38363">
        <ele>146</ele>
        <time>2025-04-18T09:58:08Z</time>
      </trkpt>
      <trkpt lat="43.65194" lon="1.38367">
        <ele>146</ele>
        <time>2025-04-18T09:58:09Z</time>
      </trkpt>
      <trkpt lat="43.65194" lon="1.3837">
        <ele>146</ele>
        <time>2025-04-18T09:58:10Z</time>
      </trkpt>
      <trkpt lat="43.65194" lon="1.3837">
        <ele>146</ele>
        <time>2025-04-18T09:58:11Z</time>
      </trkpt>
      <trkpt lat="43.65195" lon="1.38378">
        <ele>146</ele>
        <time>2025-04-18T09:58:12Z</time>
      </trkpt>
      <trkpt lat="43.65195" lon="1.38378">
        <ele>146</ele>
        <time>2025-04-18T09:58:13Z</time>
      </trkpt>
      <trkpt lat="43.65196" lon="1.38386">
        <ele>146</ele>
        <time>2025-04-18T09:58:14Z</time>
      </trkpt>
      <trkpt lat="43.65197" lon="1.3839">
        <ele>146</ele>
        <time>2025-04-18T09:58:15Z</time>
      </trkpt>
      <trkpt lat="43.65197" lon="1.3839">
        <ele>146</ele>
        <time>2025-04-18T09:58:16Z</time>
      </trkpt>
      <trkpt lat="43.65199" lon="1.38397">
        <ele>146</ele>
        <time>2025-04-18T09:58:17Z</time>
      </trkpt>
      <trkpt lat="43.65201" lon="1.384">
        <ele>146</ele>
        <time>2025-04-18T09:58:18Z</time>
      </trkpt>
      <trkpt lat="43.65202" lon="1.38403">
        <ele>146</ele>
        <time>2025-04-18T09:58:19Z</time>
      </trkpt>
      <trkpt lat="43.65204" lon="1.38406">
        <ele>145</ele>
        <time>2025-04-18T09:58:20Z</time>
      </trkpt>
      <trkpt lat="43.65205" lon="1.38409">
        <ele>145</ele>
        <time>2025-04-18T09:58:21Z</time>
      </trkpt>
      <trkpt lat="43.65207" lon="1.38412">
        <ele>144</ele>
        <time>2025-04-18T09:58:22Z</time>
      </trkpt>
      <trkpt lat="43.65208" lon="1.38415">
        <ele>144</ele>
        <time>2025-04-18T09:58:23Z</time>
      </trkpt>
      <trkpt lat="43.6521" lon="1.38418">
        <ele>144</ele>
        <time>2025-04-18T09:58:24Z</time>
      </trkpt>
      <trkpt lat="43.6521" lon="1.38418">
        <ele>144</ele>
        <time>2025-04-18T09:58:25Z</time>
      </trkpt>
      <trkpt lat="43.65213" lon="1.38424">
        <ele>144</ele>
        <time>2025-04-18T09:58:26Z</time>
      </trkpt>
      <trkpt lat="43.65214" lon="1.38427">
        <ele>144</ele>
        <time>2025-04-18T09:58:27Z</time>
      </trkpt>
      <trkpt lat="43.65215" lon="1.3843">
        <ele>144</ele>
        <time>2025-04-18T09:58:28Z</time>
      </trkpt>
      <trkpt lat="43.65216" lon="1.38433">
        <ele>144</ele>
        <time>2025-04-18T09:58:29Z</time>
      </trkpt>
      <trkpt lat="43.65218" lon="1.38436">
        <ele>144</ele>
        <time>2025-04-18T09:58:30Z</time>
      </trkpt>
      <trkpt lat="43.65219" lon="1.38439">
        <ele>144</ele>
        <time>2025-04-18T09:58:31Z</time>
      </trkpt>
      <trkpt lat="43.6522" lon="1.38441">
        <ele>143</ele>
        <time>2025-04-18T09:58:32Z</time>
      </trkpt>
      <trkpt lat="43.65221" lon="1.38444">
        <ele>143</ele>
        <time>2025-04-18T09:58:33Z</time>
      </trkpt>
      <trkpt lat="43.65222" lon="1.38447">
        <ele>143</ele>
        <time>2025-04-18T09:58:34Z</time>
      </trkpt>
      <trkpt lat="43.65223" lon="1.38449">
        <ele>143</ele>
        <time>2025-04-18T09:58:35Z</time>
      </trkpt>
      <trkpt lat="43.65224" lon="1.38452">
        <ele>143</ele>
        <time>2025-04-18T09:58:36Z</time>
      </trkpt>
      <trkpt lat="43.65224" lon="1.38452">
        <ele>143</ele>
        <time>2025-04-18T09:58:37Z</time>
      </trkpt>
      <trkpt lat="43.65226" lon="1.38457">
        <ele>142</ele>
        <time>2025-04-18T09:58:38Z</time>
      </trkpt>
      <trkpt lat="43.65227" lon="1.3846">
        <ele>142</ele>
        <time>2025-04-18T09:58:39Z</time>
      </trkpt>
      <trkpt lat="43.65228" lon="1.38464">
        <ele>142</ele>
        <time>2025-04-18T09:58:40Z</time>
      </trkpt>
      <trkpt lat="43.65229" lon="1.38467">
        <ele>142</ele>
        <time>2025-04-18T09:58:41Z</time>
      </trkpt>
      <trkpt lat="43.65229" lon="1.38467">
        <ele>142</ele>
        <time>2025-04-18T09:58:42Z</time>
      </trkpt>
      <trkpt lat="43.6523" lon="1.38473">
        <ele>142</ele>
        <time>2025-04-18T09:58:43Z</time>
      </trkpt>
      <trkpt lat="43.6523" lon="1.38476">
        <ele>142</ele>
        <time>2025-04-18T09:58:44Z</time>
      </trkpt>
      <trkpt lat="43.65231" lon="1.3848">
        <ele>142</ele>
        <time>2025-04-18T09:58:45Z</time>
      </trkpt>
      <trkpt lat="43.65232" lon="1.38483">
        <ele>142</ele>
        <time>2025-04-18T09:58:46Z</time>
      </trkpt>
      <trkpt lat="43.65232" lon="1.38483">
        <ele>142</ele>
        <time>2025-04-18T09:58:47Z</time>
      </trkpt>
      <trkpt lat="43.65233" lon="1.3849">
        <ele>142</ele>
        <time>2025-04-18T09:58:48Z</time>
      </trkpt>
      <trkpt lat="43.65234" lon="1.38494">
        <ele>142</ele>
        <time>2025-04-18T09:58:49Z</time>
      </trkpt>
      <trkpt lat="43.65236" lon="1.38498">
        <ele>142</ele>
        <time>2025-04-18T09:58:50Z</time>
      </trkpt>
      <trkpt lat="43.65236" lon="1.38498">
        <ele>142</ele>
        <time>2025-04-18T09:58:51Z</time>
      </trkpt>
      <trkpt lat="43.65237" lon="1.38504">
        <ele>142</ele>
        <time>2025-04-18T09:58:52Z</time>
      </trkpt>
      <trkpt lat="43.65238" lon="1.38507">
        <ele>142</ele>
        <time>2025-04-18T09:58:53Z</time>
      </trkpt>
      <trkpt lat="43.65238" lon="1.38507">
        <ele>142</ele>
        <time>2025-04-18T09:58:54Z</time>
      </trkpt>
      <trkpt lat="43.6524" lon="1.38514">
        <ele>142</ele>
        <time>2025-04-18T09:58:55Z</time>
      </trkpt>
      <trkpt lat="43.6524" lon="1.38514">
        <ele>142</ele>
        <time>2025-04-18T09:58:56Z</time>
      </trkpt>
      <trkpt lat="43.65242" lon="1.38521">
        <ele>142</ele>
        <time>2025-04-18T09:58:57Z</time>
      </trkpt>
      <trkpt lat="43.65243" lon="1.38525">
        <ele>142</ele>
        <time>2025-04-18T09:58:58Z</time>
      </trkpt>
      <trkpt lat="43.65243" lon="1.38525">
        <ele>142</ele>
        <time>2025-04-18T09:58:59Z</time>
      </trkpt>
      <trkpt lat="43.65245" lon="1.38532">
        <ele>142</ele>
        <time>2025-04-18T09:59:00Z</time>
      </trkpt>
      <trkpt lat="43.65246" lon="1.38536">
        <ele>142</ele>
        <time>2025-04-18T09:59:01Z</time>
      </trkpt>
      <trkpt lat="43.65247" lon="1.3854">
        <ele>142</ele>
        <time>2025-04-18T09:59:02Z</time>
      </trkpt>
      <trkpt lat="43.65249" lon="1.38544">
        <ele>142</ele>
        <time>2025-04-18T09:59:03Z</time>
      </trkpt>
      <trkpt lat="43.6525" lon="1.38547">
        <ele>142</ele>
        <time>2025-04-18T09:59:04Z</time>
      </trkpt>
      <trkpt lat="43.65251" lon="1.38551">
        <ele>142</ele>
        <time>2025-04-18T09:59:05Z</time>
      </trkpt>
      <trkpt lat="43.65252" lon="1.38554">
        <ele>142</ele>
        <time>2025-04-18T09:59:06Z</time>
      </trkpt>
      <trkpt lat="43.65253" lon="1.38557">
        <ele>142</ele>
        <time>2025-04-18T09:59:07Z</time>
      </trkpt>
      <trkpt lat="43.65254" lon="1.38561">
        <ele>142</ele>
        <time>2025-04-18T09:59:08Z</time>
      </trkpt>
      <trkpt lat="43.65254" lon="1.38561">
        <ele>142</ele>
        <time>2025-04-18T09:59:09Z</time>
      </trkpt>
      <trkpt lat="43.65256" lon="1.38568">
        <ele>142</ele>
        <time>2025-04-18T09:59:10Z</time>
      </trkpt>
      <trkpt lat="43.65257" lon="1.38571">
        <ele>141</ele>
        <time>2025-04-18T09:59:11Z</time>
      </trkpt>
      <trkpt lat="43.65259" lon="1.38574">
        <ele>141</ele>
        <time>2025-04-18T09:59:12Z</time>
      </trkpt>
      <trkpt lat="43.6526" lon="1.38578">
        <ele>141</ele>
        <time>2025-04-18T09:59:13Z</time>
      </trkpt>
      <trkpt lat="43.65261" lon="1.38582">
        <ele>141</ele>
        <time>2025-04-18T09:59:14Z</time>
      </trkpt>
      <trkpt lat="43.65262" lon="1.38586">
        <ele>141</ele>
        <time>2025-04-18T09:59:15Z</time>
      </trkpt>
      <trkpt lat="43.65264" lon="1.38589">
        <ele>141</ele>
        <time>2025-04-18T09:59:16Z</time>
      </trkpt>
      <trkpt lat="43.65265" lon="1.38592">
        <ele>141</ele>
        <time>2025-04-18T09:59:17Z</time>
      </trkpt>
      <trkpt lat="43.65265" lon="1.38592">
        <ele>141</ele>
        <time>2025-04-18T09:59:18Z</time>
      </trkpt>
      <trkpt lat="43.65266" lon="1.38597">
        <ele>141</ele>
        <time>2025-04-18T09:59:19Z</time>
      </trkpt>
      <trkpt lat="43.65266" lon="1.38597">
        <ele>141</ele>
        <time>2025-04-18T09:59:20Z</time>
      </trkpt>
      <trkpt lat="43.65269" lon="1.38602">
        <ele>141</ele>
        <time>2025-04-18T09:59:21Z</time>
      </trkpt>
      <trkpt lat="43.65269" lon="1.38602">
        <ele>141</ele>
        <time>2025-04-18T09:59:22Z</time>
      </trkpt>
      <trkpt lat="43.65271" lon="1.38606">
        <ele>141</ele>
        <time>2025-04-18T09:59:23Z</time>
      </trkpt>
      <trkpt lat="43.65272" lon="1.38609">
        <ele>141</ele>
        <time>2025-04-18T09:59:24Z</time>
      </trkpt>
      <trkpt lat="43.65274" lon="1.38611">
        <ele>141</ele>
        <time>2025-04-18T09:59:25Z</time>
      </trkpt>
      <trkpt lat="43.65276" lon="1.38614">
        <ele>141</ele>
        <time>2025-04-18T09:59:26Z</time>
      </trkpt>
      <trkpt lat="43.65276" lon="1.38614">
        <ele>141</ele>
        <time>2025-04-18T09:59:27Z</time>
      </trkpt>
      <trkpt lat="43.6528" lon="1.38619">
        <ele>141</ele>
        <time>2025-04-18T09:59:28Z</time>
      </trkpt>
      <trkpt lat="43.65282" lon="1.38622">
        <ele>141</ele>
        <time>2025-04-18T09:59:29Z</time>
      </trkpt>
      <trkpt lat="43.65285" lon="1.38626">
        <ele>141</ele>
        <time>2025-04-18T09:59:30Z</time>
      </trkpt>
      <trkpt lat="43.65287" lon="1.38629">
        <ele>141</ele>
        <time>2025-04-18T09:59:31Z</time>
      </trkpt>
      <trkpt lat="43.65289" lon="1.38633">
        <ele>141</ele>
        <time>2025-04-18T09:59:32Z</time>
      </trkpt>
      <trkpt lat="43.65291" lon="1.38636">
        <ele>141</ele>
        <time>2025-04-18T09:59:33Z</time>
      </trkpt>
      <trkpt lat="43.65293" lon="1.3864">
        <ele>141</ele>
        <time>2025-04-18T09:59:34Z</time>
      </trkpt>
      <trkpt lat="43.65295" lon="1.38643">
        <ele>141</ele>
        <time>2025-04-18T09:59:35Z</time>
      </trkpt>
      <trkpt lat="43.65296" lon="1.38646">
        <ele>141</ele>
        <time>2025-04-18T09:59:36Z</time>
      </trkpt>
      <trkpt lat="43.65297" lon="1.38651">
        <ele>141</ele>
        <time>2025-04-18T09:59:37Z</time>
      </trkpt>
      <trkpt lat="43.65298" lon="1.38655">
        <ele>141</ele>
        <time>2025-04-18T09:59:38Z</time>
      </trkpt>
      <trkpt lat="43.65299" lon="1.38659">
        <ele>141</ele>
        <time>2025-04-18T09:59:39Z</time>
      </trkpt>
      <trkpt lat="43.653" lon="1.38662">
        <ele>142</ele>
        <time>2025-04-18T09:59:40Z</time>
      </trkpt>
      <trkpt lat="43.65301" lon="1.38666">
        <ele>142</ele>
        <time>2025-04-18T09:59:41Z</time>
      </trkpt>
      <trkpt lat="43.65302" lon="1.3867">
        <ele>141</ele>
        <time>2025-04-18T09:59:42Z</time>
      </trkpt>
      <trkpt lat="43.65303" lon="1.38673">
        <ele>141</ele>
        <time>2025-04-18T09:59:43Z</time>
      </trkpt>
      <trkpt lat="43.65305" lon="1.38677">
        <ele>141</ele>
        <time>2025-04-18T09:59:44Z</time>
      </trkpt>
      <trkpt lat="43.65305" lon="1.38677">
        <ele>141</ele>
        <time>2025-04-18T09:59:45Z</time>
      </trkpt>
      <trkpt lat="43.65307" lon="1.38684">
        <ele>141</ele>
        <time>2025-04-18T09:59:46Z</time>
      </trkpt>
      <trkpt lat="43.65307" lon="1.38684">
        <ele>141</ele>
        <time>2025-04-18T09:59:47Z</time>
      </trkpt>
      <trkpt lat="43.65308" lon="1.3869">
        <ele>141</ele>
        <time>2025-04-18T09:59:48Z</time>
      </trkpt>
      <trkpt lat="43.65309" lon="1.38693">
        <ele>141</ele>
        <time>2025-04-18T09:59:49Z</time>
      </trkpt>
      <trkpt lat="43.6531" lon="1.38697">
        <ele>141</ele>
        <time>2025-04-18T09:59:50Z</time>
      </trkpt>
      <trkpt lat="43.6531" lon="1.387">
        <ele>141</ele>
        <time>2025-04-18T09:59:51Z</time>
      </trkpt>
      <trkpt lat="43.65311" lon="1.38703">
        <ele>141</ele>
        <time>2025-04-18T09:59:52Z</time>
      </trkpt>
      <trkpt lat="43.65312" lon="1.38706">
        <ele>141</ele>
        <time>2025-04-18T09:59:53Z</time>
      </trkpt>
      <trkpt lat="43.65313" lon="1.3871">
        <ele>141</ele>
        <time>2025-04-18T09:59:54Z</time>
      </trkpt>
      <trkpt lat="43.65314" lon="1.38713">
        <ele>141</ele>
        <time>2025-04-18T09:59:55Z</time>
      </trkpt>
      <trkpt lat="43.65314" lon="1.38717">
        <ele>141</ele>
        <time>2025-04-18T09:59:56Z</time>
      </trkpt>
      <trkpt lat="43.65315" lon="1.38721">
        <ele>141</ele>
        <time>2025-04-18T09:59:57Z</time>
      </trkpt>
      <trkpt lat="43.65315" lon="1.38721">
        <ele>141</ele>
        <time>2025-04-18T09:59:58Z</time>
      </trkpt>
      <trkpt lat="43.65317" lon="1.38728">
        <ele>141</ele>
        <time>2025-04-18T09:59:59Z</time>
      </trkpt>
      <trkpt lat="43.65317" lon="1.38728">
        <ele>141</ele>
        <time>2025-04-18T10:00:00Z</time>
      </trkpt>
      <trkpt lat="43.65318" lon="1.38736">
        <ele>141</ele>
        <time>2025-04-18T10:00:01Z</time>
      </trkpt>
      <trkpt lat="43.6532" lon="1.38739">
        <ele>141</ele>
        <time>2025-04-18T10:00:02Z</time>
      </trkpt>
      <trkpt lat="43.6532" lon="1.38743">
        <ele>141</ele>
        <time>2025-04-18T10:00:03Z</time>
      </trkpt>
      <trkpt lat="43.65321" lon="1.38747">
        <ele>141</ele>
        <time>2025-04-18T10:00:04Z</time>
      </trkpt>
      <trkpt lat="43.65321" lon="1.38747">
        <ele>141</ele>
        <time>2025-04-18T10:00:05Z</time>
      </trkpt>
      <trkpt lat="43.65323" lon="1.38755">
        <ele>142</ele>
        <time>2025-04-18T10:00:06Z</time>
      </trkpt>
      <trkpt lat="43.65323" lon="1.38758">
        <ele>142</ele>
        <time>2025-04-18T10:00:07Z</time>
      </trkpt>
      <trkpt lat="43.65324" lon="1.38762">
        <ele>142</ele>
        <time>2025-04-18T10:00:08Z</time>
      </trkpt>
      <trkpt lat="43.65324" lon="1.38765">
        <ele>142</ele>
        <time>2025-04-18T10:00:09Z</time>
      </trkpt>
      <trkpt lat="43.65324" lon="1.38765">
        <ele>142</ele>
        <time>2025-04-18T10:00:10Z</time>
      </trkpt>
      <trkpt lat="43.65326" lon="1.38773">
        <ele>142</ele>
        <time>2025-04-18T10:00:11Z</time>
      </trkpt>
      <trkpt lat="43.65326" lon="1.38773">
        <ele>142</ele>
        <time>2025-04-18T10:00:12Z</time>
      </trkpt>
      <trkpt lat="43.65328" lon="1.38779">
        <ele>142</ele>
        <time>2025-04-18T10:00:13Z</time>
      </trkpt>
      <trkpt lat="43.65328" lon="1.38783">
        <ele>142</ele>
        <time>2025-04-18T10:00:14Z</time>
      </trkpt>
      <trkpt lat="43.65329" lon="1.38787">
        <ele>142</ele>
        <time>2025-04-18T10:00:15Z</time>
      </trkpt>
      <trkpt lat="43.65331" lon="1.3879">
        <ele>142</ele>
        <time>2025-04-18T10:00:16Z</time>
      </trkpt>
      <trkpt lat="43.65331" lon="1.3879">
        <ele>142</ele>
        <time>2025-04-18T10:00:17Z</time>
      </trkpt>
      <trkpt lat="43.65334" lon="1.38797">
        <ele>142</ele>
        <time>2025-04-18T10:00:18Z</time>
      </trkpt>
      <trkpt lat="43.65336" lon="1.388">
        <ele>142</ele>
        <time>2025-04-18T10:00:19Z</time>
      </trkpt>
      <trkpt lat="43.65336" lon="1.388">
        <ele>142</ele>
        <time>2025-04-18T10:00:20Z</time>
      </trkpt>
      <trkpt lat="43.65339" lon="1.38807">
        <ele>142</ele>
        <time>2025-04-18T10:00:21Z</time>
      </trkpt>
      <trkpt lat="43.65341" lon="1.3881">
        <ele>142</ele>
        <time>2025-04-18T10:00:22Z</time>
      </trkpt>
      <trkpt lat="43.65343" lon="1.38814">
        <ele>142</ele>
        <time>2025-04-18T10:00:23Z</time>
      </trkpt>
      <trkpt lat="43.65345" lon="1.38816">
        <ele>142</ele>
        <time>2025-04-18T10:00:24Z</time>
      </trkpt>
      <trkpt lat="43.65346" lon="1.38819">
        <ele>142</ele>
        <time>2025-04-18T10:00:25Z</time>
      </trkpt>
      <trkpt lat="43.65347" lon="1.38822">
        <ele>142</ele>
        <time>2025-04-18T10:00:26Z</time>
      </trkpt>
      <trkpt lat="43.65347" lon="1.38822">
        <ele>143</ele>
        <time>2025-04-18T10:00:27Z</time>
      </trkpt>
      <trkpt lat="43.65351" lon="1.38829">
        <ele>143</ele>
        <time>2025-04-18T10:00:28Z</time>
      </trkpt>
      <trkpt lat="43.65352" lon="1.38832">
        <ele>143</ele>
        <time>2025-04-18T10:00:29Z</time>
      </trkpt>
      <trkpt lat="43.65354" lon="1.38834">
        <ele>143</ele>
        <time>2025-04-18T10:00:30Z</time>
      </trkpt>
      <trkpt lat="43.65356" lon="1.38836">
        <ele>143</ele>
        <time>2025-04-18T10:00:31Z</time>
      </trkpt>
      <trkpt lat="43.65358" lon="1.38838">
        <ele>143</ele>
        <time>2025-04-18T10:00:32Z</time>
      </trkpt>
      <trkpt lat="43.6536" lon="1.3884">
        <ele>143</ele>
        <time>2025-04-18T10:00:33Z</time>
      </trkpt>
      <trkpt lat="43.6536" lon="1.3884">
        <ele>142</ele>
        <time>2025-04-18T10:00:34Z</time>
      </trkpt>
      <trkpt lat="43.65364" lon="1.38845">
        <ele>142</ele>
        <time>2025-04-18T10:00:35Z</time>
      </trkpt>
      <trkpt lat="43.65366" lon="1.38846">
        <ele>142</ele>
        <time>2025-04-18T10:00:36Z</time>
      </trkpt>
      <trkpt lat="43.65369" lon="1.38847">
        <ele>142</ele>
        <time>2025-04-18T10:00:37Z</time>
      </trkpt>
      <trkpt lat="43.65371" lon="1.38849">
        <ele>142</ele>
        <time>2025-04-18T10:00:38Z</time>
      </trkpt>
      <trkpt lat="43.65374" lon="1.3885">
        <ele>142</ele>
        <time>2025-04-18T10:00:39Z</time>
      </trkpt>
      <trkpt lat="43.65374" lon="1.3885">
        <ele>142</ele>
        <time>2025-04-18T10:00:40Z</time>
      </trkpt>
      <trkpt lat="43.65378" lon="1.3885">
        <ele>141</ele>
        <time>2025-04-18T10:00:41Z</time>
      </trkpt>
      <trkpt lat="43.65378" lon="1.3885">
        <ele>141</ele>
        <time>2025-04-18T10:00:42Z</time>
      </trkpt>
      <trkpt lat="43.6538" lon="1.3885">
        <ele>141</ele>
        <time>2025-04-18T10:00:43Z</time>
      </trkpt>
      <trkpt lat="43.65382" lon="1.3885">
        <ele>141</ele>
        <time>2025-04-18T10:00:44Z</time>
      </trkpt>
      <trkpt lat="43.65386" lon="1.38849">
        <ele>140</ele>
        <time>2025-04-18T10:00:45Z</time>
      </trkpt>
      <trkpt lat="43.65388" lon="1.38848">
        <ele>140</ele>
        <time>2025-04-18T10:00:46Z</time>
      </trkpt>
      <trkpt lat="43.65391" lon="1.38847">
        <ele>140</ele>
        <time>2025-04-18T10:00:47Z</time>
      </trkpt>
      <trkpt lat="43.65394" lon="1.38847">
        <ele>140</ele>
        <time>2025-04-18T10:00:48Z</time>
      </trkpt>
      <trkpt lat="43.65396" lon="1.38848">
        <ele>140</ele>
        <time>2025-04-18T10:00:49Z</time>
      </trkpt>
      <trkpt lat="43.65396" lon="1.38848">
        <ele>140</ele>
        <time>2025-04-18T10:00:50Z</time>
      </trkpt>
      <trkpt lat="43.65403" lon="1.38853">
        <ele>141</ele>
        <time>2025-04-18T10:00:51Z</time>
      </trkpt>
      <trkpt lat="43.65406" lon="1.38856">
        <ele>141</ele>
        <time>2025-04-18T10:00:52Z</time>
      </trkpt>
      <trkpt lat="43.65406" lon="1.38856">
        <ele>141</ele>
        <time>2025-04-18T10:00:53Z</time>
      </trkpt>
      <trkpt lat="43.65408" lon="1.38864">
        <ele>140</ele>
        <time>2025-04-18T10:00:54Z</time>
      </trkpt>
      <trkpt lat="43.65409" lon="1.38868">
        <ele>140</ele>
        <time>2025-04-18T10:00:55Z</time>
      </trkpt>
      <trkpt lat="43.65411" lon="1.38871">
        <ele>139</ele>
        <time>2025-04-18T10:00:56Z</time>
      </trkpt>
      <trkpt lat="43.65413" lon="1.38875">
        <ele>139</ele>
        <time>2025-04-18T10:00:57Z</time>
      </trkpt>
      <trkpt lat="43.65414" lon="1.38879">
        <ele>138</ele>
        <time>2025-04-18T10:00:58Z</time>
      </trkpt>
      <trkpt lat="43.65414" lon="1.38879">
        <ele>138</ele>
        <time>2025-04-18T10:00:59Z</time>
      </trkpt>
      <trkpt lat="43.65416" lon="1.38886">
        <ele>138</ele>
        <time>2025-04-18T10:01:00Z</time>
      </trkpt>
      <trkpt lat="43.65416" lon="1.38886">
        <ele>138</ele>
        <time>2025-04-18T10:01:01Z</time>
      </trkpt>
      <trkpt lat="43.65419" lon="1.38893">
        <ele>138</ele>
        <time>2025-04-18T10:01:02Z</time>
      </trkpt>
      <trkpt lat="43.6542" lon="1.38896">
        <ele>138</ele>
        <time>2025-04-18T10:01:03Z</time>
      </trkpt>
      <trkpt lat="43.6542" lon="1.38896">
        <ele>138</ele>
        <time>2025-04-18T10:01:04Z</time>
      </trkpt>
      <trkpt lat="43.65424" lon="1.38903">
        <ele>138</ele>
        <time>2025-04-18T10:01:05Z</time>
      </trkpt>
      <trkpt lat="43.65426" lon="1.38906">
        <ele>138</ele>
        <time>2025-04-18T10:01:06Z</time>
      </trkpt>
      <trkpt lat="43.65426" lon="1.38906">
        <ele>137</ele>
        <time>2025-04-18T10:01:07Z</time>
      </trkpt>
      <trkpt lat="43.6543" lon="1.38913">
        <ele>137</ele>
        <time>2025-04-18T10:01:08Z</time>
      </trkpt>
      <trkpt lat="43.65431" lon="1.38916">
        <ele>137</ele>
        <time>2025-04-18T10:01:09Z</time>
      </trkpt>
      <trkpt lat="43.65433" lon="1.38918">
        <ele>137</ele>
        <time>2025-04-18T10:01:10Z</time>
      </trkpt>
      <trkpt lat="43.65435" lon="1.38921">
        <ele>137</ele>
        <time>2025-04-18T10:01:11Z</time>
      </trkpt>
      <trkpt lat="43.65437" lon="1.38924">
        <ele>137</ele>
        <time>2025-04-18T10:01:12Z</time>
      </trkpt>
      <trkpt lat="43.65438" lon="1.38926">
        <ele>136</ele>
        <time>2025-04-18T10:01:13Z</time>
      </trkpt>
      <trkpt lat="43.6544" lon="1.38929">
        <ele>136</ele>
        <time>2025-04-18T10:01:14Z</time>
      </trkpt>
      <trkpt lat="43.65441" lon="1.38932">
        <ele>135</ele>
        <time>2025-04-18T10:01:15Z</time>
      </trkpt>
      <trkpt lat="43.65443" lon="1.38934">
        <ele>134</ele>
        <time>2025-04-18T10:01:16Z</time>
      </trkpt>
      <trkpt lat="43.65445" lon="1.38937">
        <ele>133</ele>
        <time>2025-04-18T10:01:17Z</time>
      </trkpt>
      <trkpt lat="43.65447" lon="1.3894">
        <ele>132</ele>
        <time>2025-04-18T10:01:18Z</time>
      </trkpt>
      <trkpt lat="43.65449" lon="1.38944">
        <ele>132</ele>
        <time>2025-04-18T10:01:19Z</time>
      </trkpt>
      <trkpt lat="43.6545" lon="1.38948">
        <ele>132</ele>
        <time>2025-04-18T10:01:20Z</time>
      </trkpt>
      <trkpt lat="43.65452" lon="1.38951">
        <ele>131</ele>
        <time>2025-04-18T10:01:21Z</time>
      </trkpt>
      <trkpt lat="43.65453" lon="1.38955">
        <ele>131</ele>
        <time>2025-04-18T10:01:22Z</time>
      </trkpt>
      <trkpt lat="43.65453" lon="1.38955">
        <ele>130</ele>
        <time>2025-04-18T10:01:23Z</time>
      </trkpt>
      <trkpt lat="43.65456" lon="1.38962">
        <ele>129</ele>
        <time>2025-04-18T10:01:24Z</time>
      </trkpt>
      <trkpt lat="43.65457" lon="1.38965">
        <ele>129</ele>
        <time>2025-04-18T10:01:25Z</time>
      </trkpt>
      <trkpt lat="43.65458" lon="1.38968">
        <ele>129</ele>
        <time>2025-04-18T10:01:26Z</time>
      </trkpt>
      <trkpt lat="43.65459" lon="1.38971">
        <ele>129</ele>
        <time>2025-04-18T10:01:27Z</time>
      </trkpt>
      <trkpt lat="43.6546" lon="1.38974">
        <ele>129</ele>
        <time>2025-04-18T10:01:28Z</time>
      </trkpt>
      <trkpt lat="43.65461" lon="1.38977">
        <ele>129</ele>
        <time>2025-04-18T10:01:29Z</time>
      </trkpt>
      <trkpt lat="43.65463" lon="1.3898">
        <ele>129</ele>
        <time>2025-04-18T10:01:30Z</time>
      </trkpt>
      <trkpt lat="43.65463" lon="1.3898">
        <ele>128</ele>
        <time>2025-04-18T10:01:31Z</time>
      </trkpt>
      <trkpt lat="43.65465" lon="1.38986">
        <ele>128</ele>
        <time>2025-04-18T10:01:32Z</time>
      </trkpt>
      <trkpt lat="43.65467" lon="1.38989">
        <ele>128</ele>
        <time>2025-04-18T10:01:33Z</time>
      </trkpt>
      <trkpt lat="43.65469" lon="1.38992">
        <ele>128</ele>
        <time>2025-04-18T10:01:34Z</time>
      </trkpt>
      <trkpt lat="43.65471" lon="1.38995">
        <ele>128</ele>
        <time>2025-04-18T10:01:35Z</time>
      </trkpt>
      <trkpt lat="43.65472" lon="1.38996">
        <ele>128</ele>
        <time>2025-04-18T10:01:36Z</time>
      </trkpt>
      <trkpt lat="43.65474" lon="1.38999">
        <ele>128</ele>
        <time>2025-04-18T10:01:37Z</time>
      </trkpt>
      <trkpt lat="43.65474" lon="1.38999">
        <ele>128</ele>
        <time>2025-04-18T10:01:38Z</time>
      </trkpt>
      <trkpt lat="43.65478" lon="1.39004">
        <ele>127</ele>
        <time>2025-04-18T10:01:39Z</time>
      </trkpt>
      <trkpt lat="43.6548" lon="1.39006">
        <ele>127</ele>
        <time>2025-04-18T10:01:40Z</time>
      </trkpt>
      <trkpt lat="43.65483" lon="1.39008">
        <ele>127</ele>
        <time>2025-04-18T10:01:41Z</time>
      </trkpt>
      <trkpt lat="43.65485" lon="1.3901">
        <ele>127</ele>
        <time>2025-04-18T10:01:42Z</time>
      </trkpt>
      <trkpt lat="43.65487" lon="1.39012">
        <ele>127</ele>
        <time>2025-04-18T10:01:43Z</time>
      </trkpt>
      <trkpt lat="43.65489" lon="1.39014">
        <ele>127</ele>
        <time>2025-04-18T10:01:44Z</time>
      </trkpt>
      <trkpt lat="43.65492" lon="1.39015">
        <ele>127</ele>
        <time>2025-04-18T10:01:45Z</time>
      </trkpt>
      <trkpt lat="43.65494" lon="1.39017">
        <ele>127</ele>
        <time>2025-04-18T10:01:46Z</time>
      </trkpt>
      <trkpt lat="43.65497" lon="1.39018">
        <ele>127</ele>
        <time>2025-04-18T10:01:47Z</time>
      </trkpt>
      <trkpt lat="43.655" lon="1.39019">
        <ele>127</ele>
        <time>2025-04-18T10:01:48Z</time>
      </trkpt>
      <trkpt lat="43.65502" lon="1.3902">
        <ele>126</ele>
        <time>2025-04-18T10:01:49Z</time>
      </trkpt>
      <trkpt lat="43.65505" lon="1.39021">
        <ele>126</ele>
        <time>2025-04-18T10:01:50Z</time>
      </trkpt>
      <trkpt lat="43.65508" lon="1.39021">
        <ele>126</ele>
        <time>2025-04-18T10:01:51Z</time>
      </trkpt>
      <trkpt lat="43.6551" lon="1.39022">
        <ele>126</ele>
        <time>2025-04-18T10:01:52Z</time>
      </trkpt>
      <trkpt lat="43.65513" lon="1.39024">
        <ele>126</ele>
        <time>2025-04-18T10:01:53Z</time>
      </trkpt>
      <trkpt lat="43.65515" lon="1.39026">
        <ele>126</ele>
        <time>2025-04-18T10:01:54Z</time>
      </trkpt>
      <trkpt lat="43.65518" lon="1.39028">
        <ele>126</ele>
        <time>2025-04-18T10:01:55Z</time>
      </trkpt>
      <trkpt lat="43.65521" lon="1.3903">
        <ele>126</ele>
        <time>2025-04-18T10:01:56Z</time>
      </trkpt>
      <trkpt lat="43.65524" lon="1.39031">
        <ele>126</ele>
        <time>2025-04-18T10:01:57Z</time>
      </trkpt>
      <trkpt lat="43.65527" lon="1.39032">
        <ele>126</ele>
        <time>2025-04-18T10:01:58Z</time>
      </trkpt>
      <trkpt lat="43.65529" lon="1.39033">
        <ele>126</ele>
        <time>2025-04-18T10:01:59Z</time>
      </trkpt>
      <trkpt lat="43.65532" lon="1.39034">
        <ele>126</ele>
        <time>2025-04-18T10:02:00Z</time>
      </trkpt>
      <trkpt lat="43.65532" lon="1.39034">
        <ele>126</ele>
        <time>2025-04-18T10:02:01Z</time>
      </trkpt>
      <trkpt lat="43.65538" lon="1.39037">
        <ele>126</ele>
        <time>2025-04-18T10:02:02Z</time>
      </trkpt>
      <trkpt lat="43.6554" lon="1.39038">
        <ele>126</ele>
        <time>2025-04-18T10:02:03Z</time>
      </trkpt>
      <trkpt lat="43.65543" lon="1.39039">
        <ele>125</ele>
        <time>2025-04-18T10:02:04Z</time>
      </trkpt>
      <trkpt lat="43.65545" lon="1.39041">
        <ele>125</ele>
        <time>2025-04-18T10:02:05Z</time>
      </trkpt>
      <trkpt lat="43.65548" lon="1.39042">
        <ele>125</ele>
        <time>2025-04-18T10:02:06Z</time>
      </trkpt>
      <trkpt lat="43.6555" lon="1.39044">
        <ele>125</ele>
        <time>2025-04-18T10:02:07Z</time>
      </trkpt>
      <trkpt lat="43.65553" lon="1.39046">
        <ele>125</ele>
        <time>2025-04-18T10:02:08Z</time>
      </trkpt>
      <trkpt lat="43.65553" lon="1.39046">
        <ele>125</ele>
        <time>2025-04-18T10:02:09Z</time>
      </trkpt>
      <trkpt lat="43.65557" lon="1.39049">
        <ele>125</ele>
        <time>2025-04-18T10:02:10Z</time>
      </trkpt>
      <trkpt lat="43.65559" lon="1.39051">
        <ele>125</ele>
        <time>2025-04-18T10:02:11Z</time>
      </trkpt>
      <trkpt lat="43.65561" lon="1.39053">
        <ele>125</ele>
        <time>2025-04-18T10:02:12Z</time>
      </trkpt>
      <trkpt lat="43.65564" lon="1.39055">
        <ele>125</ele>
        <time>2025-04-18T10:02:13Z</time>
      </trkpt>
      <trkpt lat="43.65566" lon="1.39057">
        <ele>125</ele>
        <time>2025-04-18T10:02:14Z</time>
      </trkpt>
      <trkpt lat="43.65568" lon="1.39059">
        <ele>125</ele>
        <time>2025-04-18T10:02:15Z</time>
      </trkpt>
      <trkpt lat="43.65568" lon="1.39059">
        <ele>125</ele>
        <time>2025-04-18T10:02:16Z</time>
      </trkpt>
      <trkpt lat="43.65573" lon="1.39063">
        <ele>125</ele>
        <time>2025-04-18T10:02:17Z</time>
      </trkpt>
      <trkpt lat="43.65576" lon="1.39065">
        <ele>125</ele>
        <time>2025-04-18T10:02:18Z</time>
      </trkpt>
      <trkpt lat="43.65579" lon="1.39067">
        <ele>125</ele>
        <time>2025-04-18T10:02:19Z</time>
      </trkpt>
      <trkpt lat="43.65581" lon="1.39069">
        <ele>125</ele>
        <time>2025-04-18T10:02:20Z</time>
      </trkpt>
      <trkpt lat="43.65581" lon="1.39069">
        <ele>126</ele>
        <time>2025-04-18T10:02:21Z</time>
      </trkpt>
      <trkpt lat="43.65586" lon="1.39071">
        <ele>126</ele>
        <time>2025-04-18T10:02:22Z</time>
      </trkpt>
      <trkpt lat="43.65589" lon="1.39073">
        <ele>125</ele>
        <time>2025-04-18T10:02:23Z</time>
      </trkpt>
      <trkpt lat="43.65591" lon="1.39074">
        <ele>125</ele>
        <time>2025-04-18T10:02:24Z</time>
      </trkpt>
      <trkpt lat="43.65594" lon="1.39075">
        <ele>125</ele>
        <time>2025-04-18T10:02:25Z</time>
      </trkpt>
      <trkpt lat="43.65596" lon="1.39077">
        <ele>125</ele>
        <time>2025-04-18T10:02:26Z</time>
      </trkpt>
      <trkpt lat="43.65596" lon="1.39077">
        <ele>125</ele>
        <time>2025-04-18T10:02:27Z</time>
      </trkpt>
      <trkpt lat="43.65601" lon="1.39079">
        <ele>125</ele>
        <time>2025-04-18T10:02:28Z</time>
      </trkpt>
      <trkpt lat="43.65601" lon="1.39079">
        <ele>125</ele>
        <time>2025-04-18T10:02:29Z</time>
      </trkpt>
      <trkpt lat="43.65606" lon="1.39082">
        <ele>125</ele>
        <time>2025-04-18T10:02:30Z</time>
      </trkpt>
      <trkpt lat="43.65609" lon="1.39084">
        <ele>125</ele>
        <time>2025-04-18T10:02:31Z</time>
      </trkpt>
      <trkpt lat="43.65611" lon="1.39086">
        <ele>125</ele>
        <time>2025-04-18T10:02:32Z</time>
      </trkpt>
      <trkpt lat="43.65613" lon="1.39088">
        <ele>125</ele>
        <time>2025-04-18T10:02:33Z</time>
      </trkpt>
      <trkpt lat="43.65616" lon="1.39089">
        <ele>125</ele>
        <time>2025-04-18T10:02:34Z</time>
      </trkpt>
      <trkpt lat="43.65618" lon="1.39091">
        <ele>125</ele>
        <time>2025-04-18T10:02:35Z</time>
      </trkpt>
      <trkpt lat="43.65618" lon="1.39091">
        <ele>125</ele>
        <time>2025-04-18T10:02:36Z</time>
      </trkpt>
      <trkpt lat="43.65624" lon="1.39094">
        <ele>125</ele>
        <time>2025-04-18T10:02:37Z</time>
      </trkpt>
      <trkpt lat="43.65626" lon="1.39096">
        <ele>125</ele>
        <time>2025-04-18T10:02:38Z</time>
      </trkpt>
      <trkpt lat="43.65629" lon="1.39098">
        <ele>125</ele>
        <time>2025-04-18T10:02:39Z</time>
      </trkpt>
      <trkpt lat="43.65631" lon="1.39099">
        <ele>125</ele>
        <time>2025-04-18T10:02:40Z</time>
      </trkpt>
      <trkpt lat="43.65631" lon="1.39099">
        <ele>125</ele>
        <time>2025-04-18T10:02:41Z</time>
      </trkpt>
      <trkpt lat="43.65636" lon="1.39103">
        <ele>125</ele>
        <time>2025-04-18T10:02:42Z</time>
      </trkpt>
      <trkpt lat="43.65638" lon="1.39104">
        <ele>125</ele>
        <time>2025-04-18T10:02:43Z</time>
      </trkpt>
      <trkpt lat="43.6564" lon="1.39106">
        <ele>125</ele>
        <time>2025-04-18T10:02:44Z</time>
      </trkpt>
      <trkpt lat="43.65643" lon="1.39107">
        <ele>125</ele>
        <time>2025-04-18T10:02:45Z</time>
      </trkpt>
      <trkpt lat="43.65645" lon="1.39109">
        <ele>125</ele>
        <time>2025-04-18T10:02:46Z</time>
      </trkpt>
      <trkpt lat="43.65648" lon="1.39111">
        <ele>125</ele>
        <time>2025-04-18T10:02:47Z</time>
      </trkpt>
      <trkpt lat="43.6565" lon="1.39113">
        <ele>125</ele>
        <time>2025-04-18T10:02:48Z</time>
      </trkpt>
      <trkpt lat="43.65653" lon="1.39115">
        <ele>125</ele>
        <time>2025-04-18T10:02:49Z</time>
      </trkpt>
      <trkpt lat="43.65656" lon="1.39117">
        <ele>125</ele>
        <time>2025-04-18T10:02:50Z</time>
      </trkpt>
      <trkpt lat="43.65658" lon="1.39119">
        <ele>125</ele>
        <time>2025-04-18T10:02:51Z</time>
      </trkpt>
      <trkpt lat="43.6566" lon="1.3912">
        <ele>125</ele>
        <time>2025-04-18T10:02:52Z</time>
      </trkpt>
      <trkpt lat="43.65663" lon="1.39122">
        <ele>125</ele>
        <time>2025-04-18T10:02:53Z</time>
      </trkpt>
      <trkpt lat="43.65665" lon="1.39123">
        <ele>125</ele>
        <time>2025-04-18T10:02:54Z</time>
      </trkpt>
      <trkpt lat="43.65668" lon="1.39124">
        <ele>125</ele>
        <time>2025-04-18T10:02:55Z</time>
      </trkpt>
      <trkpt lat="43.65668" lon="1.39124">
        <ele>124</ele>
        <time>2025-04-18T10:02:56Z</time>
      </trkpt>
      <trkpt lat="43.65673" lon="1.39127">
        <ele>124</ele>
        <time>2025-04-18T10:02:57Z</time>
      </trkpt>
      <trkpt lat="43.65675" lon="1.39128">
        <ele>124</ele>
        <time>2025-04-18T10:02:58Z</time>
      </trkpt>
      <trkpt lat="43.65675" lon="1.39128">
        <ele>124</ele>
        <time>2025-04-18T10:02:59Z</time>
      </trkpt>
      <trkpt lat="43.65681" lon="1.39131">
        <ele>124</ele>
        <time>2025-04-18T10:03:00Z</time>
      </trkpt>
      <trkpt lat="43.65683" lon="1.39132">
        <ele>124</ele>
        <time>2025-04-18T10:03:01Z</time>
      </trkpt>
      <trkpt lat="43.65685" lon="1.39132">
        <ele>124</ele>
        <time>2025-04-18T10:03:02Z</time>
      </trkpt>
      <trkpt lat="43.65687" lon="1.39133">
        <ele>124</ele>
        <time>2025-04-18T10:03:03Z</time>
      </trkpt>
      <trkpt lat="43.65689" lon="1.39135">
        <ele>124</ele>
        <time>2025-04-18T10:03:04Z</time>
      </trkpt>
      <trkpt lat="43.65691" lon="1.39136">
        <ele>124</ele>
        <time>2025-04-18T10:03:05Z</time>
      </trkpt>
      <trkpt lat="43.65693" lon="1.39138">
        <ele>124</ele>
        <time>2025-04-18T10:03:06Z</time>
      </trkpt>
      <trkpt lat="43.65693" lon="1.39138">
        <ele>124</ele>
        <time>2025-04-18T10:03:07Z</time>
      </trkpt>
      <trkpt lat="43.65698" lon="1.39142">
        <ele>124</ele>
        <time>2025-04-18T10:03:08Z</time>
      </trkpt>
      <trkpt lat="43.65698" lon="1.39142">
        <ele>124</ele>
        <time>2025-04-18T10:03:09Z</time>
      </trkpt>
      <trkpt lat="43.65703" lon="1.39147">
        <ele>124</ele>
        <time>2025-04-18T10:03:10Z</time>
      </trkpt>
      <trkpt lat="43.65705" lon="1.39148">
        <ele>124</ele>
        <time>2025-04-18T10:03:11Z</time>
      </trkpt>
      <trkpt lat="43.65707" lon="1.3915">
        <ele>124</ele>
        <time>2025-04-18T10:03:12Z</time>
      </trkpt>
      <trkpt lat="43.65709" lon="1.39152">
        <ele>124</ele>
        <time>2025-04-18T10:03:13Z</time>
      </trkpt>
      <trkpt lat="43.65711" lon="1.39154">
        <ele>124</ele>
        <time>2025-04-18T10:03:14Z</time>
      </trkpt>
      <trkpt lat="43.65713" lon="1.39155">
        <ele>124</ele>
        <time>2025-04-18T10:03:15Z</time>
      </trkpt>
      <trkpt lat="43.65714" lon="1.39157">
        <ele>124</ele>
        <time>2025-04-18T10:03:16Z</time>
      </trkpt>
      <trkpt lat="43.65716" lon="1.39159">
        <ele>124</ele>
        <time>2025-04-18T10:03:17Z</time>
      </trkpt>
      <trkpt lat="43.65719" lon="1.39161">
        <ele>124</ele>
        <time>2025-04-18T10:03:18Z</time>
      </trkpt>
      <trkpt lat="43.65719" lon="1.39161">
        <ele>124</ele>
        <time>2025-04-18T10:03:19Z</time>
      </trkpt>
      <trkpt lat="43.65725" lon="1.39165">
        <ele>124</ele>
        <time>2025-04-18T10:03:20Z</time>
      </trkpt>
      <trkpt lat="43.65728" lon="1.39166">
        <ele>124</ele>
        <time>2025-04-18T10:03:21Z</time>
      </trkpt>
      <trkpt lat="43.6573" lon="1.39167">
        <ele>124</ele>
        <time>2025-04-18T10:03:22Z</time>
      </trkpt>
      <trkpt lat="43.6573" lon="1.39167">
        <ele>124</ele>
        <time>2025-04-18T10:03:23Z</time>
      </trkpt>
      <trkpt lat="43.65736" lon="1.3917">
        <ele>124</ele>
        <time>2025-04-18T10:03:24Z</time>
      </trkpt>
      <trkpt lat="43.65738" lon="1.39172">
        <ele>124</ele>
        <time>2025-04-18T10:03:25Z</time>
      </trkpt>
      <trkpt lat="43.6574" lon="1.39173">
        <ele>124</ele>
        <time>2025-04-18T10:03:26Z</time>
      </trkpt>
      <trkpt lat="43.65742" lon="1.39174">
        <ele>124</ele>
        <time>2025-04-18T10:03:27Z</time>
      </trkpt>
      <trkpt lat="43.65745" lon="1.39176">
        <ele>124</ele>
        <time>2025-04-18T10:03:28Z</time>
      </trkpt>
      <trkpt lat="43.65747" lon="1.39177">
        <ele>124</ele>
        <time>2025-04-18T10:03:29Z</time>
      </trkpt>
      <trkpt lat="43.65747" lon="1.39177">
        <ele>124</ele>
        <time>2025-04-18T10:03:30Z</time>
      </trkpt>
      <trkpt lat="43.65751" lon="1.39179">
        <ele>124</ele>
        <time>2025-04-18T10:03:31Z</time>
      </trkpt>
      <trkpt lat="43.65754" lon="1.39181">
        <ele>124</ele>
        <time>2025-04-18T10:03:32Z</time>
      </trkpt>
      <trkpt lat="43.65756" lon="1.39183">
        <ele>124</ele>
        <time>2025-04-18T10:03:33Z</time>
      </trkpt>
      <trkpt lat="43.65759" lon="1.39186">
        <ele>124</ele>
        <time>2025-04-18T10:03:34Z</time>
      </trkpt>
      <trkpt lat="43.65761" lon="1.39189">
        <ele>124</ele>
        <time>2025-04-18T10:03:35Z</time>
      </trkpt>
      <trkpt lat="43.65761" lon="1.39189">
        <ele>124</ele>
        <time>2025-04-18T10:03:36Z</time>
      </trkpt>
      <trkpt lat="43.65765" lon="1.39193">
        <ele>124</ele>
        <time>2025-04-18T10:03:37Z</time>
      </trkpt>
      <trkpt lat="43.65767" lon="1.39195">
        <ele>125</ele>
        <time>2025-04-18T10:03:38Z</time>
      </trkpt>
      <trkpt lat="43.65769" lon="1.39198">
        <ele>125</ele>
        <time>2025-04-18T10:03:39Z</time>
      </trkpt>
      <trkpt lat="43.65769" lon="1.39198">
        <ele>125</ele>
        <time>2025-04-18T10:03:40Z</time>
      </trkpt>
      <trkpt lat="43.65774" lon="1.39204">
        <ele>125</ele>
        <time>2025-04-18T10:03:41Z</time>
      </trkpt>
      <trkpt lat="43.65776" lon="1.39206">
        <ele>125</ele>
        <time>2025-04-18T10:03:42Z</time>
      </trkpt>
      <trkpt lat="43.65779" lon="1.39208">
        <ele>125</ele>
        <time>2025-04-18T10:03:43Z</time>
      </trkpt>
      <trkpt lat="43.65781" lon="1.3921">
        <ele>125</ele>
        <time>2025-04-18T10:03:44Z</time>
      </trkpt>
      <trkpt lat="43.65783" lon="1.39212">
        <ele>125</ele>
        <time>2025-04-18T10:03:45Z</time>
      </trkpt>
      <trkpt lat="43.65786" lon="1.39213">
        <ele>125</ele>
        <time>2025-04-18T10:03:46Z</time>
      </trkpt>
      <trkpt lat="43.65786" lon="1.39213">
        <ele>125</ele>
        <time>2025-04-18T10:03:47Z</time>
      </trkpt>
      <trkpt lat="43.65792" lon="1.39214">
        <ele>124</ele>
        <time>2025-04-18T10:03:48Z</time>
      </trkpt>
      <trkpt lat="43.65794" lon="1.39215">
        <ele>123</ele>
        <time>2025-04-18T10:03:49Z</time>
      </trkpt>
      <trkpt lat="43.65797" lon="1.39215">
        <ele>123</ele>
        <time>2025-04-18T10:03:50Z</time>
      </trkpt>
      <trkpt lat="43.65799" lon="1.39216">
        <ele>123</ele>
        <time>2025-04-18T10:03:51Z</time>
      </trkpt>
      <trkpt lat="43.65802" lon="1.39216">
        <ele>123</ele>
        <time>2025-04-18T10:03:52Z</time>
      </trkpt>
      <trkpt lat="43.65804" lon="1.39217">
        <ele>123</ele>
        <time>2025-04-18T10:03:53Z</time>
      </trkpt>
      <trkpt lat="43.65804" lon="1.39217">
        <ele>123</ele>
        <time>2025-04-18T10:03:54Z</time>
      </trkpt>
      <trkpt lat="43.65809" lon="1.3922">
        <ele>123</ele>
        <time>2025-04-18T10:03:55Z</time>
      </trkpt>
      <trkpt lat="43.65811" lon="1.39222">
        <ele>123</ele>
        <time>2025-04-18T10:03:56Z</time>
      </trkpt>
      <trkpt lat="43.65814" lon="1.39222">
        <ele>123</ele>
        <time>2025-04-18T10:03:57Z</time>
      </trkpt>
      <trkpt lat="43.65816" lon="1.39223">
        <ele>123</ele>
        <time>2025-04-18T10:03:58Z</time>
      </trkpt>
      <trkpt lat="43.65818" lon="1.39224">
        <ele>123</ele>
        <time>2025-04-18T10:03:59Z</time>
      </trkpt>
      <trkpt lat="43.6582" lon="1.39225">
        <ele>123</ele>
        <time>2025-04-18T10:04:00Z</time>
      </trkpt>
      <trkpt lat="43.65821" lon="1.39225">
        <ele>123</ele>
        <time>2025-04-18T10:04:01Z</time>
      </trkpt>
      <trkpt lat="43.65821" lon="1.39225">
        <ele>123</ele>
        <time>2025-04-18T10:04:02Z</time>
      </trkpt>
      <trkpt lat="43.65825" lon="1.39227">
        <ele>123</ele>
        <time>2025-04-18T10:04:03Z</time>
      </trkpt>
      <trkpt lat="43.65827" lon="1.39228">
        <ele>123</ele>
        <time>2025-04-18T10:04:04Z</time>
      </trkpt>
      <trkpt lat="43.6583" lon="1.39229">
        <ele>123</ele>
        <time>2025-04-18T10:04:05Z</time>
      </trkpt>
      <trkpt lat="43.65833" lon="1.3923">
        <ele>123</ele>
        <time>2025-04-18T10:04:06Z</time>
      </trkpt>
      <trkpt lat="43.65833" lon="1.3923">
        <ele>123</ele>
        <time>2025-04-18T10:04:07Z</time>
      </trkpt>
      <trkpt lat="43.65838" lon="1.39234">
        <ele>122</ele>
        <time>2025-04-18T10:04:08Z</time>
      </trkpt>
      <trkpt lat="43.6584" lon="1.39236">
        <ele>122</ele>
        <time>2025-04-18T10:04:09Z</time>
      </trkpt>
      <trkpt lat="43.65843" lon="1.39237">
        <ele>122</ele>
        <time>2025-04-18T10:04:10Z</time>
      </trkpt>
      <trkpt lat="43.65845" lon="1.39239">
        <ele>122</ele>
        <time>2025-04-18T10:04:11Z</time>
      </trkpt>
      <trkpt lat="43.65848" lon="1.39241">
        <ele>122</ele>
        <time>2025-04-18T10:04:12Z</time>
      </trkpt>
      <trkpt lat="43.6585" lon="1.39244">
        <ele>122</ele>
        <time>2025-04-18T10:04:13Z</time>
      </trkpt>
      <trkpt lat="43.65853" lon="1.39246">
        <ele>122</ele>
        <time>2025-04-18T10:04:14Z</time>
      </trkpt>
      <trkpt lat="43.65856" lon="1.39248">
        <ele>122</ele>
        <time>2025-04-18T10:04:15Z</time>
      </trkpt>
      <trkpt lat="43.65856" lon="1.39248">
        <ele>122</ele>
        <time>2025-04-18T10:04:16Z</time>
      </trkpt>
      <trkpt lat="43.6586" lon="1.3925">
        <ele>122</ele>
        <time>2025-04-18T10:04:17Z</time>
      </trkpt>
      <trkpt lat="43.65863" lon="1.39249">
        <ele>122</ele>
        <time>2025-04-18T10:04:18Z</time>
      </trkpt>
      <trkpt lat="43.65866" lon="1.39249">
        <ele>121</ele>
        <time>2025-04-18T10:04:19Z</time>
      </trkpt>
      <trkpt lat="43.65869" lon="1.39249">
        <ele>121</ele>
        <time>2025-04-18T10:04:20Z</time>
      </trkpt>
      <trkpt lat="43.65872" lon="1.39248">
        <ele>121</ele>
        <time>2025-04-18T10:04:21Z</time>
      </trkpt>
      <trkpt lat="43.65874" lon="1.39249">
        <ele>122</ele>
        <time>2025-04-18T10:04:22Z</time>
      </trkpt>
      <trkpt lat="43.65876" lon="1.39249">
        <ele>122</ele>
        <time>2025-04-18T10:04:23Z</time>
      </trkpt>
      <trkpt lat="43.65879" lon="1.3925">
        <ele>122</ele>
        <time>2025-04-18T10:04:24Z</time>
      </trkpt>
      <trkpt lat="43.65882" lon="1.3925">
        <ele>122</ele>
        <time>2025-04-18T10:04:25Z</time>
      </trkpt>
      <trkpt lat="43.65885" lon="1.39251">
        <ele>122</ele>
        <time>2025-04-18T10:04:26Z</time>
      </trkpt>
      <trkpt lat="43.65885" lon="1.39251">
        <ele>122</ele>
        <time>2025-04-18T10:04:27Z</time>
      </trkpt>
      <trkpt lat="43.65891" lon="1.39252">
        <ele>122</ele>
        <time>2025-04-18T10:04:28Z</time>
      </trkpt>
      <trkpt lat="43.65893" lon="1.39253">
        <ele>122</ele>
        <time>2025-04-18T10:04:29Z</time>
      </trkpt>
      <trkpt lat="43.65893" lon="1.39253">
        <ele>122</ele>
        <time>2025-04-18T10:04:30Z</time>
      </trkpt>
      <trkpt lat="43.65899" lon="1.39254">
        <ele>122</ele>
        <time>2025-04-18T10:04:31Z</time>
      </trkpt>
      <trkpt lat="43.65899" lon="1.39254">
        <ele>122</ele>
        <time>2025-04-18T10:04:32Z</time>
      </trkpt>
      <trkpt lat="43.65904" lon="1.39255">
        <ele>122</ele>
        <time>2025-04-18T10:04:33Z</time>
      </trkpt>
      <trkpt lat="43.65904" lon="1.39255">
        <ele>122</ele>
        <time>2025-04-18T10:04:34Z</time>
      </trkpt>
      <trkpt lat="43.65909" lon="1.39255">
        <ele>122</ele>
        <time>2025-04-18T10:04:35Z</time>
      </trkpt>
      <trkpt lat="43.65909" lon="1.39255">
        <ele>122</ele>
        <time>2025-04-18T10:04:36Z</time>
      </trkpt>
      <trkpt lat="43.65914" lon="1.39255">
        <ele>122</ele>
        <time>2025-04-18T10:04:37Z</time>
      </trkpt>
      <trkpt lat="43.65917" lon="1.39255">
        <ele>122</ele>
        <time>2025-04-18T10:04:38Z</time>
      </trkpt>
      <trkpt lat="43.65919" lon="1.39254">
        <ele>121</ele>
        <time>2025-04-18T10:04:39Z</time>
      </trkpt>
      <trkpt lat="43.65919" lon="1.39254">
        <ele>121</ele>
        <time>2025-04-18T10:04:40Z</time>
      </trkpt>
      <trkpt lat="43.65924" lon="1.39253">
        <ele>121</ele>
        <time>2025-04-18T10:04:41Z</time>
      </trkpt>
      <trkpt lat="43.65924" lon="1.39253">
        <ele>121</ele>
        <time>2025-04-18T10:04:42Z</time>
      </trkpt>
      <trkpt lat="43.65929" lon="1.39253">
        <ele>121</ele>
        <time>2025-04-18T10:04:43Z</time>
      </trkpt>
      <trkpt lat="43.65931" lon="1.39253">
        <ele>121</ele>
        <time>2025-04-18T10:04:44Z</time>
      </trkpt>
      <trkpt lat="43.65931" lon="1.39253">
        <ele>121</ele>
        <time>2025-04-18T10:04:45Z</time>
      </trkpt>
      <trkpt lat="43.65936" lon="1.39254">
        <ele>122</ele>
        <time>2025-04-18T10:04:46Z</time>
      </trkpt>
      <trkpt lat="43.65939" lon="1.39253">
        <ele>122</ele>
        <time>2025-04-18T10:04:47Z</time>
      </trkpt>
      <trkpt lat="43.65941" lon="1.39253">
        <ele>121</ele>
        <time>2025-04-18T10:04:48Z</time>
      </trkpt>
      <trkpt lat="43.65941" lon="1.39253">
        <ele>121</ele>
        <time>2025-04-18T10:04:49Z</time>
      </trkpt>
      <trkpt lat="43.65946" lon="1.39253">
        <ele>121</ele>
        <time>2025-04-18T10:04:50Z</time>
      </trkpt>
      <trkpt lat="43.6595" lon="1.39252">
        <ele>121</ele>
        <time>2025-04-18T10:04:51Z</time>
      </trkpt>
      <trkpt lat="43.65953" lon="1.39251">
        <ele>121</ele>
        <time>2025-04-18T10:04:52Z</time>
      </trkpt>
      <trkpt lat="43.65956" lon="1.3925">
        <ele>121</ele>
        <time>2025-04-18T10:04:53Z</time>
      </trkpt>
      <trkpt lat="43.65958" lon="1.39248">
        <ele>121</ele>
        <time>2025-04-18T10:04:54Z</time>
      </trkpt>
      <trkpt lat="43.65958" lon="1.39248">
        <ele>122</ele>
        <time>2025-04-18T10:04:55Z</time>
      </trkpt>
      <trkpt lat="43.65962" lon="1.39246">
        <ele>122</ele>
        <time>2025-04-18T10:04:56Z</time>
      </trkpt>
      <trkpt lat="43.65962" lon="1.39246">
        <ele>122</ele>
        <time>2025-04-18T10:04:57Z</time>
      </trkpt>
      <trkpt lat="43.65966" lon="1.39246">
        <ele>121</ele>
        <time>2025-04-18T10:04:58Z</time>
      </trkpt>
      <trkpt lat="43.65966" lon="1.39246">
        <ele>122</ele>
        <time>2025-04-18T10:04:59Z</time>
      </trkpt>
      <trkpt lat="43.65972" lon="1.39247">
        <ele>122</ele>
        <time>2025-04-18T10:05:00Z</time>
      </trkpt>
      <trkpt lat="43.65972" lon="1.39247">
        <ele>122</ele>
        <time>2025-04-18T10:05:01Z</time>
      </trkpt>
      <trkpt lat="43.65978" lon="1.39247">
        <ele>122</ele>
        <time>2025-04-18T10:05:02Z</time>
      </trkpt>
      <trkpt lat="43.6598" lon="1.39246">
        <ele>122</ele>
        <time>2025-04-18T10:05:03Z</time>
      </trkpt>
      <trkpt lat="43.6598" lon="1.39246">
        <ele>122</ele>
        <time>2025-04-18T10:05:04Z</time>
      </trkpt>
      <trkpt lat="43.65986" lon="1.39242">
        <ele>122</ele>
        <time>2025-04-18T10:05:05Z</time>
      </trkpt>
      <trkpt lat="43.65989" lon="1.3924">
        <ele>122</ele>
        <time>2025-04-18T10:05:06Z</time>
      </trkpt>
      <trkpt lat="43.65991" lon="1.39238">
        <ele>122</ele>
        <time>2025-04-18T10:05:07Z</time>
      </trkpt>
      <trkpt lat="43.65992" lon="1.39237">
        <ele>122</ele>
        <time>2025-04-18T10:05:08Z</time>
      </trkpt>
      <trkpt lat="43.65995" lon="1.39235">
        <ele>122</ele>
        <time>2025-04-18T10:05:09Z</time>
      </trkpt>
      <trkpt lat="43.65997" lon="1.39234">
        <ele>122</ele>
        <time>2025-04-18T10:05:10Z</time>
      </trkpt>
      <trkpt lat="43.65999" lon="1.39232">
        <ele>122</ele>
        <time>2025-04-18T10:05:11Z</time>
      </trkpt>
      <trkpt lat="43.65999" lon="1.39232">
        <ele>122</ele>
        <time>2025-04-18T10:05:12Z</time>
      </trkpt>
      <trkpt lat="43.66003" lon="1.39229">
        <ele>122</ele>
        <time>2025-04-18T10:05:13Z</time>
      </trkpt>
      <trkpt lat="43.66003" lon="1.39229">
        <ele>122</ele>
        <time>2025-04-18T10:05:14Z</time>
      </trkpt>
      <trkpt lat="43.66007" lon="1.39227">
        <ele>122</ele>
        <time>2025-04-18T10:05:15Z</time>
      </trkpt>
      <trkpt lat="43.66009" lon="1.39226">
        <ele>122</ele>
        <time>2025-04-18T10:05:16Z</time>
      </trkpt>
      <trkpt lat="43.66011" lon="1.39224">
        <ele>122</ele>
        <time>2025-04-18T10:05:17Z</time>
      </trkpt>
      <trkpt lat="43.66013" lon="1.39224">
        <ele>122</ele>
        <time>2025-04-18T10:05:18Z</time>
      </trkpt>
      <trkpt lat="43.66015" lon="1.39223">
        <ele>122</ele>
        <time>2025-04-18T10:05:19Z</time>
      </trkpt>
      <trkpt lat="43.66015" lon="1.39223">
        <ele>122</ele>
        <time>2025-04-18T10:05:20Z</time>
      </trkpt>
      <trkpt lat="43.66018" lon="1.39223">
        <ele>121</ele>
        <time>2025-04-18T10:05:21Z</time>
      </trkpt>
      <trkpt lat="43.66022" lon="1.39222">
        <ele>121</ele>
        <time>2025-04-18T10:05:22Z</time>
      </trkpt>
      <trkpt lat="43.66025" lon="1.39222">
        <ele>121</ele>
        <time>2025-04-18T10:05:23Z</time>
      </trkpt>
      <trkpt lat="43.66025" lon="1.39222">
        <ele>121</ele>
        <time>2025-04-18T10:05:24Z</time>
      </trkpt>
      <trkpt lat="43.66032" lon="1.39222">
        <ele>121</ele>
        <time>2025-04-18T10:05:25Z</time>
      </trkpt>
      <trkpt lat="43.66034" lon="1.39222">
        <ele>121</ele>
        <time>2025-04-18T10:05:26Z</time>
      </trkpt>
      <trkpt lat="43.66037" lon="1.39222">
        <ele>121</ele>
        <time>2025-04-18T10:05:27Z</time>
      </trkpt>
      <trkpt lat="43.66037" lon="1.39222">
        <ele>121</ele>
        <time>2025-04-18T10:05:28Z</time>
      </trkpt>
      <trkpt lat="43.6604" lon="1.39221">
        <ele>121</ele>
        <time>2025-04-18T10:05:29Z</time>
      </trkpt>
      <trkpt lat="43.66042" lon="1.3922">
        <ele>121</ele>
        <time>2025-04-18T10:05:30Z</time>
      </trkpt>
      <trkpt lat="43.66045" lon="1.3922">
        <ele>121</ele>
        <time>2025-04-18T10:05:31Z</time>
      </trkpt>
      <trkpt lat="43.66048" lon="1.39219">
        <ele>121</ele>
        <time>2025-04-18T10:05:32Z</time>
      </trkpt>
      <trkpt lat="43.66051" lon="1.39219">
        <ele>121</ele>
        <time>2025-04-18T10:05:33Z</time>
      </trkpt>
      <trkpt lat="43.66054" lon="1.39219">
        <ele>121</ele>
        <time>2025-04-18T10:05:34Z</time>
      </trkpt>
      <trkpt lat="43.66057" lon="1.39219">
        <ele>121</ele>
        <time>2025-04-18T10:05:35Z</time>
      </trkpt>
      <trkpt lat="43.6606" lon="1.39218">
        <ele>121</ele>
        <time>2025-04-18T10:05:36Z</time>
      </trkpt>
      <trkpt lat="43.66062" lon="1.39218">
        <ele>121</ele>
        <time>2025-04-18T10:05:37Z</time>
      </trkpt>
      <trkpt lat="43.66064" lon="1.39217">
        <ele>121</ele>
        <time>2025-04-18T10:05:38Z</time>
      </trkpt>
      <trkpt lat="43.66065" lon="1.39215">
        <ele>121</ele>
        <time>2025-04-18T10:05:39Z</time>
      </trkpt>
      <trkpt lat="43.66067" lon="1.39213">
        <ele>121</ele>
        <time>2025-04-18T10:05:40Z</time>
      </trkpt>
      <trkpt lat="43.66067" lon="1.39213">
        <ele>121</ele>
        <time>2025-04-18T10:05:41Z</time>
      </trkpt>
      <trkpt lat="43.66072" lon="1.39211">
        <ele>121</ele>
        <time>2025-04-18T10:05:42Z</time>
      </trkpt>
      <trkpt lat="43.66075" lon="1.3921">
        <ele>121</ele>
        <time>2025-04-18T10:05:43Z</time>
      </trkpt>
      <trkpt lat="43.66075" lon="1.3921">
        <ele>121</ele>
        <time>2025-04-18T10:05:44Z</time>
      </trkpt>
      <trkpt lat="43.66077" lon="1.39209">
        <ele>121</ele>
        <time>2025-04-18T10:05:45Z</time>
      </trkpt>
      <trkpt lat="43.6608" lon="1.39206">
        <ele>121</ele>
        <time>2025-04-18T10:05:46Z</time>
      </trkpt>
      <trkpt lat="43.66084" lon="1.39202">
        <ele>121</ele>
        <time>2025-04-18T10:05:47Z</time>
      </trkpt>
      <trkpt lat="43.66084" lon="1.39202">
        <ele>121</ele>
        <time>2025-04-18T10:05:48Z</time>
      </trkpt>
      <trkpt lat="43.6609" lon="1.392">
        <ele>121</ele>
        <time>2025-04-18T10:05:49Z</time>
      </trkpt>
      <trkpt lat="43.66093" lon="1.392">
        <ele>121</ele>
        <time>2025-04-18T10:05:50Z</time>
      </trkpt>
      <trkpt lat="43.66096" lon="1.39199">
        <ele>121</ele>
        <time>2025-04-18T10:05:51Z</time>
      </trkpt>
      <trkpt lat="43.66099" lon="1.39199">
        <ele>121</ele>
        <time>2025-04-18T10:05:52Z</time>
      </trkpt>
      <trkpt lat="43.66099" lon="1.39199">
        <ele>121</ele>
        <time>2025-04-18T10:05:53Z</time>
      </trkpt>
      <trkpt lat="43.66105" lon="1.39199">
        <ele>121</ele>
        <time>2025-04-18T10:05:54Z</time>
      </trkpt>
      <trkpt lat="43.66108" lon="1.39197">
        <ele>121</ele>
        <time>2025-04-18T10:05:55Z</time>
      </trkpt>
      <trkpt lat="43.66111" lon="1.39196">
        <ele>121</ele>
        <time>2025-04-18T10:05:56Z</time>
      </trkpt>
      <trkpt lat="43.66114" lon="1.39194">
        <ele>121</ele>
        <time>2025-04-18T10:05:57Z</time>
      </trkpt>
      <trkpt lat="43.66116" lon="1.39194">
        <ele>121</ele>
        <time>2025-04-18T10:05:58Z</time>
      </trkpt>
      <trkpt lat="43.66119" lon="1.39193">
        <ele>121</ele>
        <time>2025-04-18T10:05:59Z</time>
      </trkpt>
      <trkpt lat="43.66119" lon="1.39193">
        <ele>121</ele>
        <time>2025-04-18T10:06:00Z</time>
      </trkpt>
      <trkpt lat="43.66125" lon="1.39191">
        <ele>121</ele>
        <time>2025-04-18T10:06:01Z</time>
      </trkpt>
      <trkpt lat="43.66128" lon="1.39191">
        <ele>121</ele>
        <time>2025-04-18T10:06:02Z</time>
      </trkpt>
      <trkpt lat="43.66131" lon="1.39189">
        <ele>121</ele>
        <time>2025-04-18T10:06:03Z</time>
      </trkpt>
      <trkpt lat="43.66134" lon="1.39188">
        <ele>121</ele>
        <time>2025-04-18T10:06:04Z</time>
      </trkpt>
      <trkpt lat="43.66136" lon="1.39186">
        <ele>121</ele>
        <time>2025-04-18T10:06:05Z</time>
      </trkpt>
      <trkpt lat="43.66138" lon="1.39184">
        <ele>120</ele>
        <time>2025-04-18T10:06:06Z</time>
      </trkpt>
      <trkpt lat="43.66141" lon="1.39182">
        <ele>120</ele>
        <time>2025-04-18T10:06:07Z</time>
      </trkpt>
      <trkpt lat="43.66143" lon="1.3918">
        <ele>120</ele>
        <time>2025-04-18T10:06:08Z</time>
      </trkpt>
      <trkpt lat="43.66143" lon="1.3918">
        <ele>120</ele>
        <time>2025-04-18T10:06:09Z</time>
      </trkpt>
      <trkpt lat="43.66147" lon="1.39176">
        <ele>120</ele>
        <time>2025-04-18T10:06:10Z</time>
      </trkpt>
      <trkpt lat="43.66147" lon="1.39176">
        <ele>121</ele>
        <time>2025-04-18T10:06:11Z</time>
      </trkpt>
      <trkpt lat="43.66152" lon="1.39174">
        <ele>121</ele>
        <time>2025-04-18T10:06:12Z</time>
      </trkpt>
      <trkpt lat="43.66154" lon="1.39173">
        <ele>121</ele>
        <time>2025-04-18T10:06:13Z</time>
      </trkpt>
      <trkpt lat="43.66157" lon="1.39172">
        <ele>121</ele>
        <time>2025-04-18T10:06:14Z</time>
      </trkpt>
      <trkpt lat="43.66159" lon="1.39171">
        <ele>121</ele>
        <time>2025-04-18T10:06:15Z</time>
      </trkpt>
      <trkpt lat="43.66161" lon="1.3917">
        <ele>120</ele>
        <time>2025-04-18T10:06:16Z</time>
      </trkpt>
      <trkpt lat="43.66163" lon="1.39168">
        <ele>120</ele>
        <time>2025-04-18T10:06:17Z</time>
      </trkpt>
      <trkpt lat="43.66166" lon="1.39166">
        <ele>120</ele>
        <time>2025-04-18T10:06:18Z</time>
      </trkpt>
      <trkpt lat="43.66168" lon="1.39164">
        <ele>120</ele>
        <time>2025-04-18T10:06:19Z</time>
      </trkpt>
      <trkpt lat="43.66168" lon="1.39164">
        <ele>120</ele>
        <time>2025-04-18T10:06:20Z</time>
      </trkpt>
      <trkpt lat="43.66171" lon="1.39162">
        <ele>120</ele>
        <time>2025-04-18T10:06:21Z</time>
      </trkpt>
      <trkpt lat="43.66173" lon="1.3916">
        <ele>120</ele>
        <time>2025-04-18T10:06:22Z</time>
      </trkpt>
      <trkpt lat="43.66174" lon="1.39158">
        <ele>120</ele>
        <time>2025-04-18T10:06:23Z</time>
      </trkpt>
      <trkpt lat="43.66174" lon="1.39158">
        <ele>120</ele>
        <time>2025-04-18T10:06:24Z</time>
      </trkpt>
      <trkpt lat="43.66179" lon="1.39154">
        <ele>120</ele>
        <time>2025-04-18T10:06:25Z</time>
      </trkpt>
      <trkpt lat="43.66181" lon="1.39151">
        <ele>120</ele>
        <time>2025-04-18T10:06:26Z</time>
      </trkpt>
      <trkpt lat="43.66181" lon="1.39151">
        <ele>120</ele>
        <time>2025-04-18T10:06:27Z</time>
      </trkpt>
      <trkpt lat="43.66185" lon="1.39147">
        <ele>120</ele>
        <time>2025-04-18T10:06:28Z</time>
      </trkpt>
      <trkpt lat="43.66187" lon="1.39146">
        <ele>120</ele>
        <time>2025-04-18T10:06:29Z</time>
      </trkpt>
      <trkpt lat="43.66189" lon="1.39145">
        <ele>120</ele>
        <time>2025-04-18T10:06:30Z</time>
      </trkpt>
      <trkpt lat="43.66191" lon="1.39143">
        <ele>120</ele>
        <time>2025-04-18T10:06:31Z</time>
      </trkpt>
      <trkpt lat="43.66193" lon="1.39142">
        <ele>120</ele>
        <time>2025-04-18T10:06:32Z</time>
      </trkpt>
      <trkpt lat="43.66193" lon="1.39142">
        <ele>120</ele>
        <time>2025-04-18T10:06:33Z</time>
      </trkpt>
      <trkpt lat="43.6623" lon="1.3916">
        <ele>120</ele>
        <time>2025-04-18T10:07:08Z</time>
      </trkpt>
      <trkpt lat="43.6623" lon="1.3916">
        <ele>120</ele>
        <time>2025-04-18T10:07:09Z</time>
      </trkpt>
      <trkpt lat="43.66233" lon="1.39163">
        <ele>120</ele>
        <time>2025-04-18T10:07:10Z</time>
      </trkpt>
      <trkpt lat="43.66233" lon="1.39163">
        <ele>120</ele>
        <time>2025-04-18T10:07:11Z</time>
      </trkpt>
      <trkpt lat="43.66237" lon="1.39167">
        <ele>120</ele>
        <time>2025-04-18T10:07:12Z</time>
      </trkpt>
      <trkpt lat="43.66238" lon="1.39168">
        <ele>120</ele>
        <time>2025-04-18T10:07:13Z</time>
      </trkpt>
      <trkpt lat="43.66238" lon="1.39168">
        <ele>120</ele>
        <time>2025-04-18T10:07:14Z</time>
      </trkpt>
      <trkpt lat="43.6624" lon="1.39169">
        <ele>120</ele>
        <time>2025-04-18T10:07:15Z</time>
      </trkpt>
      <trkpt lat="43.66243" lon="1.39169">
        <ele>120</ele>
        <time>2025-04-18T10:07:16Z</time>
      </trkpt>
      <trkpt lat="43.66245" lon="1.39168">
        <ele>120</ele>
        <time>2025-04-18T10:07:17Z</time>
      </trkpt>
      <trkpt lat="43.66245" lon="1.39168">
        <ele>120</ele>
        <time>2025-04-18T10:07:18Z</time>
      </trkpt>
      <trkpt lat="43.66246" lon="1.39163">
        <ele>120</ele>
        <time>2025-04-18T10:07:19Z</time>
      </trkpt>
      <trkpt lat="43.66246" lon="1.3916">
        <ele>120</ele>
        <time>2025-04-18T10:07:20Z</time>
      </trkpt>
      <trkpt lat="43.66247" lon="1.39157">
        <ele>120</ele>
        <time>2025-04-18T10:07:21Z</time>
      </trkpt>
      <trkpt lat="43.66247" lon="1.39157">
        <ele>120</ele>
        <time>2025-04-18T10:07:22Z</time>
      </trkpt>
      <trkpt lat="43.66247" lon="1.39151">
        <ele>120</ele>
        <time>2025-04-18T10:07:23Z</time>
      </trkpt>
      <trkpt lat="43.66246" lon="1.39148">
        <ele>120</ele>
        <time>2025-04-18T10:07:24Z</time>
      </trkpt>
      <trkpt lat="43.66246" lon="1.39144">
        <ele>120</ele>
        <time>2025-04-18T10:07:25Z</time>
      </trkpt>
      <trkpt lat="43.66246" lon="1.39141">
        <ele>120</ele>
        <time>2025-04-18T10:07:26Z</time>
      </trkpt>
      <trkpt lat="43.66245" lon="1.39138">
        <ele>120</ele>
        <time>2025-04-18T10:07:27Z</time>
      </trkpt>
      <trkpt lat="43.66245" lon="1.39135">
        <ele>120</ele>
        <time>2025-04-18T10:07:28Z</time>
      </trkpt>
      <trkpt lat="43.66245" lon="1.39131">
        <ele>120</ele>
        <time>2025-04-18T10:07:29Z</time>
      </trkpt>
      <trkpt lat="43.66244" lon="1.39128">
        <ele>120</ele>
        <time>2025-04-18T10:07:30Z</time>
      </trkpt>
      <trkpt lat="43.66245" lon="1.39124">
        <ele>120</ele>
        <time>2025-04-18T10:07:31Z</time>
      </trkpt>
      <trkpt lat="43.66245" lon="1.39124">
        <ele>120</ele>
        <time>2025-04-18T10:07:32Z</time>
      </trkpt>
      <trkpt lat="43.66247" lon="1.39117">
        <ele>120</ele>
        <time>2025-04-18T10:07:33Z</time>
      </trkpt>
      <trkpt lat="43.66248" lon="1.39113">
        <ele>120</ele>
        <time>2025-04-18T10:07:34Z</time>
      </trkpt>
      <trkpt lat="43.66249" lon="1.3911">
        <ele>120</ele>
        <time>2025-04-18T10:07:35Z</time>
      </trkpt>
      <trkpt lat="43.66251" lon="1.39106">
        <ele>120</ele>
        <time>2025-04-18T10:07:36Z</time>
      </trkpt>
      <trkpt lat="43.66252" lon="1.39103">
        <ele>119</ele>
        <time>2025-04-18T10:07:37Z</time>
      </trkpt>
      <trkpt lat="43.66253" lon="1.391">
        <ele>119</ele>
        <time>2025-04-18T10:07:38Z</time>
      </trkpt>
      <trkpt lat="43.66253" lon="1.391">
        <ele>119</ele>
        <time>2025-04-18T10:07:39Z</time>
      </trkpt>
      <trkpt lat="43.66256" lon="1.39093">
        <ele>119</ele>
        <time>2025-04-18T10:07:40Z</time>
      </trkpt>
      <trkpt lat="43.66256" lon="1.3909">
        <ele>119</ele>
        <time>2025-04-18T10:07:41Z</time>
      </trkpt>
      <trkpt lat="43.66257" lon="1.39087">
        <ele>119</ele>
        <time>2025-04-18T10:07:42Z</time>
      </trkpt>
      <trkpt lat="43.66258" lon="1.39084">
        <ele>119</ele>
        <time>2025-04-18T10:07:43Z</time>
      </trkpt>
      <trkpt lat="43.66259" lon="1.39081">
        <ele>119</ele>
        <time>2025-04-18T10:07:44Z</time>
      </trkpt>
      <trkpt lat="43.66261" lon="1.39078">
        <ele>119</ele>
        <time>2025-04-18T10:07:45Z</time>
      </trkpt>
      <trkpt lat="43.66262" lon="1.39073">
        <ele>119</ele>
        <time>2025-04-18T10:07:46Z</time>
      </trkpt>
      <trkpt lat="43.66263" lon="1.39069">
        <ele>119</ele>
        <time>2025-04-18T10:07:47Z</time>
      </trkpt>
      <trkpt lat="43.66263" lon="1.39069">
        <ele>119</ele>
        <time>2025-04-18T10:07:48Z</time>
      </trkpt>
      <trkpt lat="43.66263" lon="1.39062">
        <ele>119</ele>
        <time>2025-04-18T10:07:49Z</time>
      </trkpt>
      <trkpt lat="43.66263" lon="1.39059">
        <ele>118</ele>
        <time>2025-04-18T10:07:50Z</time>
      </trkpt>
      <trkpt lat="43.66263" lon="1.39059">
        <ele>118</ele>
        <time>2025-04-18T10:07:51Z</time>
      </trkpt>
      <trkpt lat="43.66264" lon="1.39052">
        <ele>118</ele>
        <time>2025-04-18T10:07:52Z</time>
      </trkpt>
      <trkpt lat="43.66264" lon="1.39052">
        <ele>118</ele>
        <time>2025-04-18T10:07:53Z</time>
      </trkpt>
      <trkpt lat="43.66265" lon="1.39045">
        <ele>118</ele>
        <time>2025-04-18T10:07:54Z</time>
      </trkpt>
      <trkpt lat="43.66266" lon="1.39041">
        <ele>118</ele>
        <time>2025-04-18T10:07:55Z</time>
      </trkpt>
      <trkpt lat="43.66267" lon="1.39038">
        <ele>118</ele>
        <time>2025-04-18T10:07:56Z</time>
      </trkpt>
      <trkpt lat="43.66268" lon="1.39036">
        <ele>118</ele>
        <time>2025-04-18T10:07:57Z</time>
      </trkpt>
      <trkpt lat="43.6627" lon="1.39032">
        <ele>118</ele>
        <time>2025-04-18T10:07:58Z</time>
      </trkpt>
      <trkpt lat="43.66271" lon="1.39029">
        <ele>118</ele>
        <time>2025-04-18T10:07:59Z</time>
      </trkpt>
      <trkpt lat="43.66273" lon="1.39026">
        <ele>118</ele>
        <time>2025-04-18T10:08:00Z</time>
      </trkpt>
      <trkpt lat="43.66274" lon="1.39023">
        <ele>118</ele>
        <time>2025-04-18T10:08:01Z</time>
      </trkpt>
      <trkpt lat="43.66275" lon="1.3902">
        <ele>118</ele>
        <time>2025-04-18T10:08:02Z</time>
      </trkpt>
      <trkpt lat="43.66276" lon="1.39018">
        <ele>118</ele>
        <time>2025-04-18T10:08:03Z</time>
      </trkpt>
      <trkpt lat="43.66278" lon="1.39015">
        <ele>117</ele>
        <time>2025-04-18T10:08:04Z</time>
      </trkpt>
      <trkpt lat="43.66278" lon="1.39015">
        <ele>117</ele>
        <time>2025-04-18T10:08:05Z</time>
      </trkpt>
      <trkpt lat="43.66281" lon="1.39008">
        <ele>118</ele>
        <time>2025-04-18T10:08:06Z</time>
      </trkpt>
      <trkpt lat="43.66281" lon="1.39008">
        <ele>118</ele>
        <time>2025-04-18T10:08:07Z</time>
      </trkpt>
      <trkpt lat="43.66285" lon="1.39001">
        <ele>118</ele>
        <time>2025-04-18T10:08:08Z</time>
      </trkpt>
      <trkpt lat="43.66287" lon="1.38998">
        <ele>118</ele>
        <time>2025-04-18T10:08:09Z</time>
      </trkpt>
      <trkpt lat="43.66287" lon="1.38998">
        <ele>118</ele>
        <time>2025-04-18T10:08:10Z</time>
      </trkpt>
      <trkpt lat="43.6629" lon="1.38991">
        <ele>118</ele>
        <time>2025-04-18T10:08:11Z</time>
      </trkpt>
      <trkpt lat="43.66292" lon="1.38987">
        <ele>118</ele>
        <time>2025-04-18T10:08:12Z</time>
      </trkpt>
      <trkpt lat="43.66294" lon="1.38984">
        <ele>118</ele>
        <time>2025-04-18T10:08:13Z</time>
      </trkpt>
      <trkpt lat="43.66295" lon="1.38981">
        <ele>118</ele>
        <time>2025-04-18T10:08:14Z</time>
      </trkpt>
      <trkpt lat="43.66297" lon="1.38977">
        <ele>118</ele>
        <time>2025-04-18T10:08:15Z</time>
      </trkpt>
      <trkpt lat="43.66299" lon="1.38974">
        <ele>118</ele>
        <time>2025-04-18T10:08:16Z</time>
      </trkpt>
      <trkpt lat="43.66299" lon="1.38974">
        <ele>118</ele>
        <time>2025-04-18T10:08:17Z</time>
      </trkpt>
      <trkpt lat="43.66302" lon="1.38968">
        <ele>118</ele>
        <time>2025-04-18T10:08:18Z</time>
      </trkpt>
      <trkpt lat="43.66302" lon="1.38968">
        <ele>118</ele>
        <time>2025-04-18T10:08:19Z</time>
      </trkpt>
      <trkpt lat="43.66306" lon="1.38962">
        <ele>118</ele>
        <time>2025-04-18T10:08:20Z</time>
      </trkpt>
      <trkpt lat="43.66309" lon="1.3896">
        <ele>118</ele>
        <time>2025-04-18T10:08:21Z</time>
      </trkpt>
      <trkpt lat="43.66312" lon="1.3896">
        <ele>118</ele>
        <time>2025-04-18T10:08:22Z</time>
      </trkpt>
      <trkpt lat="43.66315" lon="1.3896">
        <ele>118</ele>
        <time>2025-04-18T10:08:23Z</time>
      </trkpt>
      <trkpt lat="43.66316" lon="1.38958">
        <ele>117</ele>
        <time>2025-04-18T10:08:24Z</time>
      </trkpt>
      <trkpt lat="43.66316" lon="1.38958">
        <ele>117</ele>
        <time>2025-04-18T10:08:25Z</time>
      </trkpt>
      <trkpt lat="43.66319" lon="1.38956">
        <ele>117</ele>
        <time>2025-04-18T10:08:26Z</time>
      </trkpt>
      <trkpt lat="43.66319" lon="1.38956">
        <ele>117</ele>
        <time>2025-04-18T10:08:27Z</time>
      </trkpt>
      <trkpt lat="43.66322" lon="1.38951">
        <ele>117</ele>
        <time>2025-04-18T10:08:28Z</time>
      </trkpt>
      <trkpt lat="43.66322" lon="1.38951">
        <ele>117</ele>
        <time>2025-04-18T10:08:29Z</time>
      </trkpt>
      <trkpt lat="43.66324" lon="1.38946">
        <ele>117</ele>
        <time>2025-04-18T10:08:30Z</time>
      </trkpt>
      <trkpt lat="43.66324" lon="1.38946">
        <ele>117</ele>
        <time>2025-04-18T10:08:31Z</time>
      </trkpt>
      <trkpt lat="43.66328" lon="1.38942">
        <ele>117</ele>
        <time>2025-04-18T10:08:32Z</time>
      </trkpt>
      <trkpt lat="43.6633" lon="1.3894">
        <ele>117</ele>
        <time>2025-04-18T10:08:33Z</time>
      </trkpt>
      <trkpt lat="43.6633" lon="1.3894">
        <ele>118</ele>
        <time>2025-04-18T10:08:34Z</time>
      </trkpt>
      <trkpt lat="43.66333" lon="1.38933">
        <ele>118</ele>
        <time>2025-04-18T10:08:35Z</time>
      </trkpt>
      <trkpt lat="43.66336" lon="1.38929">
        <ele>118</ele>
        <time>2025-04-18T10:08:36Z</time>
      </trkpt>
      <trkpt lat="43.66336" lon="1.38929">
        <ele>118</ele>
        <time>2025-04-18T10:08:37Z</time>
      </trkpt>
      <trkpt lat="43.66341" lon="1.38921">
        <ele>118</ele>
        <time>2025-04-18T10:08:38Z</time>
      </trkpt>
      <trkpt lat="43.66343" lon="1.38919">
        <ele>118</ele>
        <time>2025-04-18T10:08:39Z</time>
      </trkpt>
      <trkpt lat="43.66345" lon="1.38915">
        <ele>117</ele>
        <time>2025-04-18T10:08:40Z</time>
      </trkpt>
      <trkpt lat="43.66345" lon="1.38915">
        <ele>117</ele>
        <time>2025-04-18T10:08:41Z</time>
      </trkpt>
      <trkpt lat="43.66349" lon="1.38909">
        <ele>117</ele>
        <time>2025-04-18T10:08:42Z</time>
      </trkpt>
      <trkpt lat="43.6635" lon="1.38906">
        <ele>117</ele>
        <time>2025-04-18T10:08:43Z</time>
      </trkpt>
      <trkpt lat="43.6635" lon="1.38906">
        <ele>117</ele>
        <time>2025-04-18T10:08:44Z</time>
      </trkpt>
      <trkpt lat="43.66353" lon="1.389">
        <ele>117</ele>
        <time>2025-04-18T10:08:45Z</time>
      </trkpt>
      <trkpt lat="43.66354" lon="1.38897">
        <ele>117</ele>
        <time>2025-04-18T10:08:46Z</time>
      </trkpt>
      <trkpt lat="43.66357" lon="1.38894">
        <ele>116</ele>
        <time>2025-04-18T10:08:47Z</time>
      </trkpt>
      <trkpt lat="43.66358" lon="1.38891">
        <ele>116</ele>
        <time>2025-04-18T10:08:48Z</time>
      </trkpt>
      <trkpt lat="43.6636" lon="1.38889">
        <ele>116</ele>
        <time>2025-04-18T10:08:49Z</time>
      </trkpt>
      <trkpt lat="43.6636" lon="1.38889">
        <ele>116</ele>
        <time>2025-04-18T10:08:50Z</time>
      </trkpt>
      <trkpt lat="43.66364" lon="1.38884">
        <ele>116</ele>
        <time>2025-04-18T10:08:51Z</time>
      </trkpt>
      <trkpt lat="43.66365" lon="1.38881">
        <ele>116</ele>
        <time>2025-04-18T10:08:52Z</time>
      </trkpt>
      <trkpt lat="43.66367" lon="1.38879">
        <ele>116</ele>
        <time>2025-04-18T10:08:53Z</time>
      </trkpt>
      <trkpt lat="43.66369" lon="1.38876">
        <ele>116</ele>
        <time>2025-04-18T10:08:54Z</time>
      </trkpt>
      <trkpt lat="43.66371" lon="1.38873">
        <ele>116</ele>
        <time>2025-04-18T10:08:55Z</time>
      </trkpt>
      <trkpt lat="43.66373" lon="1.38871">
        <ele>116</ele>
        <time>2025-04-18T10:08:56Z</time>
      </trkpt>
      <trkpt lat="43.66375" lon="1.38868">
        <ele>116</ele>
        <time>2025-04-18T10:08:57Z</time>
      </trkpt>
      <trkpt lat="43.66377" lon="1.38866">
        <ele>116</ele>
        <time>2025-04-18T10:08:58Z</time>
      </trkpt>
      <trkpt lat="43.66377" lon="1.38866">
        <ele>116</ele>
        <time>2025-04-18T10:08:59Z</time>
      </trkpt>
      <trkpt lat="43.66382" lon="1.38861">
        <ele>116</ele>
        <time>2025-04-18T10:09:00Z</time>
      </trkpt>
      <trkpt lat="43.66385" lon="1.38859">
        <ele>116</ele>
        <time>2025-04-18T10:09:01Z</time>
      </trkpt>
      <trkpt lat="43.66389" lon="1.38854">
        <ele>116</ele>
        <time>2025-04-18T10:09:03Z</time>
      </trkpt>
      <trkpt lat="43.66391" lon="1.38853">
        <ele>116</ele>
        <time>2025-04-18T10:09:04Z</time>
      </trkpt>
      <trkpt lat="43.66394" lon="1.38851">
        <ele>116</ele>
        <time>2025-04-18T10:09:05Z</time>
      </trkpt>
      <trkpt lat="43.66396" lon="1.38849">
        <ele>116</ele>
        <time>2025-04-18T10:09:06Z</time>
      </trkpt>
      <trkpt lat="43.66399" lon="1.38847">
        <ele>117</ele>
        <time>2025-04-18T10:09:07Z</time>
      </trkpt>
      <trkpt lat="43.66399" lon="1.38847">
        <ele>117</ele>
        <time>2025-04-18T10:09:08Z</time>
      </trkpt>
      <trkpt lat="43.66404" lon="1.38844">
        <ele>116</ele>
        <time>2025-04-18T10:09:09Z</time>
      </trkpt>
      <trkpt lat="43.66404" lon="1.38844">
        <ele>116</ele>
        <time>2025-04-18T10:09:10Z</time>
      </trkpt>
      <trkpt lat="43.66408" lon="1.38841">
        <ele>116</ele>
        <time>2025-04-18T10:09:11Z</time>
      </trkpt>
      <trkpt lat="43.6641" lon="1.3884">
        <ele>117</ele>
        <time>2025-04-18T10:09:12Z</time>
      </trkpt>
      <trkpt lat="43.6641" lon="1.3884">
        <ele>118</ele>
        <time>2025-04-18T10:09:13Z</time>
      </trkpt>
      <trkpt lat="43.66414" lon="1.38837">
        <ele>118</ele>
        <time>2025-04-18T10:09:14Z</time>
      </trkpt>
      <trkpt lat="43.66416" lon="1.38835">
        <ele>118</ele>
        <time>2025-04-18T10:09:15Z</time>
      </trkpt>
      <trkpt lat="43.66418" lon="1.38833">
        <ele>118</ele>
        <time>2025-04-18T10:09:16Z</time>
      </trkpt>
      <trkpt lat="43.66418" lon="1.38833">
        <ele>118</ele>
        <time>2025-04-18T10:09:17Z</time>
      </trkpt>
      <trkpt lat="43.66423" lon="1.38827">
        <ele>118</ele>
        <time>2025-04-18T10:09:18Z</time>
      </trkpt>
      <trkpt lat="43.66425" lon="1.38825">
        <ele>118</ele>
        <time>2025-04-18T10:09:19Z</time>
      </trkpt>
      <trkpt lat="43.66428" lon="1.38822">
        <ele>118</ele>
        <time>2025-04-18T10:09:20Z</time>
      </trkpt>
      <trkpt lat="43.66432" lon="1.3882">
        <ele>117</ele>
        <time>2025-04-18T10:09:22Z</time>
      </trkpt>
      <trkpt lat="43.66434" lon="1.38818">
        <ele>117</ele>
        <time>2025-04-18T10:09:23Z</time>
      </trkpt>
      <trkpt lat="43.66436" lon="1.38817">
        <ele>117</ele>
        <time>2025-04-18T10:09:24Z</time>
      </trkpt>
      <trkpt lat="43.66438" lon="1.38816">
        <ele>117</ele>
        <time>2025-04-18T10:09:25Z</time>
      </trkpt>
      <trkpt lat="43.6644" lon="1.38814">
        <ele>118</ele>
        <time>2025-04-18T10:09:26Z</time>
      </trkpt>
      <trkpt lat="43.66442" lon="1.38812">
        <ele>118</ele>
        <time>2025-04-18T10:09:27Z</time>
      </trkpt>
      <trkpt lat="43.66444" lon="1.3881">
        <ele>118</ele>
        <time>2025-04-18T10:09:28Z</time>
      </trkpt>
      <trkpt lat="43.66446" lon="1.38809">
        <ele>118</ele>
        <time>2025-04-18T10:09:29Z</time>
      </trkpt>
      <trkpt lat="43.66448" lon="1.38807">
        <ele>118</ele>
        <time>2025-04-18T10:09:30Z</time>
      </trkpt>
      <trkpt lat="43.66451" lon="1.38805">
        <ele>118</ele>
        <time>2025-04-18T10:09:31Z</time>
      </trkpt>
      <trkpt lat="43.66453" lon="1.38803">
        <ele>118</ele>
        <time>2025-04-18T10:09:32Z</time>
      </trkpt>
      <trkpt lat="43.66455" lon="1.38801">
        <ele>118</ele>
        <time>2025-04-18T10:09:33Z</time>
      </trkpt>
      <trkpt lat="43.66455" lon="1.38801">
        <ele>118</ele>
        <time>2025-04-18T10:09:34Z</time>
      </trkpt>
      <trkpt lat="43.6646" lon="1.38797">
        <ele>118</ele>
        <time>2025-04-18T10:09:35Z</time>
      </trkpt>
      <trkpt lat="43.66461" lon="1.38794">
        <ele>117</ele>
        <time>2025-04-18T10:09:36Z</time>
      </trkpt>
      <trkpt lat="43.66463" lon="1.38791">
        <ele>117</ele>
        <time>2025-04-18T10:09:37Z</time>
      </trkpt>
      <trkpt lat="43.66465" lon="1.38789">
        <ele>117</ele>
        <time>2025-04-18T10:09:38Z</time>
      </trkpt>
      <trkpt lat="43.66467" lon="1.38787">
        <ele>117</ele>
        <time>2025-04-18T10:09:39Z</time>
      </trkpt>
      <trkpt lat="43.66467" lon="1.38787">
        <ele>117</ele>
        <time>2025-04-18T10:09:40Z</time>
      </trkpt>
      <trkpt lat="43.6647" lon="1.38785">
        <ele>117</ele>
        <time>2025-04-18T10:09:41Z</time>
      </trkpt>
      <trkpt lat="43.66474" lon="1.38782">
        <ele>117</ele>
        <time>2025-04-18T10:09:42Z</time>
      </trkpt>
      <trkpt lat="43.66474" lon="1.38782">
        <ele>117</ele>
        <time>2025-04-18T10:09:43Z</time>
      </trkpt>
      <trkpt lat="43.66479" lon="1.38779">
        <ele>117</ele>
        <time>2025-04-18T10:09:44Z</time>
      </trkpt>
      <trkpt lat="43.66479" lon="1.38779">
        <ele>117</ele>
        <time>2025-04-18T10:09:45Z</time>
      </trkpt>
      <trkpt lat="43.66483" lon="1.38776">
        <ele>117</ele>
        <time>2025-04-18T10:09:46Z</time>
      </trkpt>
      <trkpt lat="43.66484" lon="1.38774">
        <ele>117</ele>
        <time>2025-04-18T10:09:47Z</time>
      </trkpt>
      <trkpt lat="43.66486" lon="1.38771">
        <ele>117</ele>
        <time>2025-04-18T10:09:48Z</time>
      </trkpt>
      <trkpt lat="43.66489" lon="1.38769">
        <ele>116</ele>
        <time>2025-04-18T10:09:49Z</time>
      </trkpt>
      <trkpt lat="43.66489" lon="1.38769">
        <ele>116</ele>
        <time>2025-04-18T10:09:50Z</time>
      </trkpt>
      <trkpt lat="43.66494" lon="1.38763">
        <ele>116</ele>
        <time>2025-04-18T10:09:51Z</time>
      </trkpt>
      <trkpt lat="43.66494" lon="1.38763">
        <ele>116</ele>
        <time>2025-04-18T10:09:52Z</time>
      </trkpt>
      <trkpt lat="43.66498" lon="1.38758">
        <ele>116</ele>
        <time>2025-04-18T10:09:53Z</time>
      </trkpt>
      <trkpt lat="43.66498" lon="1.38758">
        <ele>116</ele>
        <time>2025-04-18T10:09:54Z</time>
      </trkpt>
      <trkpt lat="43.66503" lon="1.38753">
        <ele>116</ele>
        <time>2025-04-18T10:09:55Z</time>
      </trkpt>
      <trkpt lat="43.66506" lon="1.38751">
        <ele>117</ele>
        <time>2025-04-18T10:09:56Z</time>
      </trkpt>
      <trkpt lat="43.66506" lon="1.38751">
        <ele>117</ele>
        <time>2025-04-18T10:09:57Z</time>
      </trkpt>
      <trkpt lat="43.66509" lon="1.38747">
        <ele>117</ele>
        <time>2025-04-18T10:09:58Z</time>
      </trkpt>
      <trkpt lat="43.66511" lon="1.38745">
        <ele>116</ele>
        <time>2025-04-18T10:10:00Z</time>
      </trkpt>
      <trkpt lat="43.66515" lon="1.38741">
        <ele>116</ele>
        <time>2025-04-18T10:10:01Z</time>
      </trkpt>
      <trkpt lat="43.66517" lon="1.38739">
        <ele>116</ele>
        <time>2025-04-18T10:10:02Z</time>
      </trkpt>
      <trkpt lat="43.66519" lon="1.38737">
        <ele>116</ele>
        <time>2025-04-18T10:10:03Z</time>
      </trkpt>
      <trkpt lat="43.66521" lon="1.38734">
        <ele>116</ele>
        <time>2025-04-18T10:10:04Z</time>
      </trkpt>
      <trkpt lat="43.66521" lon="1.38734">
        <ele>116</ele>
        <time>2025-04-18T10:10:05Z</time>
      </trkpt>
      <trkpt lat="43.66525" lon="1.38729">
        <ele>116</ele>
        <time>2025-04-18T10:10:06Z</time>
      </trkpt>
      <trkpt lat="43.66525" lon="1.38729">
        <ele>116</ele>
        <time>2025-04-18T10:10:07Z</time>
      </trkpt>
      <trkpt lat="43.66531" lon="1.38725">
        <ele>116</ele>
        <time>2025-04-18T10:10:08Z</time>
      </trkpt>
      <trkpt lat="43.66533" lon="1.38722">
        <ele>116</ele>
        <time>2025-04-18T10:10:09Z</time>
      </trkpt>
      <trkpt lat="43.66536" lon="1.38719">
        <ele>116</ele>
        <time>2025-04-18T10:10:10Z</time>
      </trkpt>
      <trkpt lat="43.66539" lon="1.38717">
        <ele>116</ele>
        <time>2025-04-18T10:10:11Z</time>
      </trkpt>
      <trkpt lat="43.66542" lon="1.38716">
        <ele>116</ele>
        <time>2025-04-18T10:10:12Z</time>
      </trkpt>
      <trkpt lat="43.66544" lon="1.38717">
        <ele>116</ele>
        <time>2025-04-18T10:10:13Z</time>
      </trkpt>
      <trkpt lat="43.66544" lon="1.38717">
        <ele>116</ele>
        <time>2025-04-18T10:10:14Z</time>
      </trkpt>
      <trkpt lat="43.66551" lon="1.38719">
        <ele>117</ele>
        <time>2025-04-18T10:10:15Z</time>
      </trkpt>
      <trkpt lat="43.66555" lon="1.3872">
        <ele>117</ele>
        <time>2025-04-18T10:10:16Z</time>
      </trkpt>
      <trkpt lat="43.66558" lon="1.38721">
        <ele>116</ele>
        <time>2025-04-18T10:10:17Z</time>
      </trkpt>
      <trkpt lat="43.66558" lon="1.38721">
        <ele>116</ele>
        <time>2025-04-18T10:10:18Z</time>
      </trkpt>
      <trkpt lat="43.66563" lon="1.38726">
        <ele>115</ele>
        <time>2025-04-18T10:10:19Z</time>
      </trkpt>
      <trkpt lat="43.66566" lon="1.38729">
        <ele>115</ele>
        <time>2025-04-18T10:10:20Z</time>
      </trkpt>
      <trkpt lat="43.66568" lon="1.38732">
        <ele>115</ele>
        <time>2025-04-18T10:10:21Z</time>
      </trkpt>
      <trkpt lat="43.66568" lon="1.38732">
        <ele>115</ele>
        <time>2025-04-18T10:10:22Z</time>
      </trkpt>
      <trkpt lat="43.66572" lon="1.38738">
        <ele>115</ele>
        <time>2025-04-18T10:10:23Z</time>
      </trkpt>
      <trkpt lat="43.66573" lon="1.38741">
        <ele>115</ele>
        <time>2025-04-18T10:10:24Z</time>
      </trkpt>
      <trkpt lat="43.66575" lon="1.38744">
        <ele>115</ele>
        <time>2025-04-18T10:10:25Z</time>
      </trkpt>
      <trkpt lat="43.66578" lon="1.38746">
        <ele>115</ele>
        <time>2025-04-18T10:10:26Z</time>
      </trkpt>
      <trkpt lat="43.66578" lon="1.38746">
        <ele>115</ele>
        <time>2025-04-18T10:10:27Z</time>
      </trkpt>
      <trkpt lat="43.66582" lon="1.38751">
        <ele>115</ele>
        <time>2025-04-18T10:10:28Z</time>
      </trkpt>
      <trkpt lat="43.66583" lon="1.38754">
        <ele>115</ele>
        <time>2025-04-18T10:10:29Z</time>
      </trkpt>
      <trkpt lat="43.66585" lon="1.38756">
        <ele>115</ele>
        <time>2025-04-18T10:10:30Z</time>
      </trkpt>
      <trkpt lat="43.66587" lon="1.38759">
        <ele>115</ele>
        <time>2025-04-18T10:10:31Z</time>
      </trkpt>
      <trkpt lat="43.66589" lon="1.38763">
        <ele>115</ele>
        <time>2025-04-18T10:10:32Z</time>
      </trkpt>
      <trkpt lat="43.6659" lon="1.38766">
        <ele>115</ele>
        <time>2025-04-18T10:10:33Z</time>
      </trkpt>
      <trkpt lat="43.66592" lon="1.38769">
        <ele>116</ele>
        <time>2025-04-18T10:10:34Z</time>
      </trkpt>
      <trkpt lat="43.66593" lon="1.38772">
        <ele>116</ele>
        <time>2025-04-18T10:10:35Z</time>
      </trkpt>
      <trkpt lat="43.66593" lon="1.38772">
        <ele>116</ele>
        <time>2025-04-18T10:10:36Z</time>
      </trkpt>
      <trkpt lat="43.66596" lon="1.38778">
        <ele>116</ele>
        <time>2025-04-18T10:10:37Z</time>
      </trkpt>
      <trkpt lat="43.66596" lon="1.38778">
        <ele>116</ele>
        <time>2025-04-18T10:10:38Z</time>
      </trkpt>
      <trkpt lat="43.66599" lon="1.38786">
        <ele>116</ele>
        <time>2025-04-18T10:10:39Z</time>
      </trkpt>
      <trkpt lat="43.666" lon="1.38789">
        <ele>116</ele>
        <time>2025-04-18T10:10:40Z</time>
      </trkpt>
      <trkpt lat="43.66601" lon="1.38793">
        <ele>116</ele>
        <time>2025-04-18T10:10:41Z</time>
      </trkpt>
      <trkpt lat="43.66602" lon="1.38797">
        <ele>116</ele>
        <time>2025-04-18T10:10:42Z</time>
      </trkpt>
      <trkpt lat="43.66602" lon="1.38801">
        <ele>116</ele>
        <time>2025-04-18T10:10:43Z</time>
      </trkpt>
      <trkpt lat="43.66603" lon="1.38805">
        <ele>116</ele>
        <time>2025-04-18T10:10:44Z</time>
      </trkpt>
      <trkpt lat="43.66603" lon="1.38805">
        <ele>116</ele>
        <time>2025-04-18T10:10:45Z</time>
      </trkpt>
      <trkpt lat="43.66605" lon="1.38812">
        <ele>116</ele>
        <time>2025-04-18T10:10:46Z</time>
      </trkpt>
      <trkpt lat="43.66606" lon="1.38815">
        <ele>116</ele>
        <time>2025-04-18T10:10:47Z</time>
      </trkpt>
      <trkpt lat="43.66607" lon="1.38818">
        <ele>116</ele>
        <time>2025-04-18T10:10:48Z</time>
      </trkpt>
      <trkpt lat="43.66608" lon="1.38822">
        <ele>116</ele>
        <time>2025-04-18T10:10:49Z</time>
      </trkpt>
      <trkpt lat="43.66609" lon="1.38825">
        <ele>116</ele>
        <time>2025-04-18T10:10:50Z</time>
      </trkpt>
      <trkpt lat="43.6661" lon="1.38828">
        <ele>116</ele>
        <time>2025-04-18T10:10:51Z</time>
      </trkpt>
      <trkpt lat="43.66611" lon="1.38832">
        <ele>116</ele>
        <time>2025-04-18T10:10:52Z</time>
      </trkpt>
      <trkpt lat="43.66612" lon="1.38835">
        <ele>116</ele>
        <time>2025-04-18T10:10:53Z</time>
      </trkpt>
      <trkpt lat="43.66612" lon="1.38839">
        <ele>116</ele>
        <time>2025-04-18T10:10:54Z</time>
      </trkpt>
      <trkpt lat="43.66612" lon="1.38839">
        <ele>116</ele>
        <time>2025-04-18T10:10:55Z</time>
      </trkpt>
      <trkpt lat="43.66613" lon="1.38846">
        <ele>116</ele>
        <time>2025-04-18T10:10:56Z</time>
      </trkpt>
      <trkpt lat="43.66613" lon="1.3885">
        <ele>116</ele>
        <time>2025-04-18T10:10:57Z</time>
      </trkpt>
      <trkpt lat="43.66613" lon="1.38854">
        <ele>116</ele>
        <time>2025-04-18T10:10:58Z</time>
      </trkpt>
      <trkpt lat="43.66613" lon="1.38858">
        <ele>115</ele>
        <time>2025-04-18T10:10:59Z</time>
      </trkpt>
      <trkpt lat="43.66613" lon="1.38862">
        <ele>115</ele>
        <time>2025-04-18T10:11:00Z</time>
      </trkpt>
      <trkpt lat="43.66614" lon="1.38866">
        <ele>115</ele>
        <time>2025-04-18T10:11:01Z</time>
      </trkpt>
      <trkpt lat="43.66614" lon="1.3887">
        <ele>115</ele>
        <time>2025-04-18T10:11:02Z</time>
      </trkpt>
      <trkpt lat="43.66614" lon="1.38873">
        <ele>115</ele>
        <time>2025-04-18T10:11:03Z</time>
      </trkpt>
      <trkpt lat="43.66614" lon="1.38873">
        <ele>115</ele>
        <time>2025-04-18T10:11:04Z</time>
      </trkpt>
      <trkpt lat="43.66614" lon="1.38881">
        <ele>115</ele>
        <time>2025-04-18T10:11:05Z</time>
      </trkpt>
      <trkpt lat="43.66614" lon="1.38885">
        <ele>115</ele>
        <time>2025-04-18T10:11:06Z</time>
      </trkpt>
      <trkpt lat="43.66613" lon="1.38889">
        <ele>115</ele>
        <time>2025-04-18T10:11:07Z</time>
      </trkpt>
      <trkpt lat="43.66612" lon="1.38893">
        <ele>115</ele>
        <time>2025-04-18T10:11:08Z</time>
      </trkpt>
      <trkpt lat="43.66612" lon="1.38896">
        <ele>115</ele>
        <time>2025-04-18T10:11:09Z</time>
      </trkpt>
      <trkpt lat="43.66611" lon="1.389">
        <ele>115</ele>
        <time>2025-04-18T10:11:10Z</time>
      </trkpt>
      <trkpt lat="43.66611" lon="1.38904">
        <ele>115</ele>
        <time>2025-04-18T10:11:11Z</time>
      </trkpt>
      <trkpt lat="43.66611" lon="1.38907">
        <ele>115</ele>
        <time>2025-04-18T10:11:12Z</time>
      </trkpt>
      <trkpt lat="43.6661" lon="1.38911">
        <ele>115</ele>
        <time>2025-04-18T10:11:13Z</time>
      </trkpt>
      <trkpt lat="43.6661" lon="1.38914">
        <ele>116</ele>
        <time>2025-04-18T10:11:14Z</time>
      </trkpt>
      <trkpt lat="43.6661" lon="1.38918">
        <ele>116</ele>
        <time>2025-04-18T10:11:15Z</time>
      </trkpt>
      <trkpt lat="43.6661" lon="1.38922">
        <ele>116</ele>
        <time>2025-04-18T10:11:16Z</time>
      </trkpt>
      <trkpt lat="43.6661" lon="1.38925">
        <ele>116</ele>
        <time>2025-04-18T10:11:17Z</time>
      </trkpt>
      <trkpt lat="43.6661" lon="1.38928">
        <ele>116</ele>
        <time>2025-04-18T10:11:18Z</time>
      </trkpt>
      <trkpt lat="43.6661" lon="1.38932">
        <ele>116</ele>
        <time>2025-04-18T10:11:19Z</time>
      </trkpt>
      <trkpt lat="43.6661" lon="1.38935">
        <ele>116</ele>
        <time>2025-04-18T10:11:20Z</time>
      </trkpt>
      <trkpt lat="43.6661" lon="1.38938">
        <ele>116</ele>
        <time>2025-04-18T10:11:21Z</time>
      </trkpt>
      <trkpt lat="43.6661" lon="1.38941">
        <ele>116</ele>
        <time>2025-04-18T10:11:22Z</time>
      </trkpt>
      <trkpt lat="43.6661" lon="1.38941">
        <ele>116</ele>
        <time>2025-04-18T10:11:23Z</time>
      </trkpt>
      <trkpt lat="43.6661" lon="1.38947">
        <ele>116</ele>
        <time>2025-04-18T10:11:24Z</time>
      </trkpt>
      <trkpt lat="43.6661" lon="1.38947">
        <ele>116</ele>
        <time>2025-04-18T10:11:25Z</time>
      </trkpt>
      <trkpt lat="43.66611" lon="1.38954">
        <ele>116</ele>
        <time>2025-04-18T10:11:26Z</time>
      </trkpt>
      <trkpt lat="43.66611" lon="1.38958">
        <ele>116</ele>
        <time>2025-04-18T10:11:27Z</time>
      </trkpt>
      <trkpt lat="43.66611" lon="1.38958">
        <ele>116</ele>
        <time>2025-04-18T10:11:28Z</time>
      </trkpt>
      <trkpt lat="43.6661" lon="1.38965">
        <ele>116</ele>
        <time>2025-04-18T10:11:29Z</time>
      </trkpt>
      <trkpt lat="43.66609" lon="1.38969">
        <ele>116</ele>
        <time>2025-04-18T10:11:30Z</time>
      </trkpt>
      <trkpt lat="43.66609" lon="1.38969">
        <ele>116</ele>
        <time>2025-04-18T10:11:31Z</time>
      </trkpt>
      <trkpt lat="43.66609" lon="1.38976">
        <ele>116</ele>
        <time>2025-04-18T10:11:32Z</time>
      </trkpt>
      <trkpt lat="43.66608" lon="1.3898">
        <ele>116</ele>
        <time>2025-04-18T10:11:33Z</time>
      </trkpt>
      <trkpt lat="43.66608" lon="1.38984">
        <ele>116</ele>
        <time>2025-04-18T10:11:34Z</time>
      </trkpt>
      <trkpt lat="43.66608" lon="1.38988">
        <ele>116</ele>
        <time>2025-04-18T10:11:35Z</time>
      </trkpt>
      <trkpt lat="43.66608" lon="1.38992">
        <ele>116</ele>
        <time>2025-04-18T10:11:36Z</time>
      </trkpt>
      <trkpt lat="43.66607" lon="1.38996">
        <ele>116</ele>
        <time>2025-04-18T10:11:37Z</time>
      </trkpt>
      <trkpt lat="43.66606" lon="1.39">
        <ele>116</ele>
        <time>2025-04-18T10:11:38Z</time>
      </trkpt>
      <trkpt lat="43.66605" lon="1.39004">
        <ele>116</ele>
        <time>2025-04-18T10:11:39Z</time>
      </trkpt>
      <trkpt lat="43.66604" lon="1.39008">
        <ele>116</ele>
        <time>2025-04-18T10:11:40Z</time>
      </trkpt>
      <trkpt lat="43.66604" lon="1.39012">
        <ele>116</ele>
        <time>2025-04-18T10:11:41Z</time>
      </trkpt>
      <trkpt lat="43.66603" lon="1.39016">
        <ele>116</ele>
        <time>2025-04-18T10:11:42Z</time>
      </trkpt>
      <trkpt lat="43.66602" lon="1.39021">
        <ele>116</ele>
        <time>2025-04-18T10:11:43Z</time>
      </trkpt>
      <trkpt lat="43.66601" lon="1.39025">
        <ele>116</ele>
        <time>2025-04-18T10:11:44Z</time>
      </trkpt>
      <trkpt lat="43.66601" lon="1.39029">
        <ele>116</ele>
        <time>2025-04-18T10:11:45Z</time>
      </trkpt>
      <trkpt lat="43.666" lon="1.39033">
        <ele>116</ele>
        <time>2025-04-18T10:11:46Z</time>
      </trkpt>
      <trkpt lat="43.666" lon="1.39033">
        <ele>116</ele>
        <time>2025-04-18T10:11:47Z</time>
      </trkpt>
      <trkpt lat="43.66599" lon="1.39041">
        <ele>117</ele>
        <time>2025-04-18T10:11:48Z</time>
      </trkpt>
      <trkpt lat="43.66599" lon="1.39041">
        <ele>117</ele>
        <time>2025-04-18T10:11:49Z</time>
      </trkpt>
      <trkpt lat="43.66597" lon="1.39049">
        <ele>117</ele>
        <time>2025-04-18T10:11:50Z</time>
      </trkpt>
      <trkpt lat="43.66597" lon="1.39049">
        <ele>117</ele>
        <time>2025-04-18T10:11:51Z</time>
      </trkpt>
      <trkpt lat="43.66595" lon="1.39056">
        <ele>117</ele>
        <time>2025-04-18T10:11:52Z</time>
      </trkpt>
      <trkpt lat="43.66594" lon="1.3906">
        <ele>117</ele>
        <time>2025-04-18T10:11:53Z</time>
      </trkpt>
      <trkpt lat="43.66593" lon="1.39064">
        <ele>117</ele>
        <time>2025-04-18T10:11:54Z</time>
      </trkpt>
      <trkpt lat="43.66591" lon="1.39067">
        <ele>117</ele>
        <time>2025-04-18T10:11:55Z</time>
      </trkpt>
      <trkpt lat="43.6659" lon="1.39071">
        <ele>117</ele>
        <time>2025-04-18T10:11:56Z</time>
      </trkpt>
      <trkpt lat="43.66589" lon="1.39074">
        <ele>117</ele>
        <time>2025-04-18T10:11:57Z</time>
      </trkpt>
      <trkpt lat="43.66588" lon="1.39077">
        <ele>117</ele>
        <time>2025-04-18T10:11:58Z</time>
      </trkpt>
      <trkpt lat="43.66588" lon="1.3908">
        <ele>117</ele>
        <time>2025-04-18T10:11:59Z</time>
      </trkpt>
      <trkpt lat="43.66588" lon="1.39083">
        <ele>117</ele>
        <time>2025-04-18T10:12:00Z</time>
      </trkpt>
      <trkpt lat="43.66588" lon="1.39083">
        <ele>117</ele>
        <time>2025-04-18T10:12:01Z</time>
      </trkpt>
      <trkpt lat="43.66586" lon="1.3909">
        <ele>117</ele>
        <time>2025-04-18T10:12:02Z</time>
      </trkpt>
      <trkpt lat="43.66586" lon="1.3909">
        <ele>117</ele>
        <time>2025-04-18T10:12:03Z</time>
      </trkpt>
      <trkpt lat="43.66586" lon="1.39097">
        <ele>117</ele>
        <time>2025-04-18T10:12:04Z</time>
      </trkpt>
      <trkpt lat="43.66586" lon="1.39097">
        <ele>117</ele>
        <time>2025-04-18T10:12:05Z</time>
      </trkpt>
      <trkpt lat="43.66585" lon="1.39104">
        <ele>117</ele>
        <time>2025-04-18T10:12:06Z</time>
      </trkpt>
      <trkpt lat="43.66584" lon="1.39107">
        <ele>117</ele>
        <time>2025-04-18T10:12:07Z</time>
      </trkpt>
      <trkpt lat="43.66584" lon="1.39111">
        <ele>117</ele>
        <time>2025-04-18T10:12:08Z</time>
      </trkpt>
      <trkpt lat="43.66584" lon="1.39114">
        <ele>117</ele>
        <time>2025-04-18T10:12:09Z</time>
      </trkpt>
      <trkpt lat="43.66584" lon="1.39114">
        <ele>118</ele>
        <time>2025-04-18T10:12:10Z</time>
      </trkpt>
      <trkpt lat="43.66584" lon="1.39121">
        <ele>118</ele>
        <time>2025-04-18T10:12:11Z</time>
      </trkpt>
      <trkpt lat="43.66583" lon="1.39125">
        <ele>118</ele>
        <time>2025-04-18T10:12:12Z</time>
      </trkpt>
      <trkpt lat="43.66583" lon="1.39125">
        <ele>118</ele>
        <time>2025-04-18T10:12:13Z</time>
      </trkpt>
      <trkpt lat="43.66581" lon="1.39132">
        <ele>118</ele>
        <time>2025-04-18T10:12:14Z</time>
      </trkpt>
      <trkpt lat="43.66581" lon="1.39136">
        <ele>117</ele>
        <time>2025-04-18T10:12:15Z</time>
      </trkpt>
      <trkpt lat="43.6658" lon="1.3914">
        <ele>117</ele>
        <time>2025-04-18T10:12:16Z</time>
      </trkpt>
      <trkpt lat="43.66579" lon="1.39143">
        <ele>117</ele>
        <time>2025-04-18T10:12:17Z</time>
      </trkpt>
      <trkpt lat="43.66579" lon="1.39143">
        <ele>117</ele>
        <time>2025-04-18T10:12:18Z</time>
      </trkpt>
      <trkpt lat="43.66577" lon="1.39151">
        <ele>117</ele>
        <time>2025-04-18T10:12:19Z</time>
      </trkpt>
      <trkpt lat="43.66577" lon="1.39151">
        <ele>117</ele>
        <time>2025-04-18T10:12:20Z</time>
      </trkpt>
      <trkpt lat="43.66577" lon="1.39158">
        <ele>117</ele>
        <time>2025-04-18T10:12:21Z</time>
      </trkpt>
      <trkpt lat="43.66577" lon="1.39158">
        <ele>117</ele>
        <time>2025-04-18T10:12:22Z</time>
      </trkpt>
      <trkpt lat="43.66575" lon="1.39166">
        <ele>116</ele>
        <time>2025-04-18T10:12:23Z</time>
      </trkpt>
      <trkpt lat="43.66574" lon="1.39169">
        <ele>116</ele>
        <time>2025-04-18T10:12:24Z</time>
      </trkpt>
      <trkpt lat="43.66574" lon="1.39169">
        <ele>116</ele>
        <time>2025-04-18T10:12:25Z</time>
      </trkpt>
      <trkpt lat="43.66572" lon="1.39177">
        <ele>117</ele>
        <time>2025-04-18T10:12:26Z</time>
      </trkpt>
      <trkpt lat="43.66572" lon="1.39177">
        <ele>117</ele>
        <time>2025-04-18T10:12:27Z</time>
      </trkpt>
      <trkpt lat="43.66572" lon="1.39185">
        <ele>117</ele>
        <time>2025-04-18T10:12:28Z</time>
      </trkpt>
      <trkpt lat="43.66571" lon="1.39189">
        <ele>117</ele>
        <time>2025-04-18T10:12:29Z</time>
      </trkpt>
      <trkpt lat="43.66571" lon="1.39189">
        <ele>117</ele>
        <time>2025-04-18T10:12:30Z</time>
      </trkpt>
      <trkpt lat="43.6657" lon="1.39196">
        <ele>117</ele>
        <time>2025-04-18T10:12:31Z</time>
      </trkpt>
      <trkpt lat="43.6657" lon="1.39196">
        <ele>117</ele>
        <time>2025-04-18T10:12:32Z</time>
      </trkpt>
      <trkpt lat="43.66569" lon="1.39204">
        <ele>117</ele>
        <time>2025-04-18T10:12:33Z</time>
      </trkpt>
      <trkpt lat="43.66569" lon="1.39204">
        <ele>117</ele>
        <time>2025-04-18T10:12:34Z</time>
      </trkpt>
      <trkpt lat="43.66565" lon="1.39212">
        <ele>117</ele>
        <time>2025-04-18T10:12:35Z</time>
      </trkpt>
      <trkpt lat="43.66563" lon="1.39216">
        <ele>117</ele>
        <time>2025-04-18T10:12:36Z</time>
      </trkpt>
      <trkpt lat="43.66561" lon="1.39219">
        <ele>117</ele>
        <time>2025-04-18T10:12:37Z</time>
      </trkpt>
      <trkpt lat="43.6656" lon="1.39223">
        <ele>117</ele>
        <time>2025-04-18T10:12:38Z</time>
      </trkpt>
      <trkpt lat="43.6656" lon="1.39223">
        <ele>117</ele>
        <time>2025-04-18T10:12:39Z</time>
      </trkpt>
      <trkpt lat="43.66556" lon="1.39229">
        <ele>116</ele>
        <time>2025-04-18T10:12:40Z</time>
      </trkpt>
      <trkpt lat="43.66554" lon="1.39233">
        <ele>116</ele>
        <time>2025-04-18T10:12:41Z</time>
      </trkpt>
      <trkpt lat="43.66554" lon="1.39233">
        <ele>116</ele>
        <time>2025-04-18T10:12:42Z</time>
      </trkpt>
      <trkpt lat="43.66551" lon="1.39239">
        <ele>116</ele>
        <time>2025-04-18T10:12:43Z</time>
      </trkpt>
      <trkpt lat="43.66551" lon="1.39239">
        <ele>116</ele>
        <time>2025-04-18T10:12:44Z</time>
      </trkpt>
      <trkpt lat="43.66549" lon="1.39245">
        <ele>116</ele>
        <time>2025-04-18T10:12:45Z</time>
      </trkpt>
      <trkpt lat="43.66548" lon="1.39248">
        <ele>116</ele>
        <time>2025-04-18T10:12:46Z</time>
      </trkpt>
      <trkpt lat="43.66546" lon="1.39251">
        <ele>116</ele>
        <time>2025-04-18T10:12:47Z</time>
      </trkpt>
      <trkpt lat="43.66544" lon="1.39254">
        <ele>116</ele>
        <time>2025-04-18T10:12:48Z</time>
      </trkpt>
      <trkpt lat="43.66544" lon="1.39254">
        <ele>116</ele>
        <time>2025-04-18T10:12:49Z</time>
      </trkpt>
      <trkpt lat="43.66541" lon="1.39259">
        <ele>116</ele>
        <time>2025-04-18T10:12:50Z</time>
      </trkpt>
      <trkpt lat="43.66541" lon="1.39259">
        <ele>116</ele>
        <time>2025-04-18T10:12:51Z</time>
      </trkpt>
      <trkpt lat="43.66536" lon="1.39263">
        <ele>116</ele>
        <time>2025-04-18T10:12:52Z</time>
      </trkpt>
      <trkpt lat="43.66534" lon="1.39264">
        <ele>116</ele>
        <time>2025-04-18T10:12:53Z</time>
      </trkpt>
      <trkpt lat="43.66531" lon="1.39265">
        <ele>116</ele>
        <time>2025-04-18T10:12:54Z</time>
      </trkpt>
      <trkpt lat="43.66528" lon="1.39266">
        <ele>116</ele>
        <time>2025-04-18T10:12:55Z</time>
      </trkpt>
      <trkpt lat="43.66525" lon="1.39267">
        <ele>116</ele>
        <time>2025-04-18T10:12:56Z</time>
      </trkpt>
      <trkpt lat="43.66523" lon="1.39269">
        <ele>116</ele>
        <time>2025-04-18T10:12:57Z</time>
      </trkpt>
      <trkpt lat="43.66523" lon="1.39269">
        <ele>116</ele>
        <time>2025-04-18T10:12:58Z</time>
      </trkpt>
      <trkpt lat="43.66518" lon="1.39275">
        <ele>117</ele>
        <time>2025-04-18T10:12:59Z</time>
      </trkpt>
      <trkpt lat="43.66517" lon="1.39278">
        <ele>117</ele>
        <time>2025-04-18T10:13:00Z</time>
      </trkpt>
      <trkpt lat="43.66516" lon="1.39281">
        <ele>117</ele>
        <time>2025-04-18T10:13:01Z</time>
      </trkpt>
      <trkpt lat="43.66514" lon="1.39284">
        <ele>116</ele>
        <time>2025-04-18T10:13:02Z</time>
      </trkpt>
      <trkpt lat="43.66513" lon="1.39287">
        <ele>116</ele>
        <time>2025-04-18T10:13:03Z</time>
      </trkpt>
      <trkpt lat="43.66512" lon="1.3929">
        <ele>116</ele>
        <time>2025-04-18T10:13:04Z</time>
      </trkpt>
      <trkpt lat="43.66512" lon="1.3929">
        <ele>116</ele>
        <time>2025-04-18T10:13:05Z</time>
      </trkpt>
      <trkpt lat="43.66509" lon="1.39296">
        <ele>116</ele>
        <time>2025-04-18T10:13:06Z</time>
      </trkpt>
      <trkpt lat="43.66507" lon="1.39299">
        <ele>116</ele>
        <time>2025-04-18T10:13:07Z</time>
      </trkpt>
      <trkpt lat="43.66505" lon="1.39301">
        <ele>116</ele>
        <time>2025-04-18T10:13:08Z</time>
      </trkpt>
      <trkpt lat="43.66503" lon="1.39304">
        <ele>116</ele>
        <time>2025-04-18T10:13:09Z</time>
      </trkpt>
      <trkpt lat="43.66501" lon="1.39308">
        <ele>116</ele>
        <time>2025-04-18T10:13:10Z</time>
      </trkpt>
      <trkpt lat="43.66499" lon="1.3931">
        <ele>116</ele>
        <time>2025-04-18T10:13:11Z</time>
      </trkpt>
      <trkpt lat="43.66497" lon="1.39312">
        <ele>116</ele>
        <time>2025-04-18T10:13:12Z</time>
      </trkpt>
      <trkpt lat="43.66496" lon="1.39314">
        <ele>115</ele>
        <time>2025-04-18T10:13:13Z</time>
      </trkpt>
      <trkpt lat="43.66493" lon="1.39315">
        <ele>116</ele>
        <time>2025-04-18T10:13:14Z</time>
      </trkpt>
      <trkpt lat="43.66491" lon="1.39317">
        <ele>117</ele>
        <time>2025-04-18T10:13:15Z</time>
      </trkpt>
      <trkpt lat="43.66489" lon="1.39319">
        <ele>117</ele>
        <time>2025-04-18T10:13:16Z</time>
      </trkpt>
      <trkpt lat="43.66489" lon="1.39319">
        <ele>117</ele>
        <time>2025-04-18T10:13:17Z</time>
      </trkpt>
      <trkpt lat="43.66485" lon="1.39321">
        <ele>117</ele>
        <time>2025-04-18T10:13:18Z</time>
      </trkpt>
      <trkpt lat="43.66485" lon="1.39321">
        <ele>117</ele>
        <time>2025-04-18T10:13:19Z</time>
      </trkpt>
      <trkpt lat="43.6648" lon="1.39323">
        <ele>117</ele>
        <time>2025-04-18T10:13:20Z</time>
      </trkpt>
      <trkpt lat="43.6648" lon="1.39323">
        <ele>117</ele>
        <time>2025-04-18T10:13:21Z</time>
      </trkpt>
      <trkpt lat="43.66475" lon="1.39326">
        <ele>117</ele>
        <time>2025-04-18T10:13:22Z</time>
      </trkpt>
      <trkpt lat="43.66475" lon="1.39326">
        <ele>117</ele>
        <time>2025-04-18T10:13:23Z</time>
      </trkpt>
      <trkpt lat="43.6647" lon="1.39327">
        <ele>117</ele>
        <time>2025-04-18T10:13:24Z</time>
      </trkpt>
      <trkpt lat="43.66468" lon="1.39327">
        <ele>117</ele>
        <time>2025-04-18T10:13:25Z</time>
      </trkpt>
      <trkpt lat="43.66468" lon="1.39327">
        <ele>117</ele>
        <time>2025-04-18T10:13:26Z</time>
      </trkpt>
      <trkpt lat="43.66463" lon="1.39328">
        <ele>117</ele>
        <time>2025-04-18T10:13:27Z</time>
      </trkpt>
      <trkpt lat="43.6646" lon="1.39328">
        <ele>117</ele>
        <time>2025-04-18T10:13:28Z</time>
      </trkpt>
      <trkpt lat="43.6646" lon="1.39328">
        <ele>117</ele>
        <time>2025-04-18T10:13:29Z</time>
      </trkpt>
      <trkpt lat="43.66454" lon="1.39328">
        <ele>117</ele>
        <time>2025-04-18T10:13:30Z</time>
      </trkpt>
      <trkpt lat="43.66451" lon="1.39328">
        <ele>117</ele>
        <time>2025-04-18T10:13:31Z</time>
      </trkpt>
      <trkpt lat="43.66448" lon="1.39329">
        <ele>117</ele>
        <time>2025-04-18T10:13:32Z</time>
      </trkpt>
      <trkpt lat="43.66445" lon="1.39329">
        <ele>117</ele>
        <time>2025-04-18T10:13:33Z</time>
      </trkpt>
      <trkpt lat="43.66442" lon="1.39329">
        <ele>117</ele>
        <time>2025-04-18T10:13:34Z</time>
      </trkpt>
      <trkpt lat="43.66439" lon="1.3933">
        <ele>117</ele>
        <time>2025-04-18T10:13:35Z</time>
      </trkpt>
      <trkpt lat="43.66436" lon="1.3933">
        <ele>117</ele>
        <time>2025-04-18T10:13:36Z</time>
      </trkpt>
      <trkpt lat="43.66432" lon="1.39331">
        <ele>117</ele>
        <time>2025-04-18T10:13:37Z</time>
      </trkpt>
      <trkpt lat="43.66429" lon="1.3933">
        <ele>117</ele>
        <time>2025-04-18T10:13:38Z</time>
      </trkpt>
      <trkpt lat="43.66427" lon="1.3933">
        <ele>117</ele>
        <time>2025-04-18T10:13:39Z</time>
      </trkpt>
      <trkpt lat="43.66427" lon="1.3933">
        <ele>117</ele>
        <time>2025-04-18T10:13:40Z</time>
      </trkpt>
      <trkpt lat="43.66422" lon="1.39329">
        <ele>117</ele>
        <time>2025-04-18T10:13:41Z</time>
      </trkpt>
      <trkpt lat="43.66419" lon="1.39327">
        <ele>117</ele>
        <time>2025-04-18T10:13:42Z</time>
      </trkpt>
      <trkpt lat="43.66417" lon="1.39326">
        <ele>117</ele>
        <time>2025-04-18T10:13:43Z</time>
      </trkpt>
      <trkpt lat="43.66415" lon="1.39325">
        <ele>117</ele>
        <time>2025-04-18T10:13:44Z</time>
      </trkpt>
      <trkpt lat="43.66412" lon="1.39324">
        <ele>117</ele>
        <time>2025-04-18T10:13:45Z</time>
      </trkpt>
      <trkpt lat="43.66409" lon="1.39322">
        <ele>117</ele>
        <time>2025-04-18T10:13:46Z</time>
      </trkpt>
      <trkpt lat="43.66406" lon="1.3932">
        <ele>117</ele>
        <time>2025-04-18T10:13:47Z</time>
      </trkpt>
      <trkpt lat="43.66406" lon="1.3932">
        <ele>117</ele>
        <time>2025-04-18T10:13:48Z</time>
      </trkpt>
      <trkpt lat="43.66402" lon="1.39317">
        <ele>117</ele>
        <time>2025-04-18T10:13:49Z</time>
      </trkpt>
      <trkpt lat="43.664" lon="1.39315">
        <ele>117</ele>
        <time>2025-04-18T10:13:50Z</time>
      </trkpt>
      <trkpt lat="43.66398" lon="1.39313">
        <ele>117</ele>
        <time>2025-04-18T10:13:51Z</time>
      </trkpt>
      <trkpt lat="43.66396" lon="1.39311">
        <ele>117</ele>
        <time>2025-04-18T10:13:52Z</time>
      </trkpt>
      <trkpt lat="43.66393" lon="1.39309">
        <ele>116</ele>
        <time>2025-04-18T10:13:53Z</time>
      </trkpt>
      <trkpt lat="43.6639" lon="1.39308">
        <ele>116</ele>
        <time>2025-04-18T10:13:54Z</time>
      </trkpt>
      <trkpt lat="43.66388" lon="1.39306">
        <ele>116</ele>
        <time>2025-04-18T10:13:55Z</time>
      </trkpt>
      <trkpt lat="43.66388" lon="1.39306">
        <ele>116</ele>
        <time>2025-04-18T10:13:56Z</time>
      </trkpt>
      <trkpt lat="43.66384" lon="1.39303">
        <ele>116</ele>
        <time>2025-04-18T10:13:57Z</time>
      </trkpt>
      <trkpt lat="43.66382" lon="1.39301">
        <ele>117</ele>
        <time>2025-04-18T10:13:58Z</time>
      </trkpt>
      <trkpt lat="43.6638" lon="1.39298">
        <ele>117</ele>
        <time>2025-04-18T10:13:59Z</time>
      </trkpt>
      <trkpt lat="43.66378" lon="1.39296">
        <ele>116</ele>
        <time>2025-04-18T10:14:00Z</time>
      </trkpt>
      <trkpt lat="43.66378" lon="1.39296">
        <ele>116</ele>
        <time>2025-04-18T10:14:01Z</time>
      </trkpt>
      <trkpt lat="43.66372" lon="1.39293">
        <ele>116</ele>
        <time>2025-04-18T10:14:02Z</time>
      </trkpt>
      <trkpt lat="43.6637" lon="1.39291">
        <ele>116</ele>
        <time>2025-04-18T10:14:03Z</time>
      </trkpt>
      <trkpt lat="43.66366" lon="1.3929">
        <ele>116</ele>
        <time>2025-04-18T10:14:04Z</time>
      </trkpt>
      <trkpt lat="43.66366" lon="1.3929">
        <ele>116</ele>
        <time>2025-04-18T10:14:05Z</time>
      </trkpt>
      <trkpt lat="43.66363" lon="1.39289">
        <ele>116</ele>
        <time>2025-04-18T10:14:06Z</time>
      </trkpt>
      <trkpt lat="43.66358" lon="1.39288">
        <ele>117</ele>
        <time>2025-04-18T10:14:07Z</time>
      </trkpt>
      <trkpt lat="43.66356" lon="1.39288">
        <ele>117</ele>
        <time>2025-04-18T10:14:08Z</time>
      </trkpt>
      <trkpt lat="43.66354" lon="1.39289">
        <ele>117</ele>
        <time>2025-04-18T10:14:09Z</time>
      </trkpt>
      <trkpt lat="43.66354" lon="1.39289">
        <ele>117</ele>
        <time>2025-04-18T10:14:10Z</time>
      </trkpt>
      <trkpt lat="43.6635" lon="1.39292">
        <ele>117</ele>
        <time>2025-04-18T10:14:11Z</time>
      </trkpt>
      <trkpt lat="43.6635" lon="1.39292">
        <ele>116</ele>
        <time>2025-04-18T10:14:12Z</time>
      </trkpt>
      <trkpt lat="43.66346" lon="1.39295">
        <ele>116</ele>
        <time>2025-04-18T10:14:13Z</time>
      </trkpt>
      <trkpt lat="43.66344" lon="1.39296">
        <ele>116</ele>
        <time>2025-04-18T10:14:14Z</time>
      </trkpt>
      <trkpt lat="43.66341" lon="1.39297">
        <ele>116</ele>
        <time>2025-04-18T10:14:15Z</time>
      </trkpt>
      <trkpt lat="43.66338" lon="1.39298">
        <ele>116</ele>
        <time>2025-04-18T10:14:16Z</time>
      </trkpt>
      <trkpt lat="43.66336" lon="1.39299">
        <ele>116</ele>
        <time>2025-04-18T10:14:17Z</time>
      </trkpt>
      <trkpt lat="43.66334" lon="1.393">
        <ele>116</ele>
        <time>2025-04-18T10:14:18Z</time>
      </trkpt>
      <trkpt lat="43.66334" lon="1.393">
        <ele>116</ele>
        <time>2025-04-18T10:14:19Z</time>
      </trkpt>
      <trkpt lat="43.66327" lon="1.39301">
        <ele>116</ele>
        <time>2025-04-18T10:14:20Z</time>
      </trkpt>
      <trkpt lat="43.66325" lon="1.39301">
        <ele>117</ele>
        <time>2025-04-18T10:14:21Z</time>
      </trkpt>
      <trkpt lat="43.66323" lon="1.393">
        <ele>117</ele>
        <time>2025-04-18T10:14:22Z</time>
      </trkpt>
      <trkpt lat="43.66319" lon="1.39298">
        <ele>116</ele>
        <time>2025-04-18T10:14:23Z</time>
      </trkpt>
      <trkpt lat="43.66316" lon="1.39296">
        <ele>117</ele>
        <time>2025-04-18T10:14:24Z</time>
      </trkpt>
      <trkpt lat="43.66312" lon="1.39294">
        <ele>117</ele>
        <time>2025-04-18T10:14:25Z</time>
      </trkpt>
      <trkpt lat="43.66309" lon="1.39291">
        <ele>117</ele>
        <time>2025-04-18T10:14:26Z</time>
      </trkpt>
      <trkpt lat="43.66306" lon="1.39289">
        <ele>117</ele>
        <time>2025-04-18T10:14:27Z</time>
      </trkpt>
      <trkpt lat="43.66304" lon="1.39287">
        <ele>117</ele>
        <time>2025-04-18T10:14:28Z</time>
      </trkpt>
      <trkpt lat="43.66301" lon="1.39284">
        <ele>117</ele>
        <time>2025-04-18T10:14:29Z</time>
      </trkpt>
      <trkpt lat="43.66299" lon="1.39281">
        <ele>117</ele>
        <time>2025-04-18T10:14:30Z</time>
      </trkpt>
      <trkpt lat="43.66297" lon="1.39278">
        <ele>117</ele>
        <time>2025-04-18T10:14:31Z</time>
      </trkpt>
      <trkpt lat="43.66294" lon="1.39275">
        <ele>117</ele>
        <time>2025-04-18T10:14:32Z</time>
      </trkpt>
      <trkpt lat="43.66292" lon="1.39272">
        <ele>117</ele>
        <time>2025-04-18T10:14:33Z</time>
      </trkpt>
      <trkpt lat="43.6629" lon="1.39269">
        <ele>117</ele>
        <time>2025-04-18T10:14:34Z</time>
      </trkpt>
      <trkpt lat="43.66289" lon="1.39266">
        <ele>117</ele>
        <time>2025-04-18T10:14:35Z</time>
      </trkpt>
      <trkpt lat="43.66287" lon="1.39263">
        <ele>117</ele>
        <time>2025-04-18T10:14:36Z</time>
      </trkpt>
      <trkpt lat="43.66286" lon="1.39261">
        <ele>117</ele>
        <time>2025-04-18T10:14:37Z</time>
      </trkpt>
      <trkpt lat="43.66285" lon="1.39258">
        <ele>118</ele>
        <time>2025-04-18T10:14:38Z</time>
      </trkpt>
      <trkpt lat="43.66284" lon="1.39255">
        <ele>118</ele>
        <time>2025-04-18T10:14:39Z</time>
      </trkpt>
      <trkpt lat="43.66283" lon="1.39252">
        <ele>118</ele>
        <time>2025-04-18T10:14:40Z</time>
      </trkpt>
      <trkpt lat="43.66283" lon="1.39252">
        <ele>118</ele>
        <time>2025-04-18T10:14:41Z</time>
      </trkpt>
      <trkpt lat="43.66282" lon="1.39245">
        <ele>118</ele>
        <time>2025-04-18T10:14:42Z</time>
      </trkpt>
      <trkpt lat="43.66281" lon="1.39242">
        <ele>118</ele>
        <time>2025-04-18T10:14:43Z</time>
      </trkpt>
      <trkpt lat="43.66281" lon="1.39242">
        <ele>118</ele>
        <time>2025-04-18T10:14:44Z</time>
      </trkpt>
      <trkpt lat="43.6628" lon="1.39234">
        <ele>118</ele>
        <time>2025-04-18T10:14:45Z</time>
      </trkpt>
      <trkpt lat="43.66278" lon="1.39231">
        <ele>118</ele>
        <time>2025-04-18T10:14:46Z</time>
      </trkpt>
      <trkpt lat="43.66278" lon="1.39227">
        <ele>118</ele>
        <time>2025-04-18T10:14:47Z</time>
      </trkpt>
      <trkpt lat="43.66276" lon="1.39224">
        <ele>117</ele>
        <time>2025-04-18T10:14:48Z</time>
      </trkpt>
      <trkpt lat="43.66275" lon="1.39221">
        <ele>117</ele>
        <time>2025-04-18T10:14:49Z</time>
      </trkpt>
      <trkpt lat="43.66274" lon="1.39218">
        <ele>117</ele>
        <time>2025-04-18T10:14:50Z</time>
      </trkpt>
      <trkpt lat="43.66273" lon="1.39215">
        <ele>117</ele>
        <time>2025-04-18T10:14:51Z</time>
      </trkpt>
      <trkpt lat="43.66273" lon="1.39215">
        <ele>117</ele>
        <time>2025-04-18T10:14:52Z</time>
      </trkpt>
      <trkpt lat="43.66272" lon="1.39208">
        <ele>117</ele>
        <time>2025-04-18T10:14:53Z</time>
      </trkpt>
      <trkpt lat="43.66272" lon="1.39208">
        <ele>117</ele>
        <time>2025-04-18T10:14:54Z</time>
      </trkpt>
      <trkpt lat="43.66272" lon="1.392">
        <ele>117</ele>
        <time>2025-04-18T10:14:55Z</time>
      </trkpt>
      <trkpt lat="43.66271" lon="1.39196">
        <ele>117</ele>
        <time>2025-04-18T10:14:56Z</time>
      </trkpt>
      <trkpt lat="43.6627" lon="1.39192">
        <ele>117</ele>
        <time>2025-04-18T10:14:57Z</time>
      </trkpt>
      <trkpt lat="43.66268" lon="1.39188">
        <ele>117</ele>
        <time>2025-04-18T10:14:58Z</time>
      </trkpt>
      <trkpt lat="43.66265" lon="1.39185">
        <ele>117</ele>
        <time>2025-04-18T10:14:59Z</time>
      </trkpt>
      <trkpt lat="43.66263" lon="1.39182">
        <ele>117</ele>
        <time>2025-04-18T10:15:00Z</time>
      </trkpt>
      <trkpt lat="43.66261" lon="1.3918">
        <ele>118</ele>
        <time>2025-04-18T10:15:01Z</time>
      </trkpt>
      <trkpt lat="43.66259" lon="1.39178">
        <ele>118</ele>
        <time>2025-04-18T10:15:02Z</time>
      </trkpt>
      <trkpt lat="43.66257" lon="1.39176">
        <ele>118</ele>
        <time>2025-04-18T10:15:03Z</time>
      </trkpt>
      <trkpt lat="43.66257" lon="1.39176">
        <ele>118</ele>
        <time>2025-04-18T10:15:04Z</time>
      </trkpt>
      <trkpt lat="43.66254" lon="1.39175">
        <ele>118</ele>
        <time>2025-04-18T10:15:05Z</time>
      </trkpt>
      <trkpt lat="43.66254" lon="1.39175">
        <ele>117</ele>
        <time>2025-04-18T10:15:06Z</time>
      </trkpt>
      <trkpt lat="43.66252" lon="1.39174">
        <ele>117</ele>
        <time>2025-04-18T10:15:07Z</time>
      </trkpt>
      <trkpt lat="43.66252" lon="1.39174">
        <ele>117</ele>
        <time>2025-04-18T10:15:08Z</time>
      </trkpt>
      <trkpt lat="43.6625" lon="1.39176">
        <ele>117</ele>
        <time>2025-04-18T10:15:09Z</time>
      </trkpt>
      <trkpt lat="43.66248" lon="1.39178">
        <ele>117</ele>
        <time>2025-04-18T10:15:10Z</time>
      </trkpt>
      <trkpt lat="43.66246" lon="1.39178">
        <ele>117</ele>
        <time>2025-04-18T10:15:11Z</time>
      </trkpt>
      <trkpt lat="43.66243" lon="1.39177">
        <ele>118</ele>
        <time>2025-04-18T10:15:12Z</time>
      </trkpt>
      <trkpt lat="43.6624" lon="1.39177">
        <ele>118</ele>
        <time>2025-04-18T10:15:13Z</time>
      </trkpt>
      <trkpt lat="43.66237" lon="1.39176">
        <ele>118</ele>
        <time>2025-04-18T10:15:14Z</time>
      </trkpt>
      <trkpt lat="43.66233" lon="1.39174">
        <ele>118</ele>
        <time>2025-04-18T10:15:15Z</time>
      </trkpt>
      <trkpt lat="43.6623" lon="1.39172">
        <ele>118</ele>
        <time>2025-04-18T10:15:16Z</time>
      </trkpt>
      <trkpt lat="43.6623" lon="1.39172">
        <ele>118</ele>
        <time>2025-04-18T10:15:17Z</time>
      </trkpt>
      <trkpt lat="43.66226" lon="1.39168">
        <ele>118</ele>
        <time>2025-04-18T10:15:18Z</time>
      </trkpt>
      <trkpt lat="43.66224" lon="1.39165">
        <ele>118</ele>
        <time>2025-04-18T10:15:19Z</time>
      </trkpt>
      <trkpt lat="43.66221" lon="1.39163">
        <ele>118</ele>
        <time>2025-04-18T10:15:20Z</time>
      </trkpt>
      <trkpt lat="43.66219" lon="1.3916">
        <ele>118</ele>
        <time>2025-04-18T10:15:21Z</time>
      </trkpt>
      <trkpt lat="43.66217" lon="1.39157">
        <ele>117</ele>
        <time>2025-04-18T10:15:22Z</time>
      </trkpt>
      <trkpt lat="43.66217" lon="1.39157">
        <ele>117</ele>
        <time>2025-04-18T10:15:23Z</time>
      </trkpt>
      <trkpt lat="43.66214" lon="1.39151">
        <ele>117</ele>
        <time>2025-04-18T10:15:24Z</time>
      </trkpt>
      <trkpt lat="43.66213" lon="1.39148">
        <ele>117</ele>
        <time>2025-04-18T10:15:25Z</time>
      </trkpt>
      <trkpt lat="43.66213" lon="1.39148">
        <ele>117</ele>
        <time>2025-04-18T10:15:26Z</time>
      </trkpt>
      <trkpt lat="43.6621" lon="1.39148">
        <ele>117</ele>
        <time>2025-04-18T10:15:27Z</time>
      </trkpt>
      <trkpt lat="43.66208" lon="1.39149">
        <ele>117</ele>
        <time>2025-04-18T10:15:28Z</time>
      </trkpt>
      <trkpt lat="43.66206" lon="1.39149">
        <ele>117</ele>
        <time>2025-04-18T10:15:29Z</time>
      </trkpt>
      <trkpt lat="43.66206" lon="1.39149">
        <ele>117</ele>
        <time>2025-04-18T10:15:30Z</time>
      </trkpt>
      <trkpt lat="43.66203" lon="1.39153">
        <ele>117</ele>
        <time>2025-04-18T10:15:31Z</time>
      </trkpt>
      <trkpt lat="43.66202" lon="1.39155">
        <ele>117</ele>
        <time>2025-04-18T10:15:32Z</time>
      </trkpt>
      <trkpt lat="43.66202" lon="1.39155">
        <ele>117</ele>
        <time>2025-04-18T10:15:33Z</time>
      </trkpt>
      <trkpt lat="43.662" lon="1.39157">
        <ele>117</ele>
        <time>2025-04-18T10:15:34Z</time>
      </trkpt>
      <trkpt lat="43.662" lon="1.39157">
        <ele>117</ele>
        <time>2025-04-18T10:15:35Z</time>
      </trkpt>
      <trkpt lat="43.66197" lon="1.3916">
        <ele>117</ele>
        <time>2025-04-18T10:15:36Z</time>
      </trkpt>
      <trkpt lat="43.66195" lon="1.39162">
        <ele>117</ele>
        <time>2025-04-18T10:15:37Z</time>
      </trkpt>
      <trkpt lat="43.66194" lon="1.39163">
        <ele>117</ele>
        <time>2025-04-18T10:15:38Z</time>
      </trkpt>
      <trkpt lat="43.66192" lon="1.39165">
        <ele>117</ele>
        <time>2025-04-18T10:15:39Z</time>
      </trkpt>
      <trkpt lat="43.66189" lon="1.39167">
        <ele>117</ele>
        <time>2025-04-18T10:15:40Z</time>
      </trkpt>
      <trkpt lat="43.66187" lon="1.39168">
        <ele>117</ele>
        <time>2025-04-18T10:15:41Z</time>
      </trkpt>
      <trkpt lat="43.66187" lon="1.39168">
        <ele>117</ele>
        <time>2025-04-18T10:15:42Z</time>
      </trkpt>
      <trkpt lat="43.66185" lon="1.39169">
        <ele>117</ele>
        <time>2025-04-18T10:15:43Z</time>
      </trkpt>
      <trkpt lat="43.66183" lon="1.39172">
        <ele>116</ele>
        <time>2025-04-18T10:15:44Z</time>
      </trkpt>
      <trkpt lat="43.66181" lon="1.39173">
        <ele>116</ele>
        <time>2025-04-18T10:15:45Z</time>
      </trkpt>
      <trkpt lat="43.66179" lon="1.39175">
        <ele>117</ele>
        <time>2025-04-18T10:15:46Z</time>
      </trkpt>
      <trkpt lat="43.66177" lon="1.39178">
        <ele>117</ele>
        <time>2025-04-18T10:15:47Z</time>
      </trkpt>
      <trkpt lat="43.66175" lon="1.39179">
        <ele>117</ele>
        <time>2025-04-18T10:15:48Z</time>
      </trkpt>
      <trkpt lat="43.66175" lon="1.39179">
        <ele>117</ele>
        <time>2025-04-18T10:15:49Z</time>
      </trkpt>
      <trkpt lat="43.66172" lon="1.39181">
        <ele>117</ele>
        <time>2025-04-18T10:15:50Z</time>
      </trkpt>
      <trkpt lat="43.66172" lon="1.39181">
        <ele>117</ele>
        <time>2025-04-18T10:15:51Z</time>
      </trkpt>
      <trkpt lat="43.6617" lon="1.39183">
        <ele>117</ele>
        <time>2025-04-18T10:15:52Z</time>
      </trkpt>
      <trkpt lat="43.66168" lon="1.39185">
        <ele>117</ele>
        <time>2025-04-18T10:15:53Z</time>
      </trkpt>
      <trkpt lat="43.66167" lon="1.39187">
        <ele>117</ele>
        <time>2025-04-18T10:15:54Z</time>
      </trkpt>
      <trkpt lat="43.66165" lon="1.39189">
        <ele>117</ele>
        <time>2025-04-18T10:15:55Z</time>
      </trkpt>
      <trkpt lat="43.66163" lon="1.39191">
        <ele>117</ele>
        <time>2025-04-18T10:15:56Z</time>
      </trkpt>
      <trkpt lat="43.66161" lon="1.39192">
        <ele>117</ele>
        <time>2025-04-18T10:15:57Z</time>
      </trkpt>
      <trkpt lat="43.66159" lon="1.39193">
        <ele>117</ele>
        <time>2025-04-18T10:15:58Z</time>
      </trkpt>
      <trkpt lat="43.66156" lon="1.39194">
        <ele>117</ele>
        <time>2025-04-18T10:15:59Z</time>
      </trkpt>
      <trkpt lat="43.66154" lon="1.39194">
        <ele>117</ele>
        <time>2025-04-18T10:16:00Z</time>
      </trkpt>
      <trkpt lat="43.66151" lon="1.39195">
        <ele>117</ele>
        <time>2025-04-18T10:16:01Z</time>
      </trkpt>
      <trkpt lat="43.66149" lon="1.39196">
        <ele>117</ele>
        <time>2025-04-18T10:16:02Z</time>
      </trkpt>
      <trkpt lat="43.66146" lon="1.39197">
        <ele>117</ele>
        <time>2025-04-18T10:16:03Z</time>
      </trkpt>
      <trkpt lat="43.66143" lon="1.39198">
        <ele>118</ele>
        <time>2025-04-18T10:16:04Z</time>
      </trkpt>
      <trkpt lat="43.66141" lon="1.39199">
        <ele>118</ele>
        <time>2025-04-18T10:16:05Z</time>
      </trkpt>
      <trkpt lat="43.66138" lon="1.392">
        <ele>118</ele>
        <time>2025-04-18T10:16:06Z</time>
      </trkpt>
      <trkpt lat="43.66135" lon="1.392">
        <ele>118</ele>
        <time>2025-04-18T10:16:07Z</time>
      </trkpt>
      <trkpt lat="43.66132" lon="1.39201">
        <ele>118</ele>
        <time>2025-04-18T10:16:08Z</time>
      </trkpt>
      <trkpt lat="43.66129" lon="1.39201">
        <ele>118</ele>
        <time>2025-04-18T10:16:09Z</time>
      </trkpt>
      <trkpt lat="43.66126" lon="1.39202">
        <ele>118</ele>
        <time>2025-04-18T10:16:10Z</time>
      </trkpt>
      <trkpt lat="43.66123" lon="1.39203">
        <ele>118</ele>
        <time>2025-04-18T10:16:11Z</time>
      </trkpt>
      <trkpt lat="43.6612" lon="1.39204">
        <ele>118</ele>
        <time>2025-04-18T10:16:12Z</time>
      </trkpt>
      <trkpt lat="43.6612" lon="1.39204">
        <ele>118</ele>
        <time>2025-04-18T10:16:13Z</time>
      </trkpt>
      <trkpt lat="43.66111" lon="1.39209">
        <ele>118</ele>
        <time>2025-04-18T10:16:14Z</time>
      </trkpt>
      <trkpt lat="43.66107" lon="1.39212">
        <ele>118</ele>
        <time>2025-04-18T10:16:15Z</time>
      </trkpt>
      <trkpt lat="43.66104" lon="1.39214">
        <ele>118</ele>
        <time>2025-04-18T10:16:16Z</time>
      </trkpt>
      <trkpt lat="43.66102" lon="1.39216">
        <ele>118</ele>
        <time>2025-04-18T10:16:17Z</time>
      </trkpt>
      <trkpt lat="43.66102" lon="1.39216">
        <ele>119</ele>
        <time>2025-04-18T10:16:18Z</time>
      </trkpt>
      <trkpt lat="43.66098" lon="1.3922">
        <ele>119</ele>
        <time>2025-04-18T10:16:19Z</time>
      </trkpt>
      <trkpt lat="43.66098" lon="1.3922">
        <ele>118</ele>
        <time>2025-04-18T10:16:20Z</time>
      </trkpt>
      <trkpt lat="43.66095" lon="1.39221">
        <ele>118</ele>
        <time>2025-04-18T10:16:21Z</time>
      </trkpt>
      <trkpt lat="43.66092" lon="1.39223">
        <ele>118</ele>
        <time>2025-04-18T10:16:22Z</time>
      </trkpt>
      <trkpt lat="43.66089" lon="1.39225">
        <ele>118</ele>
        <time>2025-04-18T10:16:23Z</time>
      </trkpt>
      <trkpt lat="43.66087" lon="1.39226">
        <ele>118</ele>
        <time>2025-04-18T10:16:24Z</time>
      </trkpt>
      <trkpt lat="43.66084" lon="1.39226">
        <ele>118</ele>
        <time>2025-04-18T10:16:25Z</time>
      </trkpt>
      <trkpt lat="43.66081" lon="1.39226">
        <ele>118</ele>
        <time>2025-04-18T10:16:26Z</time>
      </trkpt>
      <trkpt lat="43.66078" lon="1.39226">
        <ele>118</ele>
        <time>2025-04-18T10:16:27Z</time>
      </trkpt>
      <trkpt lat="43.66072" lon="1.39225">
        <ele>118</ele>
        <time>2025-04-18T10:16:28Z</time>
      </trkpt>
      <trkpt lat="43.66072" lon="1.39225">
        <ele>118</ele>
        <time>2025-04-18T10:16:29Z</time>
      </trkpt>
      <trkpt lat="43.66069" lon="1.39225">
        <ele>118</ele>
        <time>2025-04-18T10:16:30Z</time>
      </trkpt>
      <trkpt lat="43.66065" lon="1.39225">
        <ele>118</ele>
        <time>2025-04-18T10:16:31Z</time>
      </trkpt>
      <trkpt lat="43.66062" lon="1.39226">
        <ele>118</ele>
        <time>2025-04-18T10:16:32Z</time>
      </trkpt>
      <trkpt lat="43.66059" lon="1.39226">
        <ele>118</ele>
        <time>2025-04-18T10:16:33Z</time>
      </trkpt>
      <trkpt lat="43.66055" lon="1.39226">
        <ele>118</ele>
        <time>2025-04-18T10:16:34Z</time>
      </trkpt>
      <trkpt lat="43.66052" lon="1.39226">
        <ele>118</ele>
        <time>2025-04-18T10:16:35Z</time>
      </trkpt>
      <trkpt lat="43.66049" lon="1.39227">
        <ele>118</ele>
        <time>2025-04-18T10:16:36Z</time>
      </trkpt>
      <trkpt lat="43.66047" lon="1.39226">
        <ele>118</ele>
        <time>2025-04-18T10:16:37Z</time>
      </trkpt>
      <trkpt lat="43.66044" lon="1.39227">
        <ele>118</ele>
        <time>2025-04-18T10:16:38Z</time>
      </trkpt>
      <trkpt lat="43.66044" lon="1.39227">
        <ele>118</ele>
        <time>2025-04-18T10:16:39Z</time>
      </trkpt>
      <trkpt lat="43.66042" lon="1.39228">
        <ele>118</ele>
        <time>2025-04-18T10:16:40Z</time>
      </trkpt>
      <trkpt lat="43.6604" lon="1.39229">
        <ele>118</ele>
        <time>2025-04-18T10:16:41Z</time>
      </trkpt>
      <trkpt lat="43.66038" lon="1.39229">
        <ele>117</ele>
        <time>2025-04-18T10:16:42Z</time>
      </trkpt>
      <trkpt lat="43.66036" lon="1.39231">
        <ele>118</ele>
        <time>2025-04-18T10:16:43Z</time>
      </trkpt>
      <trkpt lat="43.66033" lon="1.39232">
        <ele>118</ele>
        <time>2025-04-18T10:16:44Z</time>
      </trkpt>
      <trkpt lat="43.66031" lon="1.39233">
        <ele>118</ele>
        <time>2025-04-18T10:16:45Z</time>
      </trkpt>
      <trkpt lat="43.66028" lon="1.39234">
        <ele>118</ele>
        <time>2025-04-18T10:16:46Z</time>
      </trkpt>
      <trkpt lat="43.66026" lon="1.39236">
        <ele>118</ele>
        <time>2025-04-18T10:16:47Z</time>
      </trkpt>
      <trkpt lat="43.66024" lon="1.39237">
        <ele>118</ele>
        <time>2025-04-18T10:16:48Z</time>
      </trkpt>
      <trkpt lat="43.66022" lon="1.39238">
        <ele>118</ele>
        <time>2025-04-18T10:16:49Z</time>
      </trkpt>
      <trkpt lat="43.66022" lon="1.39238">
        <ele>118</ele>
        <time>2025-04-18T10:16:50Z</time>
      </trkpt>
      <trkpt lat="43.66018" lon="1.3924">
        <ele>119</ele>
        <time>2025-04-18T10:16:51Z</time>
      </trkpt>
      <trkpt lat="43.66014" lon="1.39242">
        <ele>119</ele>
        <time>2025-04-18T10:16:52Z</time>
      </trkpt>
      <trkpt lat="43.66012" lon="1.39243">
        <ele>119</ele>
        <time>2025-04-18T10:16:53Z</time>
      </trkpt>
      <trkpt lat="43.66009" lon="1.39244">
        <ele>119</ele>
        <time>2025-04-18T10:16:54Z</time>
      </trkpt>
      <trkpt lat="43.66006" lon="1.39246">
        <ele>119</ele>
        <time>2025-04-18T10:16:55Z</time>
      </trkpt>
      <trkpt lat="43.66004" lon="1.39248">
        <ele>118</ele>
        <time>2025-04-18T10:16:56Z</time>
      </trkpt>
      <trkpt lat="43.66004" lon="1.39248">
        <ele>118</ele>
        <time>2025-04-18T10:16:57Z</time>
      </trkpt>
      <trkpt lat="43.65998" lon="1.3925">
        <ele>118</ele>
        <time>2025-04-18T10:16:58Z</time>
      </trkpt>
      <trkpt lat="43.65997" lon="1.3925">
        <ele>118</ele>
        <time>2025-04-18T10:16:59Z</time>
      </trkpt>
      <trkpt lat="43.65994" lon="1.3925">
        <ele>118</ele>
        <time>2025-04-18T10:17:00Z</time>
      </trkpt>
      <trkpt lat="43.65991" lon="1.39252">
        <ele>118</ele>
        <time>2025-04-18T10:17:01Z</time>
      </trkpt>
      <trkpt lat="43.65991" lon="1.39252">
        <ele>118</ele>
        <time>2025-04-18T10:17:02Z</time>
      </trkpt>
      <trkpt lat="43.65985" lon="1.39252">
        <ele>118</ele>
        <time>2025-04-18T10:17:03Z</time>
      </trkpt>
      <trkpt lat="43.65985" lon="1.39252">
        <ele>118</ele>
        <time>2025-04-18T10:17:04Z</time>
      </trkpt>
      <trkpt lat="43.65983" lon="1.39253">
        <ele>118</ele>
        <time>2025-04-18T10:17:05Z</time>
      </trkpt>
      <trkpt lat="43.6598" lon="1.39254">
        <ele>118</ele>
        <time>2025-04-18T10:17:06Z</time>
      </trkpt>
      <trkpt lat="43.65978" lon="1.39255">
        <ele>118</ele>
        <time>2025-04-18T10:17:07Z</time>
      </trkpt>
      <trkpt lat="43.65972" lon="1.39257">
        <ele>118</ele>
        <time>2025-04-18T10:17:08Z</time>
      </trkpt>
      <trkpt lat="43.65969" lon="1.39258">
        <ele>118</ele>
        <time>2025-04-18T10:17:09Z</time>
      </trkpt>
      <trkpt lat="43.65965" lon="1.39259">
        <ele>118</ele>
        <time>2025-04-18T10:17:10Z</time>
      </trkpt>
      <trkpt lat="43.65962" lon="1.39259">
        <ele>118</ele>
        <time>2025-04-18T10:17:11Z</time>
      </trkpt>
      <trkpt lat="43.65959" lon="1.3926">
        <ele>118</ele>
        <time>2025-04-18T10:17:12Z</time>
      </trkpt>
      <trkpt lat="43.65956" lon="1.3926">
        <ele>118</ele>
        <time>2025-04-18T10:17:13Z</time>
      </trkpt>
      <trkpt lat="43.65956" lon="1.3926">
        <ele>118</ele>
        <time>2025-04-18T10:17:14Z</time>
      </trkpt>
      <trkpt lat="43.65949" lon="1.39261">
        <ele>118</ele>
        <time>2025-04-18T10:17:15Z</time>
      </trkpt>
      <trkpt lat="43.65945" lon="1.39261">
        <ele>118</ele>
        <time>2025-04-18T10:17:16Z</time>
      </trkpt>
      <trkpt lat="43.65943" lon="1.39261">
        <ele>118</ele>
        <time>2025-04-18T10:17:17Z</time>
      </trkpt>
      <trkpt lat="43.6594" lon="1.39261">
        <ele>118</ele>
        <time>2025-04-18T10:17:18Z</time>
      </trkpt>
      <trkpt lat="43.65937" lon="1.39261">
        <ele>118</ele>
        <time>2025-04-18T10:17:19Z</time>
      </trkpt>
      <trkpt lat="43.65934" lon="1.39261">
        <ele>118</ele>
        <time>2025-04-18T10:17:20Z</time>
      </trkpt>
      <trkpt lat="43.65932" lon="1.3926">
        <ele>118</ele>
        <time>2025-04-18T10:17:21Z</time>
      </trkpt>
      <trkpt lat="43.6593" lon="1.3926">
        <ele>118</ele>
        <time>2025-04-18T10:17:22Z</time>
      </trkpt>
      <trkpt lat="43.65927" lon="1.39259">
        <ele>118</ele>
        <time>2025-04-18T10:17:23Z</time>
      </trkpt>
      <trkpt lat="43.65925" lon="1.39259">
        <ele>118</ele>
        <time>2025-04-18T10:17:24Z</time>
      </trkpt>
      <trkpt lat="43.65925" lon="1.39259">
        <ele>118</ele>
        <time>2025-04-18T10:17:25Z</time>
      </trkpt>
      <trkpt lat="43.65921" lon="1.39258">
        <ele>118</ele>
        <time>2025-04-18T10:17:26Z</time>
      </trkpt>
      <trkpt lat="43.65921" lon="1.39258">
        <ele>118</ele>
        <time>2025-04-18T10:17:27Z</time>
      </trkpt>
      <trkpt lat="43.65914" lon="1.39258">
        <ele>118</ele>
        <time>2025-04-18T10:17:28Z</time>
      </trkpt>
      <trkpt lat="43.65914" lon="1.39258">
        <ele>118</ele>
        <time>2025-04-18T10:17:29Z</time>
      </trkpt>
      <trkpt lat="43.65911" lon="1.39258">
        <ele>119</ele>
        <time>2025-04-18T10:17:30Z</time>
      </trkpt>
      <trkpt lat="43.65907" lon="1.39257">
        <ele>119</ele>
        <time>2025-04-18T10:17:31Z</time>
      </trkpt>
      <trkpt lat="43.65904" lon="1.39256">
        <ele>119</ele>
        <time>2025-04-18T10:17:32Z</time>
      </trkpt>
      <trkpt lat="43.659" lon="1.39255">
        <ele>119</ele>
        <time>2025-04-18T10:17:33Z</time>
      </trkpt>
      <trkpt lat="43.65897" lon="1.39255">
        <ele>119</ele>
        <time>2025-04-18T10:17:34Z</time>
      </trkpt>
      <trkpt lat="43.65894" lon="1.39255">
        <ele>119</ele>
        <time>2025-04-18T10:17:35Z</time>
      </trkpt>
      <trkpt lat="43.65891" lon="1.39255">
        <ele>118</ele>
        <time>2025-04-18T10:17:36Z</time>
      </trkpt>
      <trkpt lat="43.65891" lon="1.39255">
        <ele>118</ele>
        <time>2025-04-18T10:17:37Z</time>
      </trkpt>
      <trkpt lat="43.65886" lon="1.39254">
        <ele>119</ele>
        <time>2025-04-18T10:17:38Z</time>
      </trkpt>
      <trkpt lat="43.65886" lon="1.39254">
        <ele>119</ele>
        <time>2025-04-18T10:17:39Z</time>
      </trkpt>
      <trkpt lat="43.65882" lon="1.39254">
        <ele>118</ele>
        <time>2025-04-18T10:17:40Z</time>
      </trkpt>
      <trkpt lat="43.65878" lon="1.39255">
        <ele>118</ele>
        <time>2025-04-18T10:17:41Z</time>
      </trkpt>
      <trkpt lat="43.65874" lon="1.39255">
        <ele>118</ele>
        <time>2025-04-18T10:17:42Z</time>
      </trkpt>
      <trkpt lat="43.65871" lon="1.39255">
        <ele>118</ele>
        <time>2025-04-18T10:17:43Z</time>
      </trkpt>
      <trkpt lat="43.65867" lon="1.39256">
        <ele>118</ele>
        <time>2025-04-18T10:17:44Z</time>
      </trkpt>
      <trkpt lat="43.65865" lon="1.39255">
        <ele>118</ele>
        <time>2025-04-18T10:17:45Z</time>
      </trkpt>
      <trkpt lat="43.65861" lon="1.39254">
        <ele>118</ele>
        <time>2025-04-18T10:17:46Z</time>
      </trkpt>
      <trkpt lat="43.65858" lon="1.39252">
        <ele>118</ele>
        <time>2025-04-18T10:17:47Z</time>
      </trkpt>
      <trkpt lat="43.65856" lon="1.39251">
        <ele>118</ele>
        <time>2025-04-18T10:17:48Z</time>
      </trkpt>
      <trkpt lat="43.65856" lon="1.39251">
        <ele>118</ele>
        <time>2025-04-18T10:17:49Z</time>
      </trkpt>
      <trkpt lat="43.65854" lon="1.39249">
        <ele>119</ele>
        <time>2025-04-18T10:17:50Z</time>
      </trkpt>
      <trkpt lat="43.65852" lon="1.39248">
        <ele>119</ele>
        <time>2025-04-18T10:17:51Z</time>
      </trkpt>
      <trkpt lat="43.6585" lon="1.39247">
        <ele>119</ele>
        <time>2025-04-18T10:17:52Z</time>
      </trkpt>
      <trkpt lat="43.65847" lon="1.39246">
        <ele>119</ele>
        <time>2025-04-18T10:17:53Z</time>
      </trkpt>
      <trkpt lat="43.65845" lon="1.39245">
        <ele>119</ele>
        <time>2025-04-18T10:17:54Z</time>
      </trkpt>
      <trkpt lat="43.65843" lon="1.39243">
        <ele>119</ele>
        <time>2025-04-18T10:17:55Z</time>
      </trkpt>
      <trkpt lat="43.6584" lon="1.39242">
        <ele>119</ele>
        <time>2025-04-18T10:17:56Z</time>
      </trkpt>
      <trkpt lat="43.65838" lon="1.39241">
        <ele>119</ele>
        <time>2025-04-18T10:17:57Z</time>
      </trkpt>
      <trkpt lat="43.65835" lon="1.3924">
        <ele>119</ele>
        <time>2025-04-18T10:17:58Z</time>
      </trkpt>
      <trkpt lat="43.65832" lon="1.3924">
        <ele>119</ele>
        <time>2025-04-18T10:17:59Z</time>
      </trkpt>
      <trkpt lat="43.65828" lon="1.39239">
        <ele>119</ele>
        <time>2025-04-18T10:18:00Z</time>
      </trkpt>
      <trkpt lat="43.65825" lon="1.39238">
        <ele>119</ele>
        <time>2025-04-18T10:18:01Z</time>
      </trkpt>
      <trkpt lat="43.65825" lon="1.39238">
        <ele>119</ele>
        <time>2025-04-18T10:18:02Z</time>
      </trkpt>
      <trkpt lat="43.65819" lon="1.39236">
        <ele>119</ele>
        <time>2025-04-18T10:18:03Z</time>
      </trkpt>
      <trkpt lat="43.65819" lon="1.39236">
        <ele>120</ele>
        <time>2025-04-18T10:18:04Z</time>
      </trkpt>
      <trkpt lat="43.65813" lon="1.39233">
        <ele>120</ele>
        <time>2025-04-18T10:18:05Z</time>
      </trkpt>
      <trkpt lat="43.6581" lon="1.39232">
        <ele>120</ele>
        <time>2025-04-18T10:18:06Z</time>
      </trkpt>
      <trkpt lat="43.65808" lon="1.3923">
        <ele>120</ele>
        <time>2025-04-18T10:18:07Z</time>
      </trkpt>
      <trkpt lat="43.65806" lon="1.39228">
        <ele>120</ele>
        <time>2025-04-18T10:18:08Z</time>
      </trkpt>
      <trkpt lat="43.65803" lon="1.39227">
        <ele>120</ele>
        <time>2025-04-18T10:18:09Z</time>
      </trkpt>
      <trkpt lat="43.65801" lon="1.39225">
        <ele>120</ele>
        <time>2025-04-18T10:18:10Z</time>
      </trkpt>
      <trkpt lat="43.65798" lon="1.39224">
        <ele>120</ele>
        <time>2025-04-18T10:18:11Z</time>
      </trkpt>
      <trkpt lat="43.65794" lon="1.39224">
        <ele>120</ele>
        <time>2025-04-18T10:18:12Z</time>
      </trkpt>
      <trkpt lat="43.65791" lon="1.39223">
        <ele>120</ele>
        <time>2025-04-18T10:18:13Z</time>
      </trkpt>
      <trkpt lat="43.65791" lon="1.39223">
        <ele>119</ele>
        <time>2025-04-18T10:18:14Z</time>
      </trkpt>
      <trkpt lat="43.65785" lon="1.39222">
        <ele>119</ele>
        <time>2025-04-18T10:18:15Z</time>
      </trkpt>
      <trkpt lat="43.65783" lon="1.39221">
        <ele>120</ele>
        <time>2025-04-18T10:18:16Z</time>
      </trkpt>
      <trkpt lat="43.6578" lon="1.39219">
        <ele>120</ele>
        <time>2025-04-18T10:18:17Z</time>
      </trkpt>
      <trkpt lat="43.65778" lon="1.39217">
        <ele>120</ele>
        <time>2025-04-18T10:18:18Z</time>
      </trkpt>
      <trkpt lat="43.65776" lon="1.39215">
        <ele>120</ele>
        <time>2025-04-18T10:18:19Z</time>
      </trkpt>
      <trkpt lat="43.65776" lon="1.39215">
        <ele>120</ele>
        <time>2025-04-18T10:18:20Z</time>
      </trkpt>
      <trkpt lat="43.65772" lon="1.3921">
        <ele>120</ele>
        <time>2025-04-18T10:18:21Z</time>
      </trkpt>
      <trkpt lat="43.6577" lon="1.39208">
        <ele>120</ele>
        <time>2025-04-18T10:18:22Z</time>
      </trkpt>
      <trkpt lat="43.65767" lon="1.39205">
        <ele>120</ele>
        <time>2025-04-18T10:18:23Z</time>
      </trkpt>
      <trkpt lat="43.65765" lon="1.39203">
        <ele>120</ele>
        <time>2025-04-18T10:18:24Z</time>
      </trkpt>
      <trkpt lat="43.65765" lon="1.39203">
        <ele>120</ele>
        <time>2025-04-18T10:18:25Z</time>
      </trkpt>
      <trkpt lat="43.6576" lon="1.39199">
        <ele>120</ele>
        <time>2025-04-18T10:18:26Z</time>
      </trkpt>
      <trkpt lat="43.65758" lon="1.39196">
        <ele>120</ele>
        <time>2025-04-18T10:18:27Z</time>
      </trkpt>
      <trkpt lat="43.65756" lon="1.39195">
        <ele>120</ele>
        <time>2025-04-18T10:18:28Z</time>
      </trkpt>
      <trkpt lat="43.65754" lon="1.39193">
        <ele>120</ele>
        <time>2025-04-18T10:18:29Z</time>
      </trkpt>
      <trkpt lat="43.65752" lon="1.39191">
        <ele>121</ele>
        <time>2025-04-18T10:18:30Z</time>
      </trkpt>
      <trkpt lat="43.6575" lon="1.39188">
        <ele>121</ele>
        <time>2025-04-18T10:18:31Z</time>
      </trkpt>
      <trkpt lat="43.6575" lon="1.39188">
        <ele>121</ele>
        <time>2025-04-18T10:18:32Z</time>
      </trkpt>
      <trkpt lat="43.65748" lon="1.39187">
        <ele>122</ele>
        <time>2025-04-18T10:18:33Z</time>
      </trkpt>
      <trkpt lat="43.65744" lon="1.39185">
        <ele>122</ele>
        <time>2025-04-18T10:18:34Z</time>
      </trkpt>
      <trkpt lat="43.65741" lon="1.39183">
        <ele>122</ele>
        <time>2025-04-18T10:18:35Z</time>
      </trkpt>
      <trkpt lat="43.65738" lon="1.39181">
        <ele>122</ele>
        <time>2025-04-18T10:18:36Z</time>
      </trkpt>
      <trkpt lat="43.65738" lon="1.39181">
        <ele>122</ele>
        <time>2025-04-18T10:18:37Z</time>
      </trkpt>
      <trkpt lat="43.65734" lon="1.39179">
        <ele>121</ele>
        <time>2025-04-18T10:18:38Z</time>
      </trkpt>
      <trkpt lat="43.65731" lon="1.39176">
        <ele>121</ele>
        <time>2025-04-18T10:18:39Z</time>
      </trkpt>
      <trkpt lat="43.65731" lon="1.39176">
        <ele>121</ele>
        <time>2025-04-18T10:18:40Z</time>
      </trkpt>
      <trkpt lat="43.65726" lon="1.39173">
        <ele>121</ele>
        <time>2025-04-18T10:18:41Z</time>
      </trkpt>
      <trkpt lat="43.65723" lon="1.39171">
        <ele>120</ele>
        <time>2025-04-18T10:18:42Z</time>
      </trkpt>
      <trkpt lat="43.65721" lon="1.39169">
        <ele>120</ele>
        <time>2025-04-18T10:18:43Z</time>
      </trkpt>
      <trkpt lat="43.65719" lon="1.39166">
        <ele>120</ele>
        <time>2025-04-18T10:18:44Z</time>
      </trkpt>
      <trkpt lat="43.65716" lon="1.39165">
        <ele>120</ele>
        <time>2025-04-18T10:18:45Z</time>
      </trkpt>
      <trkpt lat="43.65713" lon="1.39163">
        <ele>120</ele>
        <time>2025-04-18T10:18:46Z</time>
      </trkpt>
      <trkpt lat="43.65713" lon="1.39163">
        <ele>120</ele>
        <time>2025-04-18T10:18:47Z</time>
      </trkpt>
      <trkpt lat="43.65708" lon="1.39161">
        <ele>120</ele>
        <time>2025-04-18T10:18:48Z</time>
      </trkpt>
      <trkpt lat="43.65706" lon="1.39159">
        <ele>120</ele>
        <time>2025-04-18T10:18:49Z</time>
      </trkpt>
      <trkpt lat="43.65703" lon="1.39157">
        <ele>120</ele>
        <time>2025-04-18T10:18:50Z</time>
      </trkpt>
      <trkpt lat="43.657" lon="1.39155">
        <ele>120</ele>
        <time>2025-04-18T10:18:51Z</time>
      </trkpt>
      <trkpt lat="43.657" lon="1.39155">
        <ele>120</ele>
        <time>2025-04-18T10:18:52Z</time>
      </trkpt>
      <trkpt lat="43.65696" lon="1.39151">
        <ele>120</ele>
        <time>2025-04-18T10:18:53Z</time>
      </trkpt>
      <trkpt lat="43.65696" lon="1.39151">
        <ele>120</ele>
        <time>2025-04-18T10:18:54Z</time>
      </trkpt>
      <trkpt lat="43.65691" lon="1.39147">
        <ele>120</ele>
        <time>2025-04-18T10:18:55Z</time>
      </trkpt>
      <trkpt lat="43.65689" lon="1.39145">
        <ele>120</ele>
        <time>2025-04-18T10:18:56Z</time>
      </trkpt>
      <trkpt lat="43.65687" lon="1.39143">
        <ele>120</ele>
        <time>2025-04-18T10:18:57Z</time>
      </trkpt>
      <trkpt lat="43.65684" lon="1.39141">
        <ele>119</ele>
        <time>2025-04-18T10:18:58Z</time>
      </trkpt>
      <trkpt lat="43.65684" lon="1.39141">
        <ele>119</ele>
        <time>2025-04-18T10:18:59Z</time>
      </trkpt>
      <trkpt lat="43.65679" lon="1.39137">
        <ele>119</ele>
        <time>2025-04-18T10:19:00Z</time>
      </trkpt>
      <trkpt lat="43.65679" lon="1.39137">
        <ele>119</ele>
        <time>2025-04-18T10:19:01Z</time>
      </trkpt>
      <trkpt lat="43.65674" lon="1.39134">
        <ele>119</ele>
        <time>2025-04-18T10:19:02Z</time>
      </trkpt>
      <trkpt lat="43.65674" lon="1.39134">
        <ele>119</ele>
        <time>2025-04-18T10:19:03Z</time>
      </trkpt>
      <trkpt lat="43.65669" lon="1.3913">
        <ele>119</ele>
        <time>2025-04-18T10:19:04Z</time>
      </trkpt>
      <trkpt lat="43.65666" lon="1.39129">
        <ele>119</ele>
        <time>2025-04-18T10:19:05Z</time>
      </trkpt>
      <trkpt lat="43.65666" lon="1.39129">
        <ele>119</ele>
        <time>2025-04-18T10:19:06Z</time>
      </trkpt>
      <trkpt lat="43.65661" lon="1.39126">
        <ele>119</ele>
        <time>2025-04-18T10:19:07Z</time>
      </trkpt>
      <trkpt lat="43.65661" lon="1.39126">
        <ele>119</ele>
        <time>2025-04-18T10:19:08Z</time>
      </trkpt>
      <trkpt lat="43.65656" lon="1.39123">
        <ele>119</ele>
        <time>2025-04-18T10:19:09Z</time>
      </trkpt>
      <trkpt lat="43.65654" lon="1.39122">
        <ele>119</ele>
        <time>2025-04-18T10:19:10Z</time>
      </trkpt>
      <trkpt lat="43.65654" lon="1.39122">
        <ele>119</ele>
        <time>2025-04-18T10:19:11Z</time>
      </trkpt>
      <trkpt lat="43.65649" lon="1.39119">
        <ele>119</ele>
        <time>2025-04-18T10:19:12Z</time>
      </trkpt>
      <trkpt lat="43.65649" lon="1.39119">
        <ele>120</ele>
        <time>2025-04-18T10:19:13Z</time>
      </trkpt>
      <trkpt lat="43.65645" lon="1.39116">
        <ele>120</ele>
        <time>2025-04-18T10:19:14Z</time>
      </trkpt>
      <trkpt lat="43.65643" lon="1.39115">
        <ele>120</ele>
        <time>2025-04-18T10:19:15Z</time>
      </trkpt>
      <trkpt lat="43.65641" lon="1.39113">
        <ele>120</ele>
        <time>2025-04-18T10:19:16Z</time>
      </trkpt>
      <trkpt lat="43.65641" lon="1.39113">
        <ele>120</ele>
        <time>2025-04-18T10:19:17Z</time>
      </trkpt>
      <trkpt lat="43.65636" lon="1.39109">
        <ele>120</ele>
        <time>2025-04-18T10:19:18Z</time>
      </trkpt>
      <trkpt lat="43.65633" lon="1.39107">
        <ele>120</ele>
        <time>2025-04-18T10:19:19Z</time>
      </trkpt>
      <trkpt lat="43.65633" lon="1.39107">
        <ele>120</ele>
        <time>2025-04-18T10:19:20Z</time>
      </trkpt>
      <trkpt lat="43.65628" lon="1.39104">
        <ele>120</ele>
        <time>2025-04-18T10:19:21Z</time>
      </trkpt>
      <trkpt lat="43.65626" lon="1.39102">
        <ele>120</ele>
        <time>2025-04-18T10:19:22Z</time>
      </trkpt>
      <trkpt lat="43.65623" lon="1.391">
        <ele>120</ele>
        <time>2025-04-18T10:19:23Z</time>
      </trkpt>
      <trkpt lat="43.65623" lon="1.391">
        <ele>120</ele>
        <time>2025-04-18T10:19:24Z</time>
      </trkpt>
      <trkpt lat="43.65618" lon="1.39095">
        <ele>120</ele>
        <time>2025-04-18T10:19:25Z</time>
      </trkpt>
      <trkpt lat="43.65616" lon="1.39093">
        <ele>120</ele>
        <time>2025-04-18T10:19:26Z</time>
      </trkpt>
      <trkpt lat="43.65614" lon="1.39092">
        <ele>120</ele>
        <time>2025-04-18T10:19:27Z</time>
      </trkpt>
      <trkpt lat="43.65611" lon="1.3909">
        <ele>120</ele>
        <time>2025-04-18T10:19:28Z</time>
      </trkpt>
      <trkpt lat="43.65609" lon="1.39088">
        <ele>120</ele>
        <time>2025-04-18T10:19:29Z</time>
      </trkpt>
      <trkpt lat="43.65609" lon="1.39088">
        <ele>121</ele>
        <time>2025-04-18T10:19:30Z</time>
      </trkpt>
      <trkpt lat="43.65604" lon="1.39085">
        <ele>121</ele>
        <time>2025-04-18T10:19:31Z</time>
      </trkpt>
      <trkpt lat="43.65604" lon="1.39085">
        <ele>121</ele>
        <time>2025-04-18T10:19:32Z</time>
      </trkpt>
      <trkpt lat="43.65599" lon="1.39082">
        <ele>120</ele>
        <time>2025-04-18T10:19:33Z</time>
      </trkpt>
      <trkpt lat="43.65599" lon="1.39082">
        <ele>120</ele>
        <time>2025-04-18T10:19:34Z</time>
      </trkpt>
      <trkpt lat="43.65594" lon="1.39079">
        <ele>120</ele>
        <time>2025-04-18T10:19:35Z</time>
      </trkpt>
      <trkpt lat="43.65591" lon="1.39078">
        <ele>120</ele>
        <time>2025-04-18T10:19:36Z</time>
      </trkpt>
      <trkpt lat="43.65589" lon="1.39076">
        <ele>120</ele>
        <time>2025-04-18T10:19:37Z</time>
      </trkpt>
      <trkpt lat="43.65586" lon="1.39075">
        <ele>121</ele>
        <time>2025-04-18T10:19:38Z</time>
      </trkpt>
      <trkpt lat="43.65583" lon="1.39073">
        <ele>121</ele>
        <time>2025-04-18T10:19:39Z</time>
      </trkpt>
      <trkpt lat="43.65581" lon="1.39072">
        <ele>121</ele>
        <time>2025-04-18T10:19:40Z</time>
      </trkpt>
      <trkpt lat="43.65581" lon="1.39072">
        <ele>121</ele>
        <time>2025-04-18T10:19:41Z</time>
      </trkpt>
      <trkpt lat="43.65576" lon="1.39069">
        <ele>121</ele>
        <time>2025-04-18T10:19:42Z</time>
      </trkpt>
      <trkpt lat="43.65574" lon="1.39067">
        <ele>121</ele>
        <time>2025-04-18T10:19:43Z</time>
      </trkpt>
      <trkpt lat="43.65572" lon="1.39065">
        <ele>121</ele>
        <time>2025-04-18T10:19:44Z</time>
      </trkpt>
      <trkpt lat="43.65569" lon="1.39063">
        <ele>121</ele>
        <time>2025-04-18T10:19:45Z</time>
      </trkpt>
      <trkpt lat="43.65569" lon="1.39063">
        <ele>121</ele>
        <time>2025-04-18T10:19:46Z</time>
      </trkpt>
      <trkpt lat="43.65565" lon="1.39059">
        <ele>121</ele>
        <time>2025-04-18T10:19:47Z</time>
      </trkpt>
      <trkpt lat="43.65562" lon="1.39057">
        <ele>121</ele>
        <time>2025-04-18T10:19:49Z</time>
      </trkpt>
      <trkpt lat="43.65558" lon="1.39053">
        <ele>121</ele>
        <time>2025-04-18T10:19:50Z</time>
      </trkpt>
      <trkpt lat="43.65555" lon="1.39051">
        <ele>120</ele>
        <time>2025-04-18T10:19:51Z</time>
      </trkpt>
      <trkpt lat="43.65553" lon="1.39049">
        <ele>120</ele>
        <time>2025-04-18T10:19:52Z</time>
      </trkpt>
      <trkpt lat="43.65551" lon="1.39047">
        <ele>120</ele>
        <time>2025-04-18T10:19:53Z</time>
      </trkpt>
      <trkpt lat="43.65551" lon="1.39047">
        <ele>121</ele>
        <time>2025-04-18T10:19:54Z</time>
      </trkpt>
      <trkpt lat="43.65546" lon="1.39043">
        <ele>121</ele>
        <time>2025-04-18T10:19:55Z</time>
      </trkpt>
      <trkpt lat="43.65544" lon="1.39041">
        <ele>121</ele>
        <time>2025-04-18T10:19:56Z</time>
      </trkpt>
      <trkpt lat="43.65541" lon="1.3904">
        <ele>121</ele>
        <time>2025-04-18T10:19:57Z</time>
      </trkpt>
      <trkpt lat="43.65539" lon="1.39039">
        <ele>121</ele>
        <time>2025-04-18T10:19:58Z</time>
      </trkpt>
      <trkpt lat="43.65536" lon="1.39037">
        <ele>121</ele>
        <time>2025-04-18T10:19:59Z</time>
      </trkpt>
      <trkpt lat="43.65534" lon="1.39036">
        <ele>121</ele>
        <time>2025-04-18T10:20:00Z</time>
      </trkpt>
      <trkpt lat="43.65531" lon="1.39034">
        <ele>121</ele>
        <time>2025-04-18T10:20:01Z</time>
      </trkpt>
      <trkpt lat="43.65529" lon="1.39033">
        <ele>121</ele>
        <time>2025-04-18T10:20:02Z</time>
      </trkpt>
      <trkpt lat="43.65526" lon="1.39032">
        <ele>121</ele>
        <time>2025-04-18T10:20:03Z</time>
      </trkpt>
      <trkpt lat="43.65524" lon="1.39031">
        <ele>121</ele>
        <time>2025-04-18T10:20:04Z</time>
      </trkpt>
      <trkpt lat="43.65522" lon="1.3903">
        <ele>121</ele>
        <time>2025-04-18T10:20:05Z</time>
      </trkpt>
      <trkpt lat="43.65519" lon="1.39029">
        <ele>121</ele>
        <time>2025-04-18T10:20:06Z</time>
      </trkpt>
      <trkpt lat="43.65517" lon="1.39027">
        <ele>121</ele>
        <time>2025-04-18T10:20:08Z</time>
      </trkpt>
      <trkpt lat="43.65512" lon="1.39025">
        <ele>121</ele>
        <time>2025-04-18T10:20:09Z</time>
      </trkpt>
      <trkpt lat="43.6551" lon="1.39023">
        <ele>121</ele>
        <time>2025-04-18T10:20:10Z</time>
      </trkpt>
      <trkpt lat="43.65507" lon="1.39022">
        <ele>121</ele>
        <time>2025-04-18T10:20:11Z</time>
      </trkpt>
      <trkpt lat="43.65504" lon="1.39022">
        <ele>121</ele>
        <time>2025-04-18T10:20:12Z</time>
      </trkpt>
      <trkpt lat="43.65504" lon="1.39022">
        <ele>121</ele>
        <time>2025-04-18T10:20:13Z</time>
      </trkpt>
      <trkpt lat="43.65499" lon="1.39021">
        <ele>121</ele>
        <time>2025-04-18T10:20:14Z</time>
      </trkpt>
      <trkpt lat="43.65499" lon="1.39021">
        <ele>122</ele>
        <time>2025-04-18T10:20:15Z</time>
      </trkpt>
      <trkpt lat="43.65494" lon="1.39019">
        <ele>122</ele>
        <time>2025-04-18T10:20:16Z</time>
      </trkpt>
      <trkpt lat="43.65491" lon="1.39018">
        <ele>122</ele>
        <time>2025-04-18T10:20:17Z</time>
      </trkpt>
      <trkpt lat="43.65488" lon="1.39017">
        <ele>122</ele>
        <time>2025-04-18T10:20:18Z</time>
      </trkpt>
      <trkpt lat="43.65486" lon="1.39016">
        <ele>122</ele>
        <time>2025-04-18T10:20:19Z</time>
      </trkpt>
      <trkpt lat="43.65486" lon="1.39016">
        <ele>122</ele>
        <time>2025-04-18T10:20:20Z</time>
      </trkpt>
      <trkpt lat="43.65482" lon="1.39013">
        <ele>122</ele>
        <time>2025-04-18T10:20:21Z</time>
      </trkpt>
      <trkpt lat="43.6548" lon="1.39012">
        <ele>122</ele>
        <time>2025-04-18T10:20:22Z</time>
      </trkpt>
      <trkpt lat="43.65478" lon="1.3901">
        <ele>122</ele>
        <time>2025-04-18T10:20:23Z</time>
      </trkpt>
      <trkpt lat="43.65476" lon="1.39008">
        <ele>122</ele>
        <time>2025-04-18T10:20:24Z</time>
      </trkpt>
      <trkpt lat="43.65473" lon="1.39005">
        <ele>122</ele>
        <time>2025-04-18T10:20:25Z</time>
      </trkpt>
      <trkpt lat="43.65471" lon="1.39003">
        <ele>123</ele>
        <time>2025-04-18T10:20:27Z</time>
      </trkpt>
      <trkpt lat="43.65466" lon="1.38998">
        <ele>123</ele>
        <time>2025-04-18T10:20:28Z</time>
      </trkpt>
      <trkpt lat="43.65465" lon="1.38996">
        <ele>123</ele>
        <time>2025-04-18T10:20:29Z</time>
      </trkpt>
      <trkpt lat="43.65463" lon="1.38993">
        <ele>122</ele>
        <time>2025-04-18T10:20:30Z</time>
      </trkpt>
      <trkpt lat="43.65462" lon="1.38991">
        <ele>122</ele>
        <time>2025-04-18T10:20:31Z</time>
      </trkpt>
      <trkpt lat="43.65462" lon="1.38991">
        <ele>122</ele>
        <time>2025-04-18T10:20:32Z</time>
      </trkpt>
      <trkpt lat="43.65459" lon="1.38985">
        <ele>122</ele>
        <time>2025-04-18T10:20:33Z</time>
      </trkpt>
      <trkpt lat="43.65459" lon="1.38985">
        <ele>122</ele>
        <time>2025-04-18T10:20:34Z</time>
      </trkpt>
      <trkpt lat="43.65458" lon="1.38982">
        <ele>122</ele>
        <time>2025-04-18T10:20:35Z</time>
      </trkpt>
      <trkpt lat="43.65457" lon="1.38979">
        <ele>122</ele>
        <time>2025-04-18T10:20:36Z</time>
      </trkpt>
      <trkpt lat="43.65456" lon="1.38976">
        <ele>122</ele>
        <time>2025-04-18T10:20:37Z</time>
      </trkpt>
      <trkpt lat="43.65455" lon="1.38974">
        <ele>122</ele>
        <time>2025-04-18T10:20:38Z</time>
      </trkpt>
      <trkpt lat="43.65454" lon="1.38971">
        <ele>122</ele>
        <time>2025-04-18T10:20:39Z</time>
      </trkpt>
      <trkpt lat="43.65452" lon="1.38968">
        <ele>122</ele>
        <time>2025-04-18T10:20:40Z</time>
      </trkpt>
      <trkpt lat="43.65451" lon="1.38965">
        <ele>123</ele>
        <time>2025-04-18T10:20:41Z</time>
      </trkpt>
      <trkpt lat="43.6545" lon="1.38962">
        <ele>123</ele>
        <time>2025-04-18T10:20:42Z</time>
      </trkpt>
      <trkpt lat="43.65448" lon="1.38959">
        <ele>123</ele>
        <time>2025-04-18T10:20:43Z</time>
      </trkpt>
      <trkpt lat="43.65447" lon="1.38956">
        <ele>123</ele>
        <time>2025-04-18T10:20:44Z</time>
      </trkpt>
      <trkpt lat="43.65445" lon="1.38952">
        <ele>123</ele>
        <time>2025-04-18T10:20:45Z</time>
      </trkpt>
      <trkpt lat="43.65443" lon="1.38949">
        <ele>123</ele>
        <time>2025-04-18T10:20:46Z</time>
      </trkpt>
      <trkpt lat="43.65443" lon="1.38949">
        <ele>123</ele>
        <time>2025-04-18T10:20:47Z</time>
      </trkpt>
      <trkpt lat="43.65443" lon="1.38949">
        <ele>123</ele>
        <time>2025-04-18T10:20:48Z</time>
      </trkpt>
      <trkpt lat="43.65442" lon="1.38945">
        <ele>123</ele>
        <time>2025-04-18T10:20:49Z</time>
      </trkpt>
      <trkpt lat="43.65441" lon="1.38942">
        <ele>123</ele>
        <time>2025-04-18T10:20:50Z</time>
      </trkpt>
      <trkpt lat="43.65441" lon="1.38942">
        <ele>123</ele>
        <time>2025-04-18T10:20:51Z</time>
      </trkpt>
      <trkpt lat="43.65439" lon="1.38939">
        <ele>124</ele>
        <time>2025-04-18T10:20:52Z</time>
      </trkpt>
      <trkpt lat="43.65439" lon="1.38939">
        <ele>125</ele>
        <time>2025-04-18T10:20:53Z</time>
      </trkpt>
      <trkpt lat="43.65438" lon="1.38937">
        <ele>125</ele>
        <time>2025-04-18T10:20:54Z</time>
      </trkpt>
      <trkpt lat="43.65438" lon="1.38937">
        <ele>125</ele>
        <time>2025-04-18T10:20:55Z</time>
      </trkpt>
      <trkpt lat="43.65436" lon="1.38934">
        <ele>125</ele>
        <time>2025-04-18T10:20:56Z</time>
      </trkpt>
      <trkpt lat="43.65436" lon="1.38934">
        <ele>126</ele>
        <time>2025-04-18T10:20:57Z</time>
      </trkpt>
      <trkpt lat="43.65436" lon="1.38931">
        <ele>126</ele>
        <time>2025-04-18T10:20:58Z</time>
      </trkpt>
      <trkpt lat="43.65436" lon="1.38931">
        <ele>126</ele>
        <time>2025-04-18T10:20:59Z</time>
      </trkpt>
      <trkpt lat="43.65435" lon="1.38927">
        <ele>126</ele>
        <time>2025-04-18T10:21:00Z</time>
      </trkpt>
      <trkpt lat="43.65435" lon="1.38927">
        <ele>127</ele>
        <time>2025-04-18T10:21:01Z</time>
      </trkpt>
      <trkpt lat="43.65435" lon="1.38927">
        <ele>127</ele>
        <time>2025-04-18T10:21:02Z</time>
      </trkpt>
      <trkpt lat="43.65434" lon="1.38925">
        <ele>127</ele>
        <time>2025-04-18T10:21:03Z</time>
      </trkpt>
      <trkpt lat="43.65432" lon="1.38923">
        <ele>128</ele>
        <time>2025-04-18T10:21:04Z</time>
      </trkpt>
      <trkpt lat="43.65432" lon="1.38923">
        <ele>128</ele>
        <time>2025-04-18T10:21:05Z</time>
      </trkpt>
      <trkpt lat="43.65431" lon="1.38921">
        <ele>128</ele>
        <time>2025-04-18T10:21:06Z</time>
      </trkpt>
      <trkpt lat="43.65431" lon="1.38921">
        <ele>128</ele>
        <time>2025-04-18T10:21:07Z</time>
      </trkpt>
      <trkpt lat="43.6543" lon="1.38917">
        <ele>128</ele>
        <time>2025-04-18T10:21:08Z</time>
      </trkpt>
      <trkpt lat="43.6543" lon="1.38917">
        <ele>128</ele>
        <time>2025-04-18T10:21:09Z</time>
      </trkpt>
      <trkpt lat="43.65428" lon="1.38915">
        <ele>128</ele>
        <time>2025-04-18T10:21:10Z</time>
      </trkpt>
      <trkpt lat="43.65428" lon="1.38915">
        <ele>129</ele>
        <time>2025-04-18T10:21:11Z</time>
      </trkpt>
      <trkpt lat="43.65426" lon="1.38914">
        <ele>129</ele>
        <time>2025-04-18T10:21:12Z</time>
      </trkpt>
      <trkpt lat="43.65426" lon="1.38914">
        <ele>129</ele>
        <time>2025-04-18T10:21:13Z</time>
      </trkpt>
      <trkpt lat="43.65426" lon="1.38914">
        <ele>129</ele>
        <time>2025-04-18T10:21:14Z</time>
      </trkpt>
      <trkpt lat="43.65424" lon="1.38914">
        <ele>130</ele>
        <time>2025-04-18T10:21:15Z</time>
      </trkpt>
      <trkpt lat="43.65422" lon="1.38911">
        <ele>130</ele>
        <time>2025-04-18T10:21:16Z</time>
      </trkpt>
      <trkpt lat="43.65422" lon="1.38911">
        <ele>130</ele>
        <time>2025-04-18T10:21:17Z</time>
      </trkpt>
      <trkpt lat="43.65421" lon="1.38908">
        <ele>130</ele>
        <time>2025-04-18T10:21:18Z</time>
      </trkpt>
      <trkpt lat="43.65421" lon="1.38908">
        <ele>130</ele>
        <time>2025-04-18T10:21:19Z</time>
      </trkpt>
      <trkpt lat="43.65419" lon="1.38903">
        <ele>130</ele>
        <time>2025-04-18T10:21:20Z</time>
      </trkpt>
      <trkpt lat="43.65419" lon="1.38903">
        <ele>130</ele>
        <time>2025-04-18T10:21:21Z</time>
      </trkpt>
      <trkpt lat="43.65418" lon="1.38901">
        <ele>130</ele>
        <time>2025-04-18T10:21:22Z</time>
      </trkpt>
      <trkpt lat="43.65417" lon="1.38897">
        <ele>130</ele>
        <time>2025-04-18T10:21:23Z</time>
      </trkpt>
      <trkpt lat="43.65417" lon="1.38897">
        <ele>130</ele>
        <time>2025-04-18T10:21:24Z</time>
      </trkpt>
      <trkpt lat="43.65416" lon="1.38893">
        <ele>130</ele>
        <time>2025-04-18T10:21:25Z</time>
      </trkpt>
      <trkpt lat="43.65416" lon="1.38893">
        <ele>131</ele>
        <time>2025-04-18T10:21:26Z</time>
      </trkpt>
      <trkpt lat="43.65414" lon="1.38889">
        <ele>131</ele>
        <time>2025-04-18T10:21:27Z</time>
      </trkpt>
      <trkpt lat="43.65414" lon="1.38889">
        <ele>131</ele>
        <time>2025-04-18T10:21:28Z</time>
      </trkpt>
      <trkpt lat="43.65415" lon="1.38884">
        <ele>131</ele>
        <time>2025-04-18T10:21:29Z</time>
      </trkpt>
      <trkpt lat="43.65415" lon="1.38884">
        <ele>131</ele>
        <time>2025-04-18T10:21:30Z</time>
      </trkpt>
      <trkpt lat="43.65414" lon="1.38881">
        <ele>131</ele>
        <time>2025-04-18T10:21:31Z</time>
      </trkpt>
      <trkpt lat="43.65414" lon="1.38881">
        <ele>131</ele>
        <time>2025-04-18T10:21:32Z</time>
      </trkpt>
      <trkpt lat="43.65414" lon="1.38877">
        <ele>132</ele>
        <time>2025-04-18T10:21:33Z</time>
      </trkpt>
      <trkpt lat="43.65414" lon="1.38877">
        <ele>132</ele>
        <time>2025-04-18T10:21:34Z</time>
      </trkpt>
      <trkpt lat="43.65414" lon="1.38874">
        <ele>132</ele>
        <time>2025-04-18T10:21:35Z</time>
      </trkpt>
      <trkpt lat="43.65414" lon="1.38874">
        <ele>132</ele>
        <time>2025-04-18T10:21:36Z</time>
      </trkpt>
      <trkpt lat="43.65414" lon="1.38871">
        <ele>132</ele>
        <time>2025-04-18T10:21:37Z</time>
      </trkpt>
      <trkpt lat="43.65414" lon="1.38871">
        <ele>132</ele>
        <time>2025-04-18T10:21:38Z</time>
      </trkpt>
      <trkpt lat="43.65414" lon="1.38868">
        <ele>132</ele>
        <time>2025-04-18T10:21:39Z</time>
      </trkpt>
      <trkpt lat="43.65414" lon="1.38868">
        <ele>132</ele>
        <time>2025-04-18T10:21:40Z</time>
      </trkpt>
      <trkpt lat="43.65414" lon="1.38868">
        <ele>133</ele>
        <time>2025-04-18T10:21:41Z</time>
      </trkpt>
      <trkpt lat="43.65412" lon="1.38865">
        <ele>133</ele>
        <time>2025-04-18T10:21:42Z</time>
      </trkpt>
      <trkpt lat="43.65412" lon="1.38865">
        <ele>133</ele>
        <time>2025-04-18T10:21:43Z</time>
      </trkpt>
      <trkpt lat="43.6541" lon="1.38862">
        <ele>133</ele>
        <time>2025-04-18T10:21:44Z</time>
      </trkpt>
      <trkpt lat="43.6541" lon="1.38862">
        <ele>133</ele>
        <time>2025-04-18T10:21:45Z</time>
      </trkpt>
      <trkpt lat="43.65407" lon="1.3886">
        <ele>134</ele>
        <time>2025-04-18T10:21:46Z</time>
      </trkpt>
      <trkpt lat="43.65407" lon="1.3886">
        <ele>134</ele>
        <time>2025-04-18T10:21:47Z</time>
      </trkpt>
      <trkpt lat="43.65404" lon="1.3886">
        <ele>134</ele>
        <time>2025-04-18T10:21:48Z</time>
      </trkpt>
      <trkpt lat="43.65402" lon="1.3886">
        <ele>134</ele>
        <time>2025-04-18T10:21:49Z</time>
      </trkpt>
      <trkpt lat="43.65402" lon="1.3886">
        <ele>134</ele>
        <time>2025-04-18T10:21:50Z</time>
      </trkpt>
      <trkpt lat="43.65399" lon="1.38861">
        <ele>134</ele>
        <time>2025-04-18T10:21:51Z</time>
      </trkpt>
      <trkpt lat="43.65399" lon="1.38861">
        <ele>134</ele>
        <time>2025-04-18T10:21:52Z</time>
      </trkpt>
      <trkpt lat="43.65397" lon="1.38861">
        <ele>134</ele>
        <time>2025-04-18T10:21:53Z</time>
      </trkpt>
      <trkpt lat="43.65393" lon="1.38862">
        <ele>134</ele>
        <time>2025-04-18T10:21:54Z</time>
      </trkpt>
      <trkpt lat="43.65391" lon="1.38862">
        <ele>134</ele>
        <time>2025-04-18T10:21:55Z</time>
      </trkpt>
      <trkpt lat="43.65389" lon="1.38861">
        <ele>134</ele>
        <time>2025-04-18T10:21:56Z</time>
      </trkpt>
      <trkpt lat="43.65389" lon="1.38861">
        <ele>134</ele>
        <time>2025-04-18T10:21:57Z</time>
      </trkpt>
      <trkpt lat="43.65384" lon="1.38859">
        <ele>134</ele>
        <time>2025-04-18T10:21:58Z</time>
      </trkpt>
      <trkpt lat="43.6538" lon="1.38858">
        <ele>134</ele>
        <time>2025-04-18T10:21:59Z</time>
      </trkpt>
      <trkpt lat="43.6538" lon="1.38858">
        <ele>134</ele>
        <time>2025-04-18T10:22:00Z</time>
      </trkpt>
      <trkpt lat="43.65374" lon="1.38856">
        <ele>134</ele>
        <time>2025-04-18T10:22:01Z</time>
      </trkpt>
      <trkpt lat="43.65374" lon="1.38856">
        <ele>134</ele>
        <time>2025-04-18T10:22:02Z</time>
      </trkpt>
      <trkpt lat="43.65368" lon="1.38852">
        <ele>134</ele>
        <time>2025-04-18T10:22:03Z</time>
      </trkpt>
      <trkpt lat="43.65366" lon="1.3885">
        <ele>134</ele>
        <time>2025-04-18T10:22:04Z</time>
      </trkpt>
      <trkpt lat="43.65364" lon="1.38847">
        <ele>134</ele>
        <time>2025-04-18T10:22:05Z</time>
      </trkpt>
      <trkpt lat="43.65361" lon="1.38845">
        <ele>134</ele>
        <time>2025-04-18T10:22:06Z</time>
      </trkpt>
      <trkpt lat="43.6536" lon="1.38842">
        <ele>134</ele>
        <time>2025-04-18T10:22:07Z</time>
      </trkpt>
      <trkpt lat="43.65358" lon="1.3884">
        <ele>134</ele>
        <time>2025-04-18T10:22:08Z</time>
      </trkpt>
      <trkpt lat="43.65355" lon="1.38837">
        <ele>134</ele>
        <time>2025-04-18T10:22:09Z</time>
      </trkpt>
      <trkpt lat="43.65353" lon="1.38834">
        <ele>134</ele>
        <time>2025-04-18T10:22:10Z</time>
      </trkpt>
      <trkpt lat="43.65353" lon="1.38834">
        <ele>135</ele>
        <time>2025-04-18T10:22:11Z</time>
      </trkpt>
      <trkpt lat="43.65348" lon="1.38828">
        <ele>135</ele>
        <time>2025-04-18T10:22:12Z</time>
      </trkpt>
      <trkpt lat="43.65346" lon="1.38825">
        <ele>135</ele>
        <time>2025-04-18T10:22:13Z</time>
      </trkpt>
      <trkpt lat="43.65344" lon="1.38822">
        <ele>135</ele>
        <time>2025-04-18T10:22:14Z</time>
      </trkpt>
      <trkpt lat="43.65342" lon="1.3882">
        <ele>135</ele>
        <time>2025-04-18T10:22:15Z</time>
      </trkpt>
      <trkpt lat="43.65342" lon="1.3882">
        <ele>135</ele>
        <time>2025-04-18T10:22:16Z</time>
      </trkpt>
      <trkpt lat="43.65338" lon="1.38814">
        <ele>135</ele>
        <time>2025-04-18T10:22:17Z</time>
      </trkpt>
      <trkpt lat="43.65338" lon="1.38814">
        <ele>135</ele>
        <time>2025-04-18T10:22:18Z</time>
      </trkpt>
      <trkpt lat="43.65335" lon="1.38808">
        <ele>135</ele>
        <time>2025-04-18T10:22:19Z</time>
      </trkpt>
      <trkpt lat="43.65333" lon="1.38804">
        <ele>135</ele>
        <time>2025-04-18T10:22:20Z</time>
      </trkpt>
      <trkpt lat="43.65333" lon="1.38804">
        <ele>135</ele>
        <time>2025-04-18T10:22:21Z</time>
      </trkpt>
      <trkpt lat="43.65331" lon="1.38798">
        <ele>135</ele>
        <time>2025-04-18T10:22:22Z</time>
      </trkpt>
      <trkpt lat="43.65329" lon="1.38795">
        <ele>135</ele>
        <time>2025-04-18T10:22:23Z</time>
      </trkpt>
      <trkpt lat="43.65328" lon="1.38791">
        <ele>135</ele>
        <time>2025-04-18T10:22:24Z</time>
      </trkpt>
      <trkpt lat="43.65328" lon="1.38791">
        <ele>135</ele>
        <time>2025-04-18T10:22:25Z</time>
      </trkpt>
      <trkpt lat="43.65326" lon="1.38784">
        <ele>135</ele>
        <time>2025-04-18T10:22:26Z</time>
      </trkpt>
      <trkpt lat="43.65325" lon="1.38781">
        <ele>135</ele>
        <time>2025-04-18T10:22:27Z</time>
      </trkpt>
      <trkpt lat="43.65324" lon="1.38778">
        <ele>135</ele>
        <time>2025-04-18T10:22:28Z</time>
      </trkpt>
      <trkpt lat="43.65323" lon="1.38774">
        <ele>135</ele>
        <time>2025-04-18T10:22:29Z</time>
      </trkpt>
      <trkpt lat="43.65323" lon="1.38774">
        <ele>135</ele>
        <time>2025-04-18T10:22:30Z</time>
      </trkpt>
      <trkpt lat="43.65321" lon="1.38767">
        <ele>135</ele>
        <time>2025-04-18T10:22:31Z</time>
      </trkpt>
      <trkpt lat="43.6532" lon="1.38764">
        <ele>135</ele>
        <time>2025-04-18T10:22:32Z</time>
      </trkpt>
      <trkpt lat="43.65319" lon="1.38761">
        <ele>135</ele>
        <time>2025-04-18T10:22:33Z</time>
      </trkpt>
      <trkpt lat="43.65318" lon="1.38758">
        <ele>134</ele>
        <time>2025-04-18T10:22:34Z</time>
      </trkpt>
      <trkpt lat="43.65316" lon="1.38754">
        <ele>134</ele>
        <time>2025-04-18T10:22:35Z</time>
      </trkpt>
      <trkpt lat="43.65315" lon="1.38751">
        <ele>134</ele>
        <time>2025-04-18T10:22:36Z</time>
      </trkpt>
      <trkpt lat="43.65314" lon="1.38748">
        <ele>134</ele>
        <time>2025-04-18T10:22:37Z</time>
      </trkpt>
      <trkpt lat="43.65313" lon="1.38745">
        <ele>134</ele>
        <time>2025-04-18T10:22:38Z</time>
      </trkpt>
      <trkpt lat="43.65313" lon="1.38745">
        <ele>134</ele>
        <time>2025-04-18T10:22:39Z</time>
      </trkpt>
      <trkpt lat="43.65311" lon="1.38737">
        <ele>134</ele>
        <time>2025-04-18T10:22:40Z</time>
      </trkpt>
      <trkpt lat="43.6531" lon="1.38733">
        <ele>134</ele>
        <time>2025-04-18T10:22:41Z</time>
      </trkpt>
      <trkpt lat="43.65309" lon="1.3873">
        <ele>134</ele>
        <time>2025-04-18T10:22:42Z</time>
      </trkpt>
      <trkpt lat="43.65309" lon="1.3873">
        <ele>134</ele>
        <time>2025-04-18T10:22:43Z</time>
      </trkpt>
      <trkpt lat="43.65307" lon="1.38724">
        <ele>134</ele>
        <time>2025-04-18T10:22:44Z</time>
      </trkpt>
      <trkpt lat="43.65306" lon="1.38721">
        <ele>134</ele>
        <time>2025-04-18T10:22:45Z</time>
      </trkpt>
      <trkpt lat="43.65305" lon="1.38717">
        <ele>134</ele>
        <time>2025-04-18T10:22:46Z</time>
      </trkpt>
      <trkpt lat="43.65305" lon="1.38712">
        <ele>134</ele>
        <time>2025-04-18T10:22:47Z</time>
      </trkpt>
      <trkpt lat="43.65304" lon="1.38708">
        <ele>134</ele>
        <time>2025-04-18T10:22:48Z</time>
      </trkpt>
      <trkpt lat="43.65303" lon="1.38704">
        <ele>134</ele>
        <time>2025-04-18T10:22:49Z</time>
      </trkpt>
      <trkpt lat="43.65303" lon="1.38704">
        <ele>134</ele>
        <time>2025-04-18T10:22:50Z</time>
      </trkpt>
      <trkpt lat="43.653" lon="1.38696">
        <ele>134</ele>
        <time>2025-04-18T10:22:51Z</time>
      </trkpt>
      <trkpt lat="43.65298" lon="1.38692">
        <ele>134</ele>
        <time>2025-04-18T10:22:52Z</time>
      </trkpt>
      <trkpt lat="43.65297" lon="1.38689">
        <ele>134</ele>
        <time>2025-04-18T10:22:53Z</time>
      </trkpt>
      <trkpt lat="43.65297" lon="1.38689">
        <ele>134</ele>
        <time>2025-04-18T10:22:54Z</time>
      </trkpt>
      <trkpt lat="43.65294" lon="1.38682">
        <ele>134</ele>
        <time>2025-04-18T10:22:55Z</time>
      </trkpt>
      <trkpt lat="43.65293" lon="1.38679">
        <ele>134</ele>
        <time>2025-04-18T10:22:56Z</time>
      </trkpt>
      <trkpt lat="43.65293" lon="1.38679">
        <ele>134</ele>
        <time>2025-04-18T10:22:57Z</time>
      </trkpt>
      <trkpt lat="43.6529" lon="1.38671">
        <ele>134</ele>
        <time>2025-04-18T10:22:58Z</time>
      </trkpt>
      <trkpt lat="43.6529" lon="1.38671">
        <ele>134</ele>
        <time>2025-04-18T10:22:59Z</time>
      </trkpt>
      <trkpt lat="43.65288" lon="1.38663">
        <ele>134</ele>
        <time>2025-04-18T10:23:00Z</time>
      </trkpt>
      <trkpt lat="43.65287" lon="1.3866">
        <ele>134</ele>
        <time>2025-04-18T10:23:01Z</time>
      </trkpt>
      <trkpt lat="43.65286" lon="1.38657">
        <ele>134</ele>
        <time>2025-04-18T10:23:02Z</time>
      </trkpt>
      <trkpt lat="43.65285" lon="1.38654">
        <ele>134</ele>
        <time>2025-04-18T10:23:03Z</time>
      </trkpt>
      <trkpt lat="43.65283" lon="1.38651">
        <ele>134</ele>
        <time>2025-04-18T10:23:04Z</time>
      </trkpt>
      <trkpt lat="43.65282" lon="1.38648">
        <ele>134</ele>
        <time>2025-04-18T10:23:05Z</time>
      </trkpt>
      <trkpt lat="43.65281" lon="1.38645">
        <ele>134</ele>
        <time>2025-04-18T10:23:06Z</time>
      </trkpt>
      <trkpt lat="43.65279" lon="1.38643">
        <ele>134</ele>
        <time>2025-04-18T10:23:07Z</time>
      </trkpt>
      <trkpt lat="43.65277" lon="1.3864">
        <ele>134</ele>
        <time>2025-04-18T10:23:08Z</time>
      </trkpt>
      <trkpt lat="43.65275" lon="1.38638">
        <ele>134</ele>
        <time>2025-04-18T10:23:09Z</time>
      </trkpt>
      <trkpt lat="43.65275" lon="1.38638">
        <ele>134</ele>
        <time>2025-04-18T10:23:10Z</time>
      </trkpt>
      <trkpt lat="43.65272" lon="1.38633">
        <ele>134</ele>
        <time>2025-04-18T10:23:11Z</time>
      </trkpt>
      <trkpt lat="43.6527" lon="1.38631">
        <ele>134</ele>
        <time>2025-04-18T10:23:12Z</time>
      </trkpt>
      <trkpt lat="43.65268" lon="1.38628">
        <ele>134</ele>
        <time>2025-04-18T10:23:13Z</time>
      </trkpt>
      <trkpt lat="43.65266" lon="1.38625">
        <ele>134</ele>
        <time>2025-04-18T10:23:14Z</time>
      </trkpt>
      <trkpt lat="43.65264" lon="1.38622">
        <ele>133</ele>
        <time>2025-04-18T10:23:15Z</time>
      </trkpt>
      <trkpt lat="43.65263" lon="1.3862">
        <ele>133</ele>
        <time>2025-04-18T10:23:16Z</time>
      </trkpt>
      <trkpt lat="43.65263" lon="1.3862">
        <ele>133</ele>
        <time>2025-04-18T10:23:17Z</time>
      </trkpt>
      <trkpt lat="43.65259" lon="1.38614">
        <ele>133</ele>
        <time>2025-04-18T10:23:18Z</time>
      </trkpt>
      <trkpt lat="43.65258" lon="1.38611">
        <ele>133</ele>
        <time>2025-04-18T10:23:19Z</time>
      </trkpt>
      <trkpt lat="43.65257" lon="1.38607">
        <ele>133</ele>
        <time>2025-04-18T10:23:20Z</time>
      </trkpt>
      <trkpt lat="43.65255" lon="1.38604">
        <ele>133</ele>
        <time>2025-04-18T10:23:21Z</time>
      </trkpt>
      <trkpt lat="43.65254" lon="1.386">
        <ele>133</ele>
        <time>2025-04-18T10:23:22Z</time>
      </trkpt>
      <trkpt lat="43.65254" lon="1.386">
        <ele>133</ele>
        <time>2025-04-18T10:23:23Z</time>
      </trkpt>
      <trkpt lat="43.65251" lon="1.38594">
        <ele>133</ele>
        <time>2025-04-18T10:23:24Z</time>
      </trkpt>
      <trkpt lat="43.65251" lon="1.3859">
        <ele>133</ele>
        <time>2025-04-18T10:23:25Z</time>
      </trkpt>
      <trkpt lat="43.65249" lon="1.38587">
        <ele>133</ele>
        <time>2025-04-18T10:23:26Z</time>
      </trkpt>
      <trkpt lat="43.65248" lon="1.38583">
        <ele>133</ele>
        <time>2025-04-18T10:23:27Z</time>
      </trkpt>
      <trkpt lat="43.65247" lon="1.38579">
        <ele>133</ele>
        <time>2025-04-18T10:23:28Z</time>
      </trkpt>
      <trkpt lat="43.65246" lon="1.38576">
        <ele>133</ele>
        <time>2025-04-18T10:23:29Z</time>
      </trkpt>
      <trkpt lat="43.65245" lon="1.38572">
        <ele>133</ele>
        <time>2025-04-18T10:23:30Z</time>
      </trkpt>
      <trkpt lat="43.65245" lon="1.38572">
        <ele>133</ele>
        <time>2025-04-18T10:23:31Z</time>
      </trkpt>
      <trkpt lat="43.65243" lon="1.38565">
        <ele>133</ele>
        <time>2025-04-18T10:23:32Z</time>
      </trkpt>
      <trkpt lat="43.65243" lon="1.38565">
        <ele>134</ele>
        <time>2025-04-18T10:23:33Z</time>
      </trkpt>
      <trkpt lat="43.65241" lon="1.38556">
        <ele>134</ele>
        <time>2025-04-18T10:23:34Z</time>
      </trkpt>
      <trkpt lat="43.6524" lon="1.38553">
        <ele>134</ele>
        <time>2025-04-18T10:23:35Z</time>
      </trkpt>
      <trkpt lat="43.6524" lon="1.38553">
        <ele>134</ele>
        <time>2025-04-18T10:23:36Z</time>
      </trkpt>
      <trkpt lat="43.65238" lon="1.38546">
        <ele>133</ele>
        <time>2025-04-18T10:23:37Z</time>
      </trkpt>
      <trkpt lat="43.65237" lon="1.38542">
        <ele>133</ele>
        <time>2025-04-18T10:23:38Z</time>
      </trkpt>
      <trkpt lat="43.65237" lon="1.38538">
        <ele>133</ele>
        <time>2025-04-18T10:23:39Z</time>
      </trkpt>
      <trkpt lat="43.65237" lon="1.38534">
        <ele>134</ele>
        <time>2025-04-18T10:23:40Z</time>
      </trkpt>
      <trkpt lat="43.65236" lon="1.3853">
        <ele>134</ele>
        <time>2025-04-18T10:23:41Z</time>
      </trkpt>
      <trkpt lat="43.65236" lon="1.3853">
        <ele>134</ele>
        <time>2025-04-18T10:23:42Z</time>
      </trkpt>
      <trkpt lat="43.65234" lon="1.38522">
        <ele>134</ele>
        <time>2025-04-18T10:23:43Z</time>
      </trkpt>
      <trkpt lat="43.65233" lon="1.38517">
        <ele>134</ele>
        <time>2025-04-18T10:23:44Z</time>
      </trkpt>
      <trkpt lat="43.65232" lon="1.38513">
        <ele>134</ele>
        <time>2025-04-18T10:23:45Z</time>
      </trkpt>
      <trkpt lat="43.65231" lon="1.3851">
        <ele>134</ele>
        <time>2025-04-18T10:23:46Z</time>
      </trkpt>
      <trkpt lat="43.65229" lon="1.38507">
        <ele>134</ele>
        <time>2025-04-18T10:23:47Z</time>
      </trkpt>
      <trkpt lat="43.65229" lon="1.38507">
        <ele>134</ele>
        <time>2025-04-18T10:23:48Z</time>
      </trkpt>
      <trkpt lat="43.65227" lon="1.38499">
        <ele>134</ele>
        <time>2025-04-18T10:23:49Z</time>
      </trkpt>
      <trkpt lat="43.65226" lon="1.38495">
        <ele>134</ele>
        <time>2025-04-18T10:23:50Z</time>
      </trkpt>
      <trkpt lat="43.65225" lon="1.38491">
        <ele>133</ele>
        <time>2025-04-18T10:23:51Z</time>
      </trkpt>
      <trkpt lat="43.65223" lon="1.38487">
        <ele>134</ele>
        <time>2025-04-18T10:23:52Z</time>
      </trkpt>
      <trkpt lat="43.65222" lon="1.38484">
        <ele>134</ele>
        <time>2025-04-18T10:23:53Z</time>
      </trkpt>
      <trkpt lat="43.65221" lon="1.38481">
        <ele>134</ele>
        <time>2025-04-18T10:23:54Z</time>
      </trkpt>
      <trkpt lat="43.65219" lon="1.38477">
        <ele>134</ele>
        <time>2025-04-18T10:23:55Z</time>
      </trkpt>
      <trkpt lat="43.65219" lon="1.38477">
        <ele>134</ele>
        <time>2025-04-18T10:23:56Z</time>
      </trkpt>
      <trkpt lat="43.65217" lon="1.38471">
        <ele>134</ele>
        <time>2025-04-18T10:23:57Z</time>
      </trkpt>
      <trkpt lat="43.65216" lon="1.38467">
        <ele>134</ele>
        <time>2025-04-18T10:23:58Z</time>
      </trkpt>
      <trkpt lat="43.65214" lon="1.38464">
        <ele>134</ele>
        <time>2025-04-18T10:23:59Z</time>
      </trkpt>
      <trkpt lat="43.65213" lon="1.3846">
        <ele>134</ele>
        <time>2025-04-18T10:24:00Z</time>
      </trkpt>
      <trkpt lat="43.65213" lon="1.3846">
        <ele>134</ele>
        <time>2025-04-18T10:24:01Z</time>
      </trkpt>
      <trkpt lat="43.65211" lon="1.38453">
        <ele>134</ele>
        <time>2025-04-18T10:24:02Z</time>
      </trkpt>
      <trkpt lat="43.6521" lon="1.3845">
        <ele>134</ele>
        <time>2025-04-18T10:24:03Z</time>
      </trkpt>
      <trkpt lat="43.65209" lon="1.38446">
        <ele>134</ele>
        <time>2025-04-18T10:24:04Z</time>
      </trkpt>
      <trkpt lat="43.65209" lon="1.38446">
        <ele>134</ele>
        <time>2025-04-18T10:24:05Z</time>
      </trkpt>
      <trkpt lat="43.65208" lon="1.38437">
        <ele>135</ele>
        <time>2025-04-18T10:24:06Z</time>
      </trkpt>
      <trkpt lat="43.65207" lon="1.38433">
        <ele>135</ele>
        <time>2025-04-18T10:24:07Z</time>
      </trkpt>
      <trkpt lat="43.65206" lon="1.3843">
        <ele>135</ele>
        <time>2025-04-18T10:24:08Z</time>
      </trkpt>
      <trkpt lat="43.65205" lon="1.38426">
        <ele>135</ele>
        <time>2025-04-18T10:24:09Z</time>
      </trkpt>
      <trkpt lat="43.65203" lon="1.38422">
        <ele>135</ele>
        <time>2025-04-18T10:24:10Z</time>
      </trkpt>
      <trkpt lat="43.65202" lon="1.38418">
        <ele>135</ele>
        <time>2025-04-18T10:24:11Z</time>
      </trkpt>
      <trkpt lat="43.65202" lon="1.38418">
        <ele>135</ele>
        <time>2025-04-18T10:24:12Z</time>
      </trkpt>
      <trkpt lat="43.65199" lon="1.38412">
        <ele>135</ele>
        <time>2025-04-18T10:24:13Z</time>
      </trkpt>
      <trkpt lat="43.65197" lon="1.38409">
        <ele>135</ele>
        <time>2025-04-18T10:24:14Z</time>
      </trkpt>
      <trkpt lat="43.65195" lon="1.38405">
        <ele>135</ele>
        <time>2025-04-18T10:24:15Z</time>
      </trkpt>
      <trkpt lat="43.65194" lon="1.38402">
        <ele>135</ele>
        <time>2025-04-18T10:24:16Z</time>
      </trkpt>
      <trkpt lat="43.65192" lon="1.38399">
        <ele>135</ele>
        <time>2025-04-18T10:24:17Z</time>
      </trkpt>
      <trkpt lat="43.6519" lon="1.38397">
        <ele>135</ele>
        <time>2025-04-18T10:24:18Z</time>
      </trkpt>
      <trkpt lat="43.65188" lon="1.38394">
        <ele>135</ele>
        <time>2025-04-18T10:24:19Z</time>
      </trkpt>
      <trkpt lat="43.65187" lon="1.3839">
        <ele>136</ele>
        <time>2025-04-18T10:24:20Z</time>
      </trkpt>
      <trkpt lat="43.65187" lon="1.3839">
        <ele>136</ele>
        <time>2025-04-18T10:24:21Z</time>
      </trkpt>
      <trkpt lat="43.65186" lon="1.38383">
        <ele>136</ele>
        <time>2025-04-18T10:24:22Z</time>
      </trkpt>
      <trkpt lat="43.65186" lon="1.38379">
        <ele>136</ele>
        <time>2025-04-18T10:24:23Z</time>
      </trkpt>
      <trkpt lat="43.65185" lon="1.38375">
        <ele>136</ele>
        <time>2025-04-18T10:24:24Z</time>
      </trkpt>
      <trkpt lat="43.65185" lon="1.38375">
        <ele>136</ele>
        <time>2025-04-18T10:24:25Z</time>
      </trkpt>
      <trkpt lat="43.65185" lon="1.38368">
        <ele>136</ele>
        <time>2025-04-18T10:24:26Z</time>
      </trkpt>
      <trkpt lat="43.65184" lon="1.38364">
        <ele>136</ele>
        <time>2025-04-18T10:24:27Z</time>
      </trkpt>
      <trkpt lat="43.65184" lon="1.38364">
        <ele>136</ele>
        <time>2025-04-18T10:24:28Z</time>
      </trkpt>
      <trkpt lat="43.65183" lon="1.38356">
        <ele>137</ele>
        <time>2025-04-18T10:24:29Z</time>
      </trkpt>
      <trkpt lat="43.65183" lon="1.38356">
        <ele>137</ele>
        <time>2025-04-18T10:24:30Z</time>
      </trkpt>
      <trkpt lat="43.65182" lon="1.38349">
        <ele>137</ele>
        <time>2025-04-18T10:24:31Z</time>
      </trkpt>
      <trkpt lat="43.65182" lon="1.38345">
        <ele>137</ele>
        <time>2025-04-18T10:24:32Z</time>
      </trkpt>
      <trkpt lat="43.65181" lon="1.38341">
        <ele>137</ele>
        <time>2025-04-18T10:24:33Z</time>
      </trkpt>
      <trkpt lat="43.65181" lon="1.38338">
        <ele>137</ele>
        <time>2025-04-18T10:24:34Z</time>
      </trkpt>
      <trkpt lat="43.6518" lon="1.38334">
        <ele>137</ele>
        <time>2025-04-18T10:24:35Z</time>
      </trkpt>
      <trkpt lat="43.6518" lon="1.3833">
        <ele>137</ele>
        <time>2025-04-18T10:24:36Z</time>
      </trkpt>
      <trkpt lat="43.6518" lon="1.38326">
        <ele>137</ele>
        <time>2025-04-18T10:24:37Z</time>
      </trkpt>
      <trkpt lat="43.65179" lon="1.38322">
        <ele>137</ele>
        <time>2025-04-18T10:24:38Z</time>
      </trkpt>
      <trkpt lat="43.65179" lon="1.38318">
        <ele>137</ele>
        <time>2025-04-18T10:24:39Z</time>
      </trkpt>
      <trkpt lat="43.65178" lon="1.38314">
        <ele>137</ele>
        <time>2025-04-18T10:24:40Z</time>
      </trkpt>
      <trkpt lat="43.65178" lon="1.3831">
        <ele>137</ele>
        <time>2025-04-18T10:24:41Z</time>
      </trkpt>
      <trkpt lat="43.65178" lon="1.38307">
        <ele>137</ele>
        <time>2025-04-18T10:24:42Z</time>
      </trkpt>
      <trkpt lat="43.65177" lon="1.38303">
        <ele>136</ele>
        <time>2025-04-18T10:24:43Z</time>
      </trkpt>
      <trkpt lat="43.65177" lon="1.38299">
        <ele>136</ele>
        <time>2025-04-18T10:24:44Z</time>
      </trkpt>
      <trkpt lat="43.65176" lon="1.38295">
        <ele>136</ele>
        <time>2025-04-18T10:24:45Z</time>
      </trkpt>
      <trkpt lat="43.65175" lon="1.38291">
        <ele>135</ele>
        <time>2025-04-18T10:24:46Z</time>
      </trkpt>
      <trkpt lat="43.65175" lon="1.38287">
        <ele>136</ele>
        <time>2025-04-18T10:24:47Z</time>
      </trkpt>
      <trkpt lat="43.65174" lon="1.38284">
        <ele>136</ele>
        <time>2025-04-18T10:24:48Z</time>
      </trkpt>
      <trkpt lat="43.65173" lon="1.3828">
        <ele>136</ele>
        <time>2025-04-18T10:24:49Z</time>
      </trkpt>
      <trkpt lat="43.65173" lon="1.38276">
        <ele>136</ele>
        <time>2025-04-18T10:24:50Z</time>
      </trkpt>
      <trkpt lat="43.65172" lon="1.38272">
        <ele>136</ele>
        <time>2025-04-18T10:24:51Z</time>
      </trkpt>
      <trkpt lat="43.65171" lon="1.38269">
        <ele>136</ele>
        <time>2025-04-18T10:24:52Z</time>
      </trkpt>
      <trkpt lat="43.6517" lon="1.38265">
        <ele>136</ele>
        <time>2025-04-18T10:24:53Z</time>
      </trkpt>
      <trkpt lat="43.6517" lon="1.38261">
        <ele>136</ele>
        <time>2025-04-18T10:24:54Z</time>
      </trkpt>
      <trkpt lat="43.65169" lon="1.38257">
        <ele>136</ele>
        <time>2025-04-18T10:24:55Z</time>
      </trkpt>
      <trkpt lat="43.65168" lon="1.38254">
        <ele>136</ele>
        <time>2025-04-18T10:24:56Z</time>
      </trkpt>
      <trkpt lat="43.65167" lon="1.3825">
        <ele>136</ele>
        <time>2025-04-18T10:24:57Z</time>
      </trkpt>
      <trkpt lat="43.65166" lon="1.38246">
        <ele>136</ele>
        <time>2025-04-18T10:24:58Z</time>
      </trkpt>
      <trkpt lat="43.65165" lon="1.38242">
        <ele>137</ele>
        <time>2025-04-18T10:24:59Z</time>
      </trkpt>
      <trkpt lat="43.65165" lon="1.38238">
        <ele>137</ele>
        <time>2025-04-18T10:25:00Z</time>
      </trkpt>
      <trkpt lat="43.65164" lon="1.38234">
        <ele>137</ele>
        <time>2025-04-18T10:25:01Z</time>
      </trkpt>
      <trkpt lat="43.65164" lon="1.3823">
        <ele>137</ele>
        <time>2025-04-18T10:25:02Z</time>
      </trkpt>
      <trkpt lat="43.65164" lon="1.3823">
        <ele>137</ele>
        <time>2025-04-18T10:25:03Z</time>
      </trkpt>
      <trkpt lat="43.65164" lon="1.38222">
        <ele>137</ele>
        <time>2025-04-18T10:25:04Z</time>
      </trkpt>
      <trkpt lat="43.65164" lon="1.38219">
        <ele>138</ele>
        <time>2025-04-18T10:25:05Z</time>
      </trkpt>
      <trkpt lat="43.65164" lon="1.38215">
        <ele>138</ele>
        <time>2025-04-18T10:25:06Z</time>
      </trkpt>
      <trkpt lat="43.65164" lon="1.38211">
        <ele>137</ele>
        <time>2025-04-18T10:25:07Z</time>
      </trkpt>
      <trkpt lat="43.65164" lon="1.38207">
        <ele>137</ele>
        <time>2025-04-18T10:25:08Z</time>
      </trkpt>
      <trkpt lat="43.65163" lon="1.38204">
        <ele>137</ele>
        <time>2025-04-18T10:25:09Z</time>
      </trkpt>
      <trkpt lat="43.65163" lon="1.38204">
        <ele>137</ele>
        <time>2025-04-18T10:25:10Z</time>
      </trkpt>
      <trkpt lat="43.65165" lon="1.38196">
        <ele>137</ele>
        <time>2025-04-18T10:25:11Z</time>
      </trkpt>
      <trkpt lat="43.65165" lon="1.38196">
        <ele>137</ele>
        <time>2025-04-18T10:25:12Z</time>
      </trkpt>
      <trkpt lat="43.65168" lon="1.3819">
        <ele>137</ele>
        <time>2025-04-18T10:25:13Z</time>
      </trkpt>
      <trkpt lat="43.6517" lon="1.38188">
        <ele>137</ele>
        <time>2025-04-18T10:25:14Z</time>
      </trkpt>
      <trkpt lat="43.65172" lon="1.38186">
        <ele>137</ele>
        <time>2025-04-18T10:25:15Z</time>
      </trkpt>
      <trkpt lat="43.65174" lon="1.38184">
        <ele>137</ele>
        <time>2025-04-18T10:25:16Z</time>
      </trkpt>
      <trkpt lat="43.65177" lon="1.38182">
        <ele>137</ele>
        <time>2025-04-18T10:25:17Z</time>
      </trkpt>
      <trkpt lat="43.65177" lon="1.38182">
        <ele>137</ele>
        <time>2025-04-18T10:25:18Z</time>
      </trkpt>
      <trkpt lat="43.65181" lon="1.38178">
        <ele>137</ele>
        <time>2025-04-18T10:25:19Z</time>
      </trkpt>
      <trkpt lat="43.65183" lon="1.38176">
        <ele>137</ele>
        <time>2025-04-18T10:25:20Z</time>
      </trkpt>
      <trkpt lat="43.65183" lon="1.38176">
        <ele>137</ele>
        <time>2025-04-18T10:25:21Z</time>
      </trkpt>
      <trkpt lat="43.65187" lon="1.38171">
        <ele>137</ele>
        <time>2025-04-18T10:25:22Z</time>
      </trkpt>
      <trkpt lat="43.65187" lon="1.38171">
        <ele>137</ele>
        <time>2025-04-18T10:25:23Z</time>
      </trkpt>
      <trkpt lat="43.65192" lon="1.38166">
        <ele>137</ele>
        <time>2025-04-18T10:25:24Z</time>
      </trkpt>
      <trkpt lat="43.65192" lon="1.38166">
        <ele>137</ele>
        <time>2025-04-18T10:25:25Z</time>
      </trkpt>
      <trkpt lat="43.65196" lon="1.38162">
        <ele>138</ele>
        <time>2025-04-18T10:25:26Z</time>
      </trkpt>
      <trkpt lat="43.65198" lon="1.3816">
        <ele>138</ele>
        <time>2025-04-18T10:25:27Z</time>
      </trkpt>
      <trkpt lat="43.65198" lon="1.3816">
        <ele>138</ele>
        <time>2025-04-18T10:25:28Z</time>
      </trkpt>
      <trkpt lat="43.65202" lon="1.38155">
        <ele>138</ele>
        <time>2025-04-18T10:25:29Z</time>
      </trkpt>
      <trkpt lat="43.65204" lon="1.38153">
        <ele>138</ele>
        <time>2025-04-18T10:25:30Z</time>
      </trkpt>
      <trkpt lat="43.65204" lon="1.38153">
        <ele>138</ele>
        <time>2025-04-18T10:25:31Z</time>
      </trkpt>
      <trkpt lat="43.65208" lon="1.38151">
        <ele>138</ele>
        <time>2025-04-18T10:25:32Z</time>
      </trkpt>
      <trkpt lat="43.65211" lon="1.38149">
        <ele>138</ele>
        <time>2025-04-18T10:25:33Z</time>
      </trkpt>
      <trkpt lat="43.65213" lon="1.38148">
        <ele>138</ele>
        <time>2025-04-18T10:25:34Z</time>
      </trkpt>
      <trkpt lat="43.65216" lon="1.38146">
        <ele>138</ele>
        <time>2025-04-18T10:25:35Z</time>
      </trkpt>
      <trkpt lat="43.65218" lon="1.38145">
        <ele>138</ele>
        <time>2025-04-18T10:25:36Z</time>
      </trkpt>
      <trkpt lat="43.6522" lon="1.38143">
        <ele>138</ele>
        <time>2025-04-18T10:25:37Z</time>
      </trkpt>
      <trkpt lat="43.65223" lon="1.38142">
        <ele>138</ele>
        <time>2025-04-18T10:25:38Z</time>
      </trkpt>
      <trkpt lat="43.65225" lon="1.3814">
        <ele>138</ele>
        <time>2025-04-18T10:25:39Z</time>
      </trkpt>
      <trkpt lat="43.65225" lon="1.3814">
        <ele>138</ele>
        <time>2025-04-18T10:25:40Z</time>
      </trkpt>
      <trkpt lat="43.65231" lon="1.38137">
        <ele>138</ele>
        <time>2025-04-18T10:25:41Z</time>
      </trkpt>
      <trkpt lat="43.65231" lon="1.38137">
        <ele>138</ele>
        <time>2025-04-18T10:25:42Z</time>
      </trkpt>
      <trkpt lat="43.65236" lon="1.38133">
        <ele>138</ele>
        <time>2025-04-18T10:25:43Z</time>
      </trkpt>
      <trkpt lat="43.65238" lon="1.38131">
        <ele>138</ele>
        <time>2025-04-18T10:25:44Z</time>
      </trkpt>
      <trkpt lat="43.6524" lon="1.38129">
        <ele>138</ele>
        <time>2025-04-18T10:25:45Z</time>
      </trkpt>
      <trkpt lat="43.65241" lon="1.38126">
        <ele>138</ele>
        <time>2025-04-18T10:25:46Z</time>
      </trkpt>
      <trkpt lat="43.65242" lon="1.38123">
        <ele>138</ele>
        <time>2025-04-18T10:25:47Z</time>
      </trkpt>
      <trkpt lat="43.65242" lon="1.38119">
        <ele>139</ele>
        <time>2025-04-18T10:25:48Z</time>
      </trkpt>
      <trkpt lat="43.65241" lon="1.38116">
        <ele>139</ele>
        <time>2025-04-18T10:25:49Z</time>
      </trkpt>
      <trkpt lat="43.6524" lon="1.38112">
        <ele>139</ele>
        <time>2025-04-18T10:25:50Z</time>
      </trkpt>
      <trkpt lat="43.65239" lon="1.38109">
        <ele>139</ele>
        <time>2025-04-18T10:25:51Z</time>
      </trkpt>
      <trkpt lat="43.65238" lon="1.38106">
        <ele>139</ele>
        <time>2025-04-18T10:25:52Z</time>
      </trkpt>
      <trkpt lat="43.65237" lon="1.38103">
        <ele>139</ele>
        <time>2025-04-18T10:25:53Z</time>
      </trkpt>
      <trkpt lat="43.65236" lon="1.38099">
        <ele>139</ele>
        <time>2025-04-18T10:25:54Z</time>
      </trkpt>
      <trkpt lat="43.65235" lon="1.38096">
        <ele>139</ele>
        <time>2025-04-18T10:25:55Z</time>
      </trkpt>
      <trkpt lat="43.65234" lon="1.38093">
        <ele>139</ele>
        <time>2025-04-18T10:25:56Z</time>
      </trkpt>
      <trkpt lat="43.65233" lon="1.3809">
        <ele>139</ele>
        <time>2025-04-18T10:25:57Z</time>
      </trkpt>
      <trkpt lat="43.65232" lon="1.38087">
        <ele>139</ele>
        <time>2025-04-18T10:25:58Z</time>
      </trkpt>
      <trkpt lat="43.65232" lon="1.38087">
        <ele>139</ele>
        <time>2025-04-18T10:25:59Z</time>
      </trkpt>
      <trkpt lat="43.6523" lon="1.38079">
        <ele>139</ele>
        <time>2025-04-18T10:26:00Z</time>
      </trkpt>
      <trkpt lat="43.65229" lon="1.38076">
        <ele>139</ele>
        <time>2025-04-18T10:26:01Z</time>
      </trkpt>
      <trkpt lat="43.65227" lon="1.38072">
        <ele>139</ele>
        <time>2025-04-18T10:26:02Z</time>
      </trkpt>
      <trkpt lat="43.65226" lon="1.38068">
        <ele>139</ele>
        <time>2025-04-18T10:26:03Z</time>
      </trkpt>
      <trkpt lat="43.65225" lon="1.38065">
        <ele>140</ele>
        <time>2025-04-18T10:26:04Z</time>
      </trkpt>
      <trkpt lat="43.65224" lon="1.38061">
        <ele>140</ele>
        <time>2025-04-18T10:26:05Z</time>
      </trkpt>
      <trkpt lat="43.65223" lon="1.38058">
        <ele>140</ele>
        <time>2025-04-18T10:26:06Z</time>
      </trkpt>
      <trkpt lat="43.65223" lon="1.38054">
        <ele>140</ele>
        <time>2025-04-18T10:26:07Z</time>
      </trkpt>
      <trkpt lat="43.65221" lon="1.3805">
        <ele>140</ele>
        <time>2025-04-18T10:26:08Z</time>
      </trkpt>
      <trkpt lat="43.65221" lon="1.38047">
        <ele>140</ele>
        <time>2025-04-18T10:26:09Z</time>
      </trkpt>
      <trkpt lat="43.65221" lon="1.38047">
        <ele>140</ele>
        <time>2025-04-18T10:26:10Z</time>
      </trkpt>
      <trkpt lat="43.65218" lon="1.3804">
        <ele>140</ele>
        <time>2025-04-18T10:26:11Z</time>
      </trkpt>
      <trkpt lat="43.65217" lon="1.38038">
        <ele>140</ele>
        <time>2025-04-18T10:26:12Z</time>
      </trkpt>
      <trkpt lat="43.65215" lon="1.38036">
        <ele>140</ele>
        <time>2025-04-18T10:26:13Z</time>
      </trkpt>
      <trkpt lat="43.65213" lon="1.38034">
        <ele>140</ele>
        <time>2025-04-18T10:26:14Z</time>
      </trkpt>
      <trkpt lat="43.65213" lon="1.38034">
        <ele>140</ele>
        <time>2025-04-18T10:26:15Z</time>
      </trkpt>
      <trkpt lat="43.65208" lon="1.38033">
        <ele>140</ele>
        <time>2025-04-18T10:26:16Z</time>
      </trkpt>
      <trkpt lat="43.65208" lon="1.38033">
        <ele>140</ele>
        <time>2025-04-18T10:26:17Z</time>
      </trkpt>
      <trkpt lat="43.65203" lon="1.38034">
        <ele>140</ele>
        <time>2025-04-18T10:26:18Z</time>
      </trkpt>
      <trkpt lat="43.65201" lon="1.38036">
        <ele>140</ele>
        <time>2025-04-18T10:26:19Z</time>
      </trkpt>
      <trkpt lat="43.65199" lon="1.38037">
        <ele>140</ele>
        <time>2025-04-18T10:26:20Z</time>
      </trkpt>
      <trkpt lat="43.65197" lon="1.38038">
        <ele>140</ele>
        <time>2025-04-18T10:26:21Z</time>
      </trkpt>
      <trkpt lat="43.65195" lon="1.3804">
        <ele>140</ele>
        <time>2025-04-18T10:26:22Z</time>
      </trkpt>
      <trkpt lat="43.65193" lon="1.38042">
        <ele>140</ele>
        <time>2025-04-18T10:26:23Z</time>
      </trkpt>
      <trkpt lat="43.65193" lon="1.38042">
        <ele>140</ele>
        <time>2025-04-18T10:26:24Z</time>
      </trkpt>
      <trkpt lat="43.65189" lon="1.38045">
        <ele>140</ele>
        <time>2025-04-18T10:26:25Z</time>
      </trkpt>
      <trkpt lat="43.65186" lon="1.38046">
        <ele>140</ele>
        <time>2025-04-18T10:26:26Z</time>
      </trkpt>
      <trkpt lat="43.65186" lon="1.38046">
        <ele>140</ele>
        <time>2025-04-18T10:26:27Z</time>
      </trkpt>
      <trkpt lat="43.65182" lon="1.38046">
        <ele>140</ele>
        <time>2025-04-18T10:26:28Z</time>
      </trkpt>
      <trkpt lat="43.65182" lon="1.38046">
        <ele>140</ele>
        <time>2025-04-18T10:26:29Z</time>
      </trkpt>
      <trkpt lat="43.65178" lon="1.38049">
        <ele>140</ele>
        <time>2025-04-18T10:26:30Z</time>
      </trkpt>
      <trkpt lat="43.65176" lon="1.38051">
        <ele>140</ele>
        <time>2025-04-18T10:26:31Z</time>
      </trkpt>
      <trkpt lat="43.65174" lon="1.38052">
        <ele>140</ele>
        <time>2025-04-18T10:26:32Z</time>
      </trkpt>
      <trkpt lat="43.65171" lon="1.38054">
        <ele>140</ele>
        <time>2025-04-18T10:26:33Z</time>
      </trkpt>
      <trkpt lat="43.65169" lon="1.38056">
        <ele>140</ele>
        <time>2025-04-18T10:26:34Z</time>
      </trkpt>
      <trkpt lat="43.65167" lon="1.38057">
        <ele>140</ele>
        <time>2025-04-18T10:26:35Z</time>
      </trkpt>
      <trkpt lat="43.65164" lon="1.38059">
        <ele>140</ele>
        <time>2025-04-18T10:26:36Z</time>
      </trkpt>
      <trkpt lat="43.65162" lon="1.38061">
        <ele>140</ele>
        <time>2025-04-18T10:26:37Z</time>
      </trkpt>
      <trkpt lat="43.6516" lon="1.38063">
        <ele>140</ele>
        <time>2025-04-18T10:26:38Z</time>
      </trkpt>
      <trkpt lat="43.65157" lon="1.38065">
        <ele>140</ele>
        <time>2025-04-18T10:26:39Z</time>
      </trkpt>
      <trkpt lat="43.65155" lon="1.38067">
        <ele>140</ele>
        <time>2025-04-18T10:26:40Z</time>
      </trkpt>
      <trkpt lat="43.65152" lon="1.38069">
        <ele>140</ele>
        <time>2025-04-18T10:26:41Z</time>
      </trkpt>
      <trkpt lat="43.6515" lon="1.3807">
        <ele>140</ele>
        <time>2025-04-18T10:26:42Z</time>
      </trkpt>
      <trkpt lat="43.65148" lon="1.38072">
        <ele>140</ele>
        <time>2025-04-18T10:26:43Z</time>
      </trkpt>
      <trkpt lat="43.65145" lon="1.38074">
        <ele>141</ele>
        <time>2025-04-18T10:26:44Z</time>
      </trkpt>
      <trkpt lat="43.65145" lon="1.38074">
        <ele>141</ele>
        <time>2025-04-18T10:26:45Z</time>
      </trkpt>
      <trkpt lat="43.6514" lon="1.38078">
        <ele>141</ele>
        <time>2025-04-18T10:26:46Z</time>
      </trkpt>
      <trkpt lat="43.6514" lon="1.38078">
        <ele>141</ele>
        <time>2025-04-18T10:26:47Z</time>
      </trkpt>
      <trkpt lat="43.65135" lon="1.38081">
        <ele>141</ele>
        <time>2025-04-18T10:26:48Z</time>
      </trkpt>
      <trkpt lat="43.65133" lon="1.38083">
        <ele>141</ele>
        <time>2025-04-18T10:26:49Z</time>
      </trkpt>
      <trkpt lat="43.6513" lon="1.38085">
        <ele>141</ele>
        <time>2025-04-18T10:26:50Z</time>
      </trkpt>
      <trkpt lat="43.65128" lon="1.38087">
        <ele>140</ele>
        <time>2025-04-18T10:26:51Z</time>
      </trkpt>
      <trkpt lat="43.65125" lon="1.38089">
        <ele>140</ele>
        <time>2025-04-18T10:26:52Z</time>
      </trkpt>
      <trkpt lat="43.65123" lon="1.3809">
        <ele>141</ele>
        <time>2025-04-18T10:26:53Z</time>
      </trkpt>
      <trkpt lat="43.65121" lon="1.38092">
        <ele>141</ele>
        <time>2025-04-18T10:26:54Z</time>
      </trkpt>
      <trkpt lat="43.65118" lon="1.38094">
        <ele>141</ele>
        <time>2025-04-18T10:26:55Z</time>
      </trkpt>
      <trkpt lat="43.65115" lon="1.38096">
        <ele>141</ele>
        <time>2025-04-18T10:26:56Z</time>
      </trkpt>
      <trkpt lat="43.65113" lon="1.38098">
        <ele>141</ele>
        <time>2025-04-18T10:26:57Z</time>
      </trkpt>
      <trkpt lat="43.6511" lon="1.38099">
        <ele>141</ele>
        <time>2025-04-18T10:26:58Z</time>
      </trkpt>
      <trkpt lat="43.65107" lon="1.38101">
        <ele>141</ele>
        <time>2025-04-18T10:26:59Z</time>
      </trkpt>
      <trkpt lat="43.65105" lon="1.38102">
        <ele>141</ele>
        <time>2025-04-18T10:27:00Z</time>
      </trkpt>
      <trkpt lat="43.65103" lon="1.38104">
        <ele>141</ele>
        <time>2025-04-18T10:27:01Z</time>
      </trkpt>
      <trkpt lat="43.65101" lon="1.38106">
        <ele>141</ele>
        <time>2025-04-18T10:27:02Z</time>
      </trkpt>
      <trkpt lat="43.65098" lon="1.38107">
        <ele>141</ele>
        <time>2025-04-18T10:27:03Z</time>
      </trkpt>
      <trkpt lat="43.65098" lon="1.38107">
        <ele>141</ele>
        <time>2025-04-18T10:27:04Z</time>
      </trkpt>
      <trkpt lat="43.65094" lon="1.38111">
        <ele>141</ele>
        <time>2025-04-18T10:27:05Z</time>
      </trkpt>
      <trkpt lat="43.65094" lon="1.38111">
        <ele>141</ele>
        <time>2025-04-18T10:27:06Z</time>
      </trkpt>
      <trkpt lat="43.65089" lon="1.38114">
        <ele>141</ele>
        <time>2025-04-18T10:27:07Z</time>
      </trkpt>
      <trkpt lat="43.65087" lon="1.38116">
        <ele>141</ele>
        <time>2025-04-18T10:27:08Z</time>
      </trkpt>
      <trkpt lat="43.65084" lon="1.38118">
        <ele>140</ele>
        <time>2025-04-18T10:27:09Z</time>
      </trkpt>
      <trkpt lat="43.65082" lon="1.3812">
        <ele>140</ele>
        <time>2025-04-18T10:27:10Z</time>
      </trkpt>
      <trkpt lat="43.6508" lon="1.38122">
        <ele>140</ele>
        <time>2025-04-18T10:27:11Z</time>
      </trkpt>
      <trkpt lat="43.65077" lon="1.38123">
        <ele>140</ele>
        <time>2025-04-18T10:27:12Z</time>
      </trkpt>
      <trkpt lat="43.65077" lon="1.38123">
        <ele>140</ele>
        <time>2025-04-18T10:27:13Z</time>
      </trkpt>
      <trkpt lat="43.65072" lon="1.38125">
        <ele>140</ele>
        <time>2025-04-18T10:27:14Z</time>
      </trkpt>
      <trkpt lat="43.65072" lon="1.38125">
        <ele>140</ele>
        <time>2025-04-18T10:27:15Z</time>
      </trkpt>
      <trkpt lat="43.65067" lon="1.38121">
        <ele>140</ele>
        <time>2025-04-18T10:27:16Z</time>
      </trkpt>
      <trkpt lat="43.65065" lon="1.38118">
        <ele>140</ele>
        <time>2025-04-18T10:27:17Z</time>
      </trkpt>
      <trkpt lat="43.65063" lon="1.38114">
        <ele>140</ele>
        <time>2025-04-18T10:27:18Z</time>
      </trkpt>
      <trkpt lat="43.65062" lon="1.38111">
        <ele>140</ele>
        <time>2025-04-18T10:27:19Z</time>
      </trkpt>
      <trkpt lat="43.65062" lon="1.38111">
        <ele>140</ele>
        <time>2025-04-18T10:27:20Z</time>
      </trkpt>
      <trkpt lat="43.65059" lon="1.38104">
        <ele>140</ele>
        <time>2025-04-18T10:27:21Z</time>
      </trkpt>
      <trkpt lat="43.65059" lon="1.38104">
        <ele>139</ele>
        <time>2025-04-18T10:27:22Z</time>
      </trkpt>
      <trkpt lat="43.65056" lon="1.38098">
        <ele>139</ele>
        <time>2025-04-18T10:27:23Z</time>
      </trkpt>
      <trkpt lat="43.65054" lon="1.38095">
        <ele>138</ele>
        <time>2025-04-18T10:27:24Z</time>
      </trkpt>
      <trkpt lat="43.65053" lon="1.38092">
        <ele>137</ele>
        <time>2025-04-18T10:27:25Z</time>
      </trkpt>
      <trkpt lat="43.65052" lon="1.38089">
        <ele>137</ele>
        <time>2025-04-18T10:27:26Z</time>
      </trkpt>
      <trkpt lat="43.65052" lon="1.38089">
        <ele>137</ele>
        <time>2025-04-18T10:27:27Z</time>
      </trkpt>
    </trkseg>
  </trk>
</gpx>